     2.10           OBSERVATION DATA    G (GPS)             RINEX VERSION / TYPE
teqc 2000Jul20 Karen Wendt 20040726 19:05:33UTC             PGM / RUN BY / DATE
Linux 2.0.36|Pentium II|gcc -static|Linux|486/DX+           COMMENT
teqc 2000Jul20 Karen Wendt 20040726 19:05:33UTC             COMMENT
BIT 2 OF LLI FLAGS DATA COLLECTED UNDER A/S CONDITION       COMMENT
plum Plummer_TOO_1988_DOA_ForestService                     MARKER NAME
JLS USGS                                                    OBSERVER / AGENCY
ZE120023202 ASHTECH UZ-12 ZE00                              REC # / TYPE / VERS
CR14329 ASH700936D_M NONE                                   ANT # / TYPE
 -2660273.0000 -4065282.0000  4120610.0000                  APPROX POSITION XYZ
        1.3369        0.0000        0.0000                  ANTENNA: DELTA H/E/N
     1     1                                                WAVELENGTH FACT L1/2
     5    C1    L1    L2    P1    P2                        # / TYPES OF OBSERV
    30.0000                                                 INTERVAL
                                                            COMMENT
National Earthquake Hazard Reduction Program                COMMENT
Crustal Strain Project                                      COMMENT
345 Middlefield Road, MS/977                                COMMENT
U.S. Geological Survey, Menlo Park, California 94025        COMMENT
Contact: kwendt@usgs.gov (Ph: 650-329-4866)                 COMMENT
Antenna height is vertical to base of antenna               COMMENT
                                                            COMMENT
SNR is mapped to RINEX snr flag value [1-9]                 COMMENT
L1: 1 -> 1; 90 -> 5; 210 -> 9                               COMMENT
L2: 1 -> 1; 150 -> 5; 250 -> 9                              COMMENT
  2004     7    20     0     0    0.0000000     GPS         TIME OF FIRST OBS
                                                            END OF HEADER
 04  7 20  0  0  0.0000000  0  8G13G23G16G27G 3G 8G20G 1
  20464431.086   -23283677.41744 -17682602.67142  20464433.260    20464427.747
  20859130.518   -24830162.77943 -19338415.37442  20859132.177    20859125.326
  22828561.720   -12875396.85543  -9915920.96942  22828562.950    22828558.827
  21979951.008   -19824831.65343 -15404232.38642  21979952.334    21979948.998
  23830933.052    -7348948.52943  -5694919.40442  23830934.960    23830933.356
  23988477.797    -9710001.48843  -7387129.49942  23988478.406    23988477.399
  23422573.862    -9352747.52343  -7278216.74942  23422574.731    23422573.226
  21633926.241   -19769351.26943 -15399447.35042  21633927.589    21633924.596
 04  7 20  0  0 30.0000000  0  8G13G23G16G27G 3G 8G20G 1
  20458588.445   -23314380.49644 -17706527.13842  20458590.640    20458585.111
  20868025.767   -24783417.86643 -19301990.79742  20868027.452    20868020.612
  22843456.907   -12797122.06343  -9854927.68642  22843458.216    22843454.102
  21970436.409   -19874830.84843 -15443192.77442  21970437.776    21970434.534
  23819391.442    -7409599.48343  -5742179.77642  23819393.282    23819391.373
  23971890.107    -9797172.55243  -7455054.90742  23971890.509    23971889.682
  23443655.688    -9241962.03643  -7191890.51242  23443656.531    23443655.260
  21644929.619   -19711527.63143 -15354390.00342  21644930.980    21644928.144
 04  7 20  0  1  0.0000000  0  8G13G23G16G27G 3G 8G20G 1
  20452809.607   -23344748.62644 -17730190.60542  20452811.802    20452806.294
  20876989.836   -24736311.26743 -19265284.37442  20876991.495    20876984.710
  22858422.691   -12718476.54543  -9793645.52342  22858423.923    22858419.860
  21960958.171   -19924639.42443 -15482004.62842  21960959.572    21960956.384
  23807910.755    -7469930.34243  -5789190.76242  23807912.510    23807910.693
  23955326.967    -9884213.23743  -7522878.71642  23955327.317    23955326.632
  23464764.878    -9131033.62343  -7105452.91942  23464765.685    23464764.443
  21655989.061   -19653409.41343 -15309103.11042  21655990.438    21655987.737
 04  7 20  0  1 30.0000000  0  8G13G23G16G27G 3G 8G20G 1
  20447095.406   -23374777.01344 -17753589.34242  20447097.596    20447092.066
  20886023.403   -24688839.47843 -19228293.38642  20886025.044    20886018.276
  22873459.315   -12639458.86843  -9732073.36842  22873460.503    22873456.420
  21951516.885   -19974253.78943 -15520665.14642  21951518.298    21951515.141
  23796492.239    -7529934.61943  -5835947.26842  23796494.022    23796492.328
  23938788.914    -9971119.04543  -7590597.39942  23938789.538    23938788.789
  23485901.355    -9019961.32843  -7018903.21042  23485902.261    23485900.922
  21667105.467   -19594993.10043 -15263583.95942  21667106.805    21667103.985
 04  7 20  0  2  0.0000000  0  8G13G23G16G27G 3G 8G20G 1
  20441444.439   -23404472.93844 -17776729.01542  20441446.617    20441441.125
  20895124.815   -24641011.34543 -19191024.74142  20895126.489    20895119.692
  22888564.541   -12560080.65343  -9670220.26542  22888565.671    22888561.546
  21942110.634   -20023683.01843 -15559181.39642  21942112.116    21942108.980
  23785134.886    -7589618.16743  -5882453.86642  23785136.712    23785134.993
  23922275.127   -10057898.09143  -7658217.31342  23922275.759    23922274.889
  23507063.028    -8908756.72543  -6932250.44942  23507063.934    23507062.746
  21678276.780   -19536287.56043 -15217839.43042  21678278.110    21678275.302
 04  7 20  0  2 30.0000000  0  8G13G23G16G27G 3G 8G20G 1
  20435859.094   -23433823.96544 -17799599.93942  20435861.286    20435855.806
  20904296.133   -24592816.10143 -19153470.02642  20904297.793    20904290.949
  22903739.992   -12480333.53843  -9608079.70142  22903741.072    22903736.936
  21932741.819   -20072916.27243 -15597544.94342  21932743.291    21932740.013
  23773841.096    -7648967.61643  -5928700.12742  23773842.822    23773841.152
  23905787.536   -10144539.45743  -7725729.95242  23905788.119    23905787.294
  23528251.630    -8797411.62743  -6845488.19742  23528252.471    23528251.299
  21689505.205   -19477282.11743 -15171861.20242  21689506.519    21689503.624
 04  7 20  0  3  0.0000000  0  8G13G23G16G27G 3G 8G20G 1
  20430338.341   -23462835.79144 -17822206.54942  20430340.501    20430335.070
  20913535.922   -24544260.75543 -19115634.71542  20913537.588    20913530.799
  22918983.765   -12400226.96043  -9545659.02942  22918984.931    22918980.824
  21923409.009   -20121960.63243 -15635761.28742  21923410.448    21923407.027
  23762609.986    -7707986.58743  -5974688.87242  23762611.760    23762610.156
  23889325.183   -10231049.43543  -7793140.20542  23889325.586    23889324.614
  23549465.118    -8685935.71843  -6758624.00742  23549465.927    23549464.610
  21700789.320   -19417983.63943 -15125654.62842  21700790.737    21700787.780
 04  7 20  0  3 30.0000000  0  8G13G23G16G27G 3G 8G20G 1
  20424883.116   -23491503.12744 -17844544.72342  20424885.279    20424879.842
  20922844.983   -24495341.51043 -19077515.84442  20922846.640    20922839.874
  22934296.327   -12319759.46443  -9482957.13942  22934297.420    22934293.402
  21914112.884   -20170812.43443 -15673827.59442  21914114.278    21914110.809
  23751443.136    -7766668.50343  -6020414.96442  23751444.888    23751443.304
  23872888.600   -10317423.47343  -7860444.51142  23872889.014    23872887.774
  23570703.479    -8574327.70443  -6671656.86842  23570704.346    23570703.003
  21712129.962   -19358388.55343 -15079216.94142  21712131.377    21712128.456
 04  7 20  0  4  0.0000000  0  8G13G23G16G27G 3G 8G20G 1
  20419493.306   -23519826.54244 -17866614.91442  20419495.449    20419489.971
  20932222.780   -24446061.12343 -19039115.56842  20932224.452    20932217.636
  22949676.436   -12238936.25243  -9419978.05442  22949677.595    22949673.607
  21904852.860   -20219474.23843 -15711745.85542  21904854.279    21904850.839
  23740340.542    -7825013.08643  -6065878.18842  23740342.293    23740340.563
  23856477.600   -10403663.65943  -7927644.56342  23856477.822    23856476.634
  23591965.922    -8462592.96643  -6584590.96642  23591966.805    23591965.403
  21723526.520   -19298499.51943 -15032550.21342  21723527.924    21723524.985
 04  7 20  0  4 30.0000000  0  8G13G23G16G27G 3G 8G20G 1
  20414169.155   -23547805.24544 -17888416.49442  20414171.256    20414165.798
  20941669.274   -24396419.75543 -19000434.00942  20941670.951    20941664.107
  22965123.880   -12157759.79643  -9356723.73342  22965124.985    22965120.980
  21895628.815   -20267946.47643 -15749516.38842  21895630.282    21895626.884
  23729302.420    -7883017.81043  -6111076.60342  23729304.207    23729302.521
  23840092.098   -10489769.64943  -7994740.00942  23840092.505    23840091.026
  23613251.820    -8350734.45443  -6497428.62942  23613252.599    23613251.432
  21734978.894   -19238316.90443 -14985654.71142  21734980.310    21734977.366
 04  7 20  0  5  0.0000000  0  8G13G23G16G27G 3G 8G20G 1
  20408911.247   -23575435.78144 -17909946.77642  20408913.356    20408907.947
  20951184.781   -24346415.44743 -18961469.63042  20951186.418    20951179.613
  22980638.335   -12076230.43643  -9293194.41542  22980639.505    22980635.549
  21886441.299   -20316227.16843 -15787137.65542  21886442.738    21886439.240
  23718330.125    -7940677.70643  -6156006.31442  23718331.758    23718330.285
  23823732.834   -10575738.99543  -8061728.94842  23823733.250    23823731.172
  23634561.421    -8238752.61043  -6410170.19142  23634562.027    23634560.949
  21746487.716   -19177838.69443 -14938528.88442  21746489.066    21746486.022
 04  7 20  0  5 30.0000000  0  8G13G23G16G27G 3G 8G20G 1
  20403719.196   -23602720.36444 -17931207.48242  20403721.300    20403715.893
  20960768.484   -24296052.22243 -18922225.58142  20960770.154    20960763.459
  22996218.609   -11994354.76543  -9229395.22842  22996219.889    22996216.071
  21877289.578   -20364320.08343 -15824612.61842  21877290.962    21877287.415
  23707423.193    -7997993.94443  -6200668.24042  23707424.847    23707423.267
  23807398.499   -10661575.08043  -8128614.04842  23807398.911    23807396.718
  23655893.381    -8126653.94643  -6322820.76442  23655893.801    23655892.981
  21758051.832   -19117068.77843 -14891175.74542  21758053.250    21758050.239
 04  7 20  0  6  0.0000000  0  8G13G23G16G27G 3G 8G20G 1
  20398594.211   -23629651.93644 -17952193.11442  20398596.344    20398590.972
  20970421.690   -24245324.58943 -18882697.59042  20970423.329    20970416.606
  23011865.393   -11912129.79643  -9165323.85842  23011866.687    23011863.104
  21868174.367   -20412220.09343 -15861937.27142  21868175.766    21868172.414
  23696583.224    -8054958.15143  -6245055.86642  23696585.004    23696583.192
  23791090.635   -10747271.79343  -8195390.63042  23791091.016    23791089.046
  23677247.870    -8014435.73043  -6235378.17842  23677248.453    23677247.819
  21769672.425   -19056001.82743 -14843591.13742  21769673.861    21769670.943
 04  7 20  0  6 30.0000000  0  8G13G23G16G27G 3G 8G20G 1
  20393535.828   -23656234.06444 -17972906.44642  20393537.916    20393532.517
  20980143.157   -24194237.73443 -18842889.67842  20980144.852    20980138.069
  23027577.427   -11829562.91943  -9100986.06742  23027578.707    23027575.146
  21859094.967   -20459932.17643 -15899115.49042  21859096.389    21859093.142
  23685809.697    -8111572.21243  -6289170.62842  23685811.575    23685809.839
  23774808.690   -10832833.60343  -8262062.05742  23774809.060    23774807.189
  23698623.837    -7902105.67843  -6147848.42542  23698624.462    23698623.865
  21781348.740   -18994642.84543 -14795778.97842  21781350.131    21781347.198
 04  7 20  0  7  0.0000000  0  8G13G23G16G27G 3G 8G20G 1
  20388544.386   -23682464.27344 -17993345.56142  20388546.466    20388541.029
  20989933.228   -24142790.73243 -18802801.13342  20989934.907    20989928.095
  23043354.212   -11746655.48743  -9036382.90742  23043355.535    23043351.890
  21850051.610   -20507455.32243 -15936146.46642  21850053.054    21850049.768
  23675103.329    -8167832.48643  -6333009.77442  23675105.139    23675103.666
  23758552.905   -10918258.76843  -8328627.00242  23758553.128    23758551.522
  23720020.724    -7789665.13843  -6060232.59842  23720021.388    23720020.838
  21793080.795   -18932990.85743 -14747738.51342  21793082.193    21793079.188
 04  7 20  0  7 30.0000000  0  8G13G23G16G27G 3G 8G20G 1
  20383619.839   -23708342.65444 -18013510.51642  20383621.930    20383616.542
  20999791.486   -24090985.37443 -18762433.35042  20999793.105    20999786.359
  23059195.148   -11663411.62343  -8971517.61142  23059196.394    23059192.655
  21841043.962   -20554791.35043 -15973031.63242  21841045.364    21841041.952
  23664465.047    -8223737.71143  -6376572.24242  23664466.740    23664465.319
  23742323.026   -11003548.86843  -8395086.70442  23742323.250    23742321.317
  23741437.629    -7677118.64343  -5972534.18742  23741438.365    23741437.677
  21804868.174   -18871047.79843 -14699471.23042  21804869.520    21804866.646
 04  7 20  0  8  0.0000000  0  8G13G23G16G27G 3G 8G20G 1
  20378763.494   -23733863.12544 -18033396.58242  20378765.585    20378760.184
  21009718.767   -24038817.19043 -18721782.85042  21009720.428    21009713.729
  23075100.175   -11579829.26443  -8906388.53942  23075101.607    23075097.859
  21832072.648   -20601935.79243 -16009767.52442  21832074.078    21832070.614
  23653895.712    -8279280.54243  -6419852.30842  23653897.379    23653895.884
  23726119.791   -11088698.41443  -8461436.87242  23726120.243    23726117.828
  23762875.163    -7564464.41743  -5884751.80042  23762875.762    23762874.819
  21816711.664   -18808809.35643 -14650973.77342  21816713.003    21816710.299
 04  7 20  0  8 30.0000000  0  8G13G23G16G27G 3G 8G20G 1
  20373975.129   -23759025.88044 -18053003.91042  20373977.273    20373971.756
  21019714.956   -23986287.34243 -18680850.53742  21019716.587    21019709.918
  23091069.145   -11495912.37043  -8840998.79742  23091070.445    23091066.667
  21823137.480   -20648889.95343 -16046355.15042  21823138.956    21823135.494
  23643395.325    -8334459.56943  -6462848.90042  23643397.037    23643395.600
  23709942.907   -11173708.31943  -8527678.25042  23709943.447    23709941.171
  23784332.358    -7451706.05343  -5796888.32842  23784332.855    23784331.833
  21828611.346   -18746276.84343 -14602247.17842  21828612.670    21828609.900
 04  7 20  0  9  0.0000000  0  8G13G23G16G27G 3G 8G20G 1
  20369254.897   -23783830.92344 -18072332.50842  20369257.058    20369251.456
  21029779.403   -23933398.10243 -18639638.16842  21029781.034    21029774.440
  23107100.871   -11411664.92643  -8775351.47142  23107102.109    23107098.504
  21814238.206   -20695655.80843 -16082796.03742  21814239.707    21814236.273
  23632964.518    -8389273.96043  -6505561.35942  23632966.149    23632964.824
  23693791.968   -11258579.63443  -8593811.63342  23693792.688    23693790.716
  23805808.654    -7338848.31043  -5708947.39842  23805809.266    23805807.811
  21840566.521   -18683452.30143 -14553293.04242  21840567.888    21840565.053
 04  7 20  0  9 30.0000000  0  8G13G23G16G27G 3G 8G20G 1
  20364602.922   -23808277.02244 -18091381.40442  20364605.092    20364599.533
  21039912.198   -23880149.86343 -18598146.06142  21039913.804    21039907.208
  23123194.817   -11327090.14143  -8709449.08342  23123196.134    23123192.612
  21805374.751   -20742233.83543 -16119090.55642  21805376.242    21805372.764
  23622603.621    -8443720.88943  -6547987.47442  23622605.228    23622603.968
  23677667.383   -11343312.78543  -8659837.38842  23677668.045    23677666.559
  23827303.277    -7225894.03643  -5620931.25142  23827304.107    23827302.556
  21852576.979   -18620336.21243 -14504111.71042  21852578.327    21852575.662
 04  7 20  0 10  0.0000000  0  8G13G23G16G27G 3G 8G20G 1
  20360019.558   -23832362.67644 -18110149.43742  20360021.710    20360016.217
  21050113.277   -23826542.64443 -18556374.23142  21050114.876    21050108.339
  23139350.787   -11242190.13543  -8643293.27842  23139352.144    23139348.732
  21796546.958   -20788623.85543 -16155238.58442  21796548.431    21796544.942
  23612313.154    -8497797.49143  -6590125.04142  23612314.786    23612313.523
  23661570.088   -11427906.48543  -8725754.46142  23661570.341    23661569.069
  23848815.738    -7112845.83043  -5532841.92942  23848816.731    23848815.515
  21864642.904   -18556928.40443 -14454703.04942  21864644.251    21864641.787
 04  7 20  0 10 30.0000000  0  8G13G23G16G27G 3G 8G20G 1
  20355505.248   -23856085.25044 -18128634.55342  20355507.399    20355501.940
  21060383.039   -23772575.22043 -18514321.72642  21060384.600    21060378.049
  23155568.489   -11156966.08943  -8576884.97842  23155569.768    23155566.496
  21787755.080   -20834824.80243 -16191239.28442  21787756.563    21787753.111
  23602093.861    -8551500.01243  -6631971.13342  23602095.489    23602094.147
  23645499.316   -11512359.07943  -8791561.57442  23645499.786    23645498.242
  23870345.908    -6999704.75243  -5444680.22142  23870346.857    23870345.916
  21876764.871   -18493227.72043 -14405066.19842  21876766.126    21876763.641
 04  7 20  0 11  0.0000000  0  8G13G23G16G27G 3G 8G20G 1
  20351060.568   -23879441.93644 -18146834.55842  20351062.744    20351057.262
  21070721.357   -23718246.74843 -18471987.88242  21070722.991    21070716.454
  23171847.523   -11071419.39343  -8510225.24842  23171848.810    23171845.730
  21778999.578   -20880835.53043 -16227091.76342  21779001.019    21778997.548
  23591946.444    -8604824.33543  -6673522.49842  23591948.137    23591946.922
  23629455.358   -11596669.11243  -8857257.60242  23629455.896    23629454.669
  23891893.548    -6886472.64343  -5356447.60142  23891894.437    23891893.525
  21888942.565   -18429233.34343 -14355200.48242  21888943.881    21888941.432
 04  7 20  0 11 30.0000000  0  8G13G23G16G27G 3G 8G20G 1
  20346684.797   -23902436.60044 -18164752.46442  20346686.958    20346681.507
  21081127.446   -23663562.59543 -18429376.88042  21081129.056    21081122.617
  23188186.500   -10985557.74143  -8443320.09342  23188187.680    23188184.769
  21770279.233   -20926661.30343 -16262800.12442  21770280.664    21770277.189
  23581870.620    -8657773.05043  -6714781.18742  23581872.331    23581871.107
  23613437.860   -11680841.12443  -8922846.09142  23613438.234    23613437.011
  23913456.813    -6773157.13743  -5268150.01742  23913457.761    23913456.891
  21901175.159   -18364950.54043 -14305110.00042  21901176.435    21901174.150
 04  7 20  0 12  0.0000000  0  8G13G23G16G27G 3G 8G20G 1
  20342378.920   -23925064.09244 -18182384.26142  20342381.079    20342375.641
  21091601.889   -23608519.10843 -18386485.87642  21091603.468    21091597.052
  23204585.786   -10899379.90043  -8376168.56042  23204586.720    23204583.919
  21761594.586   -20972298.54943 -16298361.57642  21761596.070    21761592.689
  23571867.535    -8710339.57643  -6755742.08042  23571869.252    23571867.967
  23597447.264   -11764870.60443  -8988323.48442  23597447.810    23597446.631
  23935035.879    -6659757.06243  -5179786.51842  23935036.879    23935036.345
  21913463.431   -18300375.77743 -14254792.03342  21913464.754    21913462.418
 04  7 20  0 12 30.0000000  0  8G13G23G16G27G 3G 8G20G 1
  20338143.274   -23947322.73744 -18199728.64742  20338145.427    20338139.933
  21102144.722   -23553116.35643 -18343314.93242  21102146.308    21102139.754
  23221044.630   -10812888.31643  -8308772.55342  23221045.672    23221042.839
  21752945.866   -21017747.25543 -16333776.11542  21752947.382    21752944.023
  23561937.770    -8762521.25343  -6796403.07242  23561939.466    23561938.045
  23581484.052   -11848757.47143  -9053689.75342  23581484.720    23581483.323
  23956630.733    -6546275.08843  -5091359.17342  23956631.554    23956631.312
  21925807.277   -18235509.31143 -14204246.79142  21925808.674    21925806.159
 04  7 20  0 13  0.0000000  0  8G13G23G16G27G 3G 8G20G 1
  20333978.118   -23969210.82044 -18216784.28042  20333980.271    20333974.740
  21112755.937   -23497354.58743 -18299864.23442  21112757.534    21112750.864
  23237562.702   -10726085.18943  -8241133.78242  23237563.901    23237560.941
  21744333.190   -21063007.34143 -16369043.68142  21744334.649    21744331.240
  23552081.635    -8814315.30843  -6836762.00942  23552083.323    23552081.831
  23565547.715   -11932500.68643  -9118944.07542  23565548.163    23565547.314
  23978241.194    -6432713.65243  -5002869.91442  23978241.825    23978241.339
  21938206.522   -18170350.98143 -14153474.11642  21938207.977    21938205.456
 04  7 20  0 13 30.0000000  0  8G13G23G16G27G 3G 8G20G 1
  20329883.402   -23990728.64044 -18233551.40642  20329885.568    20329880.008
  21123435.032   -23441235.46943 -18256135.07942  21123436.644    21123430.008
  23254139.312   -10638974.61243  -8173255.45242  23254140.452    23254137.511
  21735756.058   -21108080.45743 -16404165.55242  21735757.493    21735754.112
  23542299.424    -8865720.52743  -6876817.96642  23542301.169    23542299.810
  23549638.717   -12016101.49943  -9184087.48242  23549639.179    23549638.410
  23999866.016    -6319076.85143  -4914321.95842  23999866.718    23999865.694
  21950660.963   -18104902.72443 -14102475.51042  21950662.334    21950659.830
 04  7 20  0 14  0.0000000  0  8G13G23G16G27G 3G 8G20G 1
  20325859.214   -24011875.92044 -18250029.79542  20325861.349    20325855.837
  21134181.750   -23384760.41043 -18212128.55242  21134183.367    21134176.924
  23270773.704   -10551560.15643  -8105140.32442  23270774.988    23270772.009
  21727214.297   -21152967.60543 -16439142.51342  21727215.703    21727212.391
  23532591.693    -8916735.07043  -6916569.50842  23532593.359    23532592.009
  23533757.132   -12099560.21343  -9249120.14042  23533757.605    23533756.480
  24021504.167    -6205368.32443  -4825718.10142  24021505.120    24021503.743
  21963170.363   -18039165.69143 -14051251.89442  21963171.747    21963169.155
 04  7 20  0 14 30.0000000  0  8G13G23G16G27G 3G 8G20G 1
  20321905.886   -24032650.91944 -18266218.10442  20321908.016    20321902.492
  21144996.298   -23327929.38843 -18167844.66142  21144997.877    21144991.565
  23287465.716   -10463844.30543  -8036790.35642  23287467.046    23287463.764
  21718707.906   -21197668.99343 -16473974.72942  21718709.293    21718705.971
  23522958.725    -8967356.36443  -6956014.60042  23522960.385    23522958.936
  23517902.641   -12182876.59243  -9314041.87042  23517903.068    23517901.940
  24043155.101    -6091590.94443  -4737060.61142  24043156.213    24043155.004
  21975734.705   -17973140.02143 -13999803.37742  21975736.116    21975733.393
 04  7 20  0 15  0.0000000  0  8G13G23G16G27G 3G 8G20G 1
  20318024.451   -24053048.16644 -18282112.05642  20318026.589    20318021.035
  21155879.563   -23270738.35743 -18123280.24942  21155881.110    21155874.698
  23304215.416   -10375825.19643  -7968204.05342  23304216.759    23304213.159
  21710237.658   -21242180.44043 -16508658.94142  21710239.038    21710235.670
  23513401.906    -9017577.51443  -6995147.89042  23513403.509    23513402.032
  23502075.505   -12266045.88443  -9378849.00342  23502076.106    23502075.336
  24064819.726    -5977742.90643  -4648348.06442  24064820.674    24064819.934
  21988354.759   -17906821.76243 -13948126.86042  21988356.113    21988353.294
 04  7 20  0 15 30.0000000  0  8G13G23G16G27G 3G 8G20G 1
  20314214.137   -24073070.95144 -18297714.22142  20314216.317    20314210.802
  21166830.155   -23213192.67443 -18078439.48642  21166831.773    21166825.244
  23321021.290   -10287510.58643  -7899387.51242  23321022.624    23321018.706
  21701802.621   -21286506.93743 -16543199.02942  21701803.986    21701800.606
  23503920.801    -9067400.94043  -7033971.29042  23503922.376    23503920.903
  23486275.853   -12349072.52543  -9443545.00942  23486276.414    23486275.754
  24086496.394    -5863831.78043  -4559586.40242  24086497.190    24086496.933
  22001029.317   -17840216.30343 -13896226.55042  22001030.700    22001027.858
 04  7 20  0 16  0.0000000  0  8G13G23G16G27G 3G 8G20G 1
  20310474.711   -24092721.68343 -18313026.48042  20310476.865    20310471.414
  21177847.542   -23155296.15543 -18033325.33242  21177849.140    21177842.545
  23337882.281   -10198906.17943  -7830345.15842  23337883.420    23337879.366
  21693401.991   -21330652.23943 -16577597.92642  21693403.393    21693399.973
  23494515.241    -9116827.50843  -7072485.43742  23494516.777    23494515.289
  23470503.331   -12431959.42143  -9508132.08642  23470503.594    23470502.615
  24108184.041    -5749863.66843  -4470780.30342  24108184.900    24108184.675
  22013757.706   -17773327.32243 -13844105.30242  22013759.137    22013756.446
 04  7 20  0 16 30.0000000  0  8G13G23G16G27G 3G 8G20G 1
  20306808.473   -24111987.82144 -18328039.04342  20306810.588    20306805.226
  21188933.729   -23097038.11843 -17987929.48242  21188935.354    21188928.747
  23354799.642   -10110003.74043  -7761070.56442  23354800.909    23354796.992
  21685037.883   -21374605.35243 -16611847.07242  21685039.341    21685035.832
  23485187.695    -9165843.48943  -7110679.65742  23485189.330    23485187.829
  23454759.489   -12514695.38943  -9572601.53842  23454759.766    23454758.064
  24129884.225    -5635830.18143  -4381923.24842  24129885.022    24129884.731
  22026542.277   -17706143.91643 -13791754.64542  22026543.630    22026540.974
 04  7 20  0 17  0.0000000  0  8G13G23G16G27G 3G 8G20G 1
  20303214.800   -24130872.95143 -18342754.72642  20303216.892    20303211.556
  21200087.722   -23038423.95043 -17942256.14142  21200089.378    21200082.750
  23371772.580   -10020810.87843  -7691569.66842  23371773.767    23371769.573
  21676709.385   -21418371.54743 -16645950.57642  21676710.846    21676707.292
  23475938.013    -9214451.63843  -7148556.11342  23475939.470    23475937.928
  23439043.340   -12597284.44143  -9636956.50642  23439043.733    23439041.519
  24151595.230    -5521739.25343  -4293021.43642  24151596.067    24151595.687
  22039381.970   -17638671.73443 -13739178.98842  22039383.253    22039380.460
 04  7 20  0 17 30.0000000  0  8G13G23G16G27G 3G 8G20G 1
  20299693.436   -24149377.90744 -18357174.16342  20299695.530    20299690.149
  21211308.963   -22979456.20843 -17896307.28142  21211310.602    21211303.922
  23388800.138    -9931332.04443  -7621845.94242  23388800.966    23388796.742
  21668416.144   -21461953.00443 -16679910.11042  21668417.528    21668413.998
  23466765.900    -9262651.39843  -7186114.30242  23466767.342    23466765.854
  23423354.554   -12679728.52943  -9701198.54942  23423354.996    23423352.749
  24173316.063    -5407595.45343  -4204078.39842  24173316.960    24173316.714
  22052276.133   -17570913.04943 -13686380.06242  22052277.417    22052274.626
 04  7 20  0 18  0.0000000  0  8G13G23G16G27G 3G 8G20G 1
  20296244.246   -24167503.40144 -18371297.91942  20296246.347    20296240.956
  21222596.978   -22920137.10343 -17850084.62442  21222598.604    21222591.997
  23405881.081    -9841571.97343  -7551903.03842  23405882.082    23405877.135
  21660157.619   -21505351.99243 -16713727.45942  21660159.018    21660155.335
  23457671.639    -9310442.10443  -7223353.76442  23457673.146    23457671.503
  23407693.214   -12762029.40043  -9765328.99342  23407693.516    23407691.450
  24195045.963    -5293403.59343  -4115097.92842  24195046.797    24195046.885
  22065224.074   -17502870.13643 -13633359.64042  22065225.426    22065223.032
 04  7 20  0 18 30.0000000  0  8G13G23G16G27G 3G 8G20G 1
  20292869.052   -24185240.41544 -18385118.97342  20292871.156    20292865.740
  21233953.259   -22860459.16543 -17803582.36542  21233954.891    21233948.369
  23423016.279    -9751525.21543  -7481736.76742  23423017.462    23423012.493
  21651935.153   -21548560.85843 -16747396.66942  21651936.603    21651932.848
  23448657.049    -9357813.64643  -7260266.61242  23448658.519    23448657.006
  23392060.453   -12844178.82643  -9829341.41442  23392060.811    23392058.990
  24216786.063    -5179158.27243  -4026075.81142  24216786.938    24216787.365
  22078227.813   -17434535.62943 -13580112.02342  22078229.070    22078226.827
 04  7 20  0 19  0.0000000  0  9G13G23G16G27G 3G 8G19G20G 1
  20289565.923   -24202598.68844 -18398644.89242  20289568.038    20289562.579
  21245375.617   -22800434.22643 -17756809.71342  21245377.216    21245370.711
  23440203.562    -9661205.98043  -7411358.19442  23440204.594    23440199.895
  21643746.680   -21591590.96543 -16780926.59842  21643748.131    21643744.444
  23439720.575    -9404774.91243  -7296859.75342  23439721.999    23439720.480
  23376454.546   -12926187.62343  -9893244.25542  23376454.857    23376453.301
  24718686.693    -3743209.09753  -2879455.64452  24718688.373    24718687.242
  24238533.995    -5064873.53543  -3937023.00042  24238534.811    24238535.326
  22091284.767   -17365921.10243 -13526646.21942  22091286.195    22091283.710
 04  7 20  0 19 30.0000000  0  9G13G23G16G27G 3G 8G19G20G 1
  20286337.085   -24219566.20444 -18411866.33642  20286339.214    20286333.744
  21256865.922   -22740051.94143 -17709758.60342  21256867.537    21256861.116
  23457444.071    -9570605.96643  -7340760.79742  23457445.240    23457440.255
  21635594.463   -21634431.61643 -16814308.89742  21635595.819    21635592.165
  23430864.744    -9451312.44043  -7333122.68942  23430866.262    23430864.493
  23360877.653   -13008044.55943  -9957028.77942  23360877.990    23360876.537
  24702799.835    -3826694.48043  -2944508.98442  24702801.644    24702800.371
  24260290.902    -4950541.30143  -3847933.21742  24260291.674    24260292.281
  22104396.981   -17297016.35343 -13472954.25642  22104398.432    22104395.798
 04  7 20  0 20  0.0000000  0  9G13G23G16G27G 3G 8G19G20G 1
  20283182.544   -24236143.90744 -18424784.02642  20283184.653    20283179.092
  21268423.769   -22679314.76143 -17662430.95142  21268425.383    21268419.106
  23474737.273    -9479729.94443  -7269948.33642  23474738.204    23474733.429
  21627477.645   -21677085.42843 -16847545.60042  21627479.011    21627475.447
  23422089.553    -9497426.35043  -7369055.53342  23422091.027    23422089.157
  23345329.292   -13089751.74143 -10020696.59142  23345329.629    23345328.330
  24686921.845    -3910132.94343  -3009525.75642  24686923.660    24686922.301
  24282055.884    -4836166.63343  -3758810.34442  24282056.752    24282057.293
  22117563.702   -17227824.01143 -13419038.17042  22117565.152    22117562.764
 04  7 20  0 20 30.0000000  0  9G13G23G16G27G 3G 8G19G20G 1
  20280102.196   -24252331.31444 -18437397.58542  20280104.313    20280098.715
  21280048.972   -22618224.10143 -17614827.86042  21280050.588    21280044.365
  23492082.385    -9388581.27643  -7198923.43742  23492083.385    23492078.385
  21619396.209   -21719553.21143 -16880637.35842  21619397.555    21619394.138
  23413395.385    -9543114.80843  -7404656.85942  23413396.815    23413394.948
  23329809.134   -13171309.32543 -10084247.84442  23329809.643    23329808.381
  24671053.199    -3993522.37743  -3074504.33942  24671055.015    24671053.823
  24303828.471    -4721752.95443  -3669657.06342  24303829.316    24303829.796
  22130785.134   -17158345.11843 -13364898.82042  22130786.569    22130784.373
 04  7 20  0 21  0.0000000  0  9G13G23G16G27G 3G 8G19G20G 1
  20277095.911   -24268129.26444 -18449707.67542  20277098.071    20277092.426
  21291741.005   -22556782.37343 -17566951.21942  21291742.626    21291736.364
  23509478.523    -9297164.89443  -7127689.91242  23509479.587    23509474.253
  21611349.796   -21761837.40943 -16913586.06942  21611351.096    21611347.724
  23404781.904    -9588377.75443  -7439926.62242  23404783.481    23404781.741
  23314317.093   -13252719.46543 -10147684.21942  23314317.550    23314316.243
  24655194.167    -4076861.94643  -3139444.12142  24655195.850    24655194.824
  24325607.559    -4607304.99543  -3580477.06942  24325608.366    24325608.771
  22144060.815   -17088582.41043 -13310538.32242  22144062.259    22144059.900
 04  7 20  0 21 30.0000000  0  9G13G23G16G27G 3G 8G19G20G 1
  20274164.091   -24283535.62044 -18461712.61242  20274166.259    20274160.703
  21303499.921   -22494989.31243 -17518800.80942  21303501.525    21303495.117
  23526925.168    -9205482.22843  -7056248.89442  23526926.254    23526921.267
  21603338.432   -21803937.16043 -16946391.04642  21603339.770    21603336.409
  23396250.019    -9633211.57043  -7474862.03842  23396251.682    23396250.088
  23298853.507   -13333980.36843 -10211004.29942  23298854.010    23298852.513
  24639345.253    -4160147.56543  -3204341.82642  24639346.837    24639345.827
  24347392.728    -4492824.42443  -3491271.66642  24347393.446    24347393.934
  22157390.418   -17018535.27243 -13255956.19642  22157391.890    22157389.496
 04  7 20  0 22  0.0000000  0  9G13G23G16G27G 3G 8G19G20G 1
  20271307.025   -24298549.51544 -18473411.74342  20271309.182    20271303.643
  21315325.488   -22432845.63943 -17470377.20042  21315327.118    21315320.653
  23544421.533    -9113536.28343  -6984602.70642  23544422.930    23544418.179
  21595362.119   -21845853.20643 -16979052.86142  21595363.476    21595360.012
  23387800.597    -9677614.41343  -7509461.61442  23387802.014    23387800.490
  23283418.287   -13415092.51843 -10274208.45642  23283418.719    23283417.121
  24623506.756    -4243376.92343  -3269195.66542  24623508.462    24623507.858
  24369183.511    -4378314.22343  -3402043.17642  24369184.024    24369184.659
  22170773.941   -16948204.52943 -13201153.07142  22170775.394    22170773.041
 04  7 20  0 22 30.0000000  0  9G13G23G16G27G 3G 8G19G20G 1
  20268525.453   -24313166.79844 -18484801.82442  20268527.604    20268522.091
  21327218.259   -22370348.91343 -17421678.48742  21327219.846    21327213.481
  23561968.237                    -6912751.21342                  23561964.861
  21587421.354   -21887582.63243 -17011569.27042  21587422.677    21587419.087
  23379434.030    -9721581.21343  -7543721.44342  23379435.488    23379433.827
  23268012.154   -13496052.39343 -10337293.98642  23268012.476    23268010.875
  24607680.426    -4326544.00043  -3334001.03042  24607682.154    24607681.615
  24390979.880    -4263774.23943  -3312791.48542  24390980.295    24390980.793
  22184211.889   -16877587.55843 -13146126.90942  22184213.351    22184211.029
 04  7 20  0 23  0.0000000  0  9G13G23G16G27G 3G 8G19G20G 1
  20265818.438   -24327392.27344 -18495886.59942  20265820.604    20265815.071
  21339176.858   -22307506.05543 -17372710.04942  21339178.402    21339172.110
  23579563.616                    -8928862.50743                  23579565.236
  21579514.675   -21929131.97843 -17043945.35442  21579516.030    21579512.411
  23371149.796    -9765115.70443  -7577644.37242  23371151.143    23371149.537
  23252634.128   -13576865.62543 -10400265.24642  23252634.532    23252632.563
  24591865.517    -4409652.14143  -3398760.40942  24591867.163    24591866.587
  24412780.299    -4149213.47243  -3223523.59742  24412780.696    24412781.156
  22197703.206   -16806691.25943 -13090883.08942  22197704.599    22197702.255
 04  7 20  0 23 30.0000000  0  9G13G23G16G27G 3G 8G19G20G 1
  20263187.039   -24341220.35244 -18506661.71542  20263189.202    20263183.599
  21351202.131   -22244313.10443 -17323468.82242  21351203.642    21351197.295
  23597207.768                    -6768451.22842                  23597205.082
  21571643.070   -21970496.97743 -17076177.79642  21571644.433    21571640.833
  23362949.026    -9808211.08243  -7611225.14442  23362950.234    23362948.785
  23237284.866   -13657527.96043 -10463118.89642  23237285.249    23237282.936
  24576063.004    -4492694.14143  -3463468.27542  24576064.645    24576064.056
  24434585.084    -4034630.18443  -3134238.18142  24434585.544    24434586.023
  22211248.166   -16735511.85843 -13035418.66342  22211249.644    22211247.328
 04  7 20  0 24  0.0000000  0  9G13G23G16G27G 3G 8G19G20G 1
  20260631.770   -24354648.56444 -18517125.24642  20260633.926    20260628.298
  21363294.205   -22180769.27343 -17273954.19042  21363295.669    21363289.204
  23614900.713                    -6696002.43842                  23614898.075
  21563806.827   -22011676.55143 -17108265.73942  21563808.162    21563804.601
  23354832.399    -9850863.88943  -7644461.05242  23354833.686    23354832.144
  23221964.141   -13738037.56743 -10525853.53742  23221964.682    23221962.225
  24560273.945    -4575665.40843  -3528121.09742  24560275.589    24560275.265
  24456393.893    -3920025.58343  -3044936.17142  24456394.380    24456394.840
  22224847.262   -16664048.36643 -12979732.87442  22224848.648    22224846.358
 04  7 20  0 24 30.0000000  0  9G13G23G16G27G 3G 8G19G20G 1
  20258152.814   -24367675.28844 -18527275.93342  20258155.022    20258149.420
  21375453.027   -22116874.59943 -17224166.17142  21375454.505    21375448.037
  23632641.828    -8649936.56943  -6623356.44042  23632643.114    23632639.366
  21556005.964   -22052670.14243 -17140208.76642  21556007.279    21556003.819
  23346800.550    -9893071.40143  -7677349.95242  23346801.950    23346800.241
  23206672.546   -13818393.21743 -10588468.25742  23206673.085    23206670.742
  24544498.874    -4658562.71543  -3592716.25542  24544500.526    24544500.451
  24478206.349    -3805402.04743  -2955619.36142  24478206.867    24478207.108
  22238500.395   -16592300.73943 -12923825.68642  22238501.746    22238499.430
 04  7 20  0 25  0.0000000  0  9G13G23G16G27G 3G 8G19G20G 1
  20255749.769   -24380303.57044 -18537116.13742  20255751.946    20255746.329
  21387677.531   -22052633.74843 -17174108.38342  21387679.084    21387672.846
  23650429.702                    -6550518.35242                  23650427.864
  21548239.536   -22093482.44643 -17172010.54342  21548240.865    21548237.475
  23338853.135    -9934835.62843  -7709893.44742  23338854.496    23338852.651
  23191409.867   -13898599.07943 -10650966.24342  23191410.311    23191407.971
  24528737.896    -4741387.41143  -3657254.78942  24528739.465    24528739.187
  24500021.027    -3690766.29443  -2866293.07042  24500021.415    24500021.943
  22252206.799   -16520273.87743 -12867700.90942  22252208.113    22252205.703
 04  7 20  0 25 30.0000000  0  9G13G23G16G27G 3G 8G19G20G 1
  20253422.734   -24392531.82844 -18546644.64142  20253424.947    20253419.315
  21399967.941   -21988047.34843 -17123781.34342  21399969.480    21399963.366
  23668264.070    -8462741.55343  -6477490.33542  23668265.185    23668261.922
  21540507.643   -22134113.72243 -17203671.25042  21540508.990    21540505.606
  23330990.378    -9976154.13943  -7742089.65142  23330991.718    23330989.953
  23176175.894   -13978654.80943 -10713347.23142  23176176.133    23176173.727
  24512991.357    -4824136.43743  -3721734.37742  24512992.851    24512991.795
  24521837.540    -3576121.13343  -2776959.45342  24521837.984    24521838.426
  22265966.219   -16447968.16343 -12811358.85142  22265967.548    22265965.044
 04  7 20  0 26  0.0000000  0  9G13G23G16G27G 3G 8G19G20G 1
  20251172.941   -24404354.54744 -18555857.14442  20251175.136    20251169.518
  21412324.846   -21923111.21943 -17073181.79542  21412326.464    21412320.332
  23686144.990    -8368776.59243                                  23686146.356
  21532811.141   -22174559.43643 -17235187.36442  21532812.497    21532809.056
  23323213.523   -10017020.26543  -7773933.34242  23323214.953    23323213.384
  23160971.004   -14058555.42443 -10775607.36542  23160971.447    23160968.981
  24497260.437    -4906802.21343  -3786149.07542  24497262.034    24497260.385
  24543655.856    -3461464.54543  -2687616.90642  24543656.622    24543657.112
  22279779.343   -16375379.60143 -12754796.39042  22279780.691    22279778.270
 04  7 20  0 26 30.0000000  0  9G13G23G16G27G 3G 8G19G20G 1
  20249000.079   -24415772.99344 -18564754.63242  20249002.257    20248996.638
  21424747.843   -21857828.60443 -17022312.26342  21424749.432    21424743.166
  23704071.809    -8274570.97643                                  23704073.018
  21525149.405   -22214822.20343 -17266560.91842  21525150.759    21525147.274
  23315522.984   -10057434.15543  -7805424.66542  23315524.505    23315522.859
  23145795.564   -14138303.01543 -10837748.26942  23145795.842    23145793.373
  24481545.510    -4989384.14143  -3850498.43842  24481547.133    24481545.123
  24565475.337    -3346801.41643  -2598269.26142  24565476.222    24565476.969
  22293645.689   -16302511.21343 -12698015.87742  22293646.949    22293644.735
 04  7 20  0 27  0.0000000  0  9G13G23G16G27G 3G 8G19G20G 1
  20246903.958   -24426788.61144 -18573338.22942  20246906.071    20246900.484
  21437235.972   -21792202.74143 -16971175.24942  21437237.610    21437231.339
  23722043.431
  21517521.956   -22254904.87643 -17297794.13742  21517523.317    21517519.745
  23307918.388   -10097396.28243  -7836563.92742  23307919.821    23307918.277
  23130648.534   -14217899.92343 -10899771.72742  23130648.937    23130646.674
  24465846.662    -5071881.76943  -3914782.11342  24465848.151    24465845.886
  24587295.529    -3232137.21643  -2508920.83442  24587296.111    24587297.271
  22307564.761   -16229366.08243 -12641019.73442  22307566.008    22307563.762
 04  7 20  0 27 30.0000000  0  9G13G23G16G27G 3G 8G19G20G 1
  20244885.953   -24437393.40844 -18581601.70042  20244888.093    20244882.492
  21449790.670   -21726227.25443 -16919765.80442  21449792.365    21449786.095
  23740059.862
  21509929.968   -22294800.79443 -17328881.83442  21509931.331    21509927.724
  23300401.337   -10136897.68643  -7867344.20542  23300402.783    23300401.272
  23115531.437   -14297339.07043 -10961672.28942  23115531.810    23115529.920
  24450165.432    -5154285.66443  -3978992.75442  24450167.007    24450164.605
  24609116.930    -3117467.67143  -2419568.18342  24609117.419    24609118.401
  22321537.685   -16155937.99543 -12583803.11142  22321539.005    22321536.557
 04  7 20  0 28  0.0000000  0  9G13G23G16G27G 3G 8G19G20G 1
  20242945.341   -24447591.25944 -18589548.07642  20242947.477    20242941.892
  21462410.877   -21659907.89843 -16868088.42242  21462412.592    21462406.227
  23758121.596
  21502372.475   -22334515.36043 -17359828.23442  21502373.849    21502370.304
  23292971.536   -10175941.21543  -7897767.68942  23292973.044    23292971.458
  23100443.603   -14376625.16543 -11023453.58342  23100443.804    23100442.306
  24434501.424    -5236597.66943  -4043131.84142  24434503.040    24434500.918
  24630937.468    -3002800.82843  -2330217.65442  24630938.303    24630939.062
  22335563.473   -16082232.64343 -12526370.44642  22335564.786    22335562.194
 04  7 20  0 28 30.0000000  0  9G13G23G16G27G 3G 8G19G20G 1
  20241083.180   -24457376.88744 -18597173.24042  20241085.330    20241079.697
  21475097.258   -21593241.19343 -16816140.39142  21475098.945    21475092.447
  23776226.164
  21494850.325   -22374044.47443 -17390630.11242  21494851.681    21494848.213
  23285630.183   -10214520.78843  -7927829.64242  23285631.613    23285630.049
  23085386.233   -14455753.84943 -11085112.20142  23085386.222    23085384.564
  24418856.581    -5318810.66643  -4107193.74842  24418858.216    24418856.409
  24652757.764    -2888134.89143  -2240867.83442  24652758.659    24652759.643
  22349642.523   -16008246.35743 -12468718.83742  22349643.879    22349641.320
 04  7 20  0 29  0.0000000  0  9G13G23G16G27G 3G 8G19G20G 1
  20239298.173   -24466757.20044 -18604482.57542  20239300.311    20239294.691
  21487848.011   -21526235.60443 -16763928.27542  21487849.728    21487843.190
  23794376.446
  21487361.847   -22413396.36643 -17421293.90142  21487363.241    21487359.703
  23278375.769   -10252642.20143  -7957534.61242  23278377.302    23278375.721
  23070357.330   -14534732.76443 -11146654.10042  23070357.302    23070355.298
  24403229.779    -5400929.77043  -4171182.50942  24403231.489    24403229.925
  24674576.025    -2773480.48343  -2151526.98742  24674576.909    24674577.805
  22363773.608   -15933987.60343 -12410854.95242  22363774.945    22363772.443
 04  7 20  0 29 30.0000000  0  8G13G23G27G 3G 8G19G20G 1
  20237593.349   -24475715.69844 -18611463.21642  20237595.499    20237589.939
  21500666.126   -21458876.80243 -16711440.93042  21500667.750    21500661.231
  21479910.097   -22452555.98443 -17451807.86142  21479911.429    21479907.707
  23271212.060   -10290288.14343  -7986869.07542  23271213.460    23271211.808
  23055359.391   -14613546.32743 -11208067.16342  23055359.583    23055357.522
  24387624.291    -5482936.91943  -4235083.99642  24387625.840    24387624.658
  24696394.473    -2658825.12743  -2062185.42042  24696395.301    24696396.106
  22377959.275   -15859441.99543 -12352767.55142  22377960.601    22377958.024
 04  7 20  0 30  0.0000000  0  8G13G23G27G 3G 8G19G20G 1
  20235965.417   -24484270.53543 -18618129.32242  20235967.544    20235962.004
  21513547.604   -21391184.52243 -16658693.74142  21513549.233    21513542.756
  21472491.202   -22491542.74244 -17482187.12642  21472492.539    21472488.719
  23264135.469   -10327475.73943  -8015846.36642  23264136.848    23264135.181
  23040389.354   -14692213.52143 -11269366.18842  23040389.595    23040387.561
  24372037.035    -5564848.08743  -4298910.67542  24372038.513    24372037.426
  24718208.735    -2544190.50043  -1972859.98542  24718209.631    24718210.428
  22392195.781   -15784629.13543 -12294471.90442  22392197.084    22392194.357
 04  7 20  0 30 30.0000000  0  8G13G23G27G 3G 8G19G20G 1
  20234415.881   -24492413.41243 -18624474.41442  20234418.001    20234412.471
  21526493.773   -21323152.04143 -16605681.44842  21526495.382    21526488.911
  21465106.543   -22530349.61843 -17512426.22242  21465107.893    21465104.048
  23257147.855   -10364195.61243  -8044459.19742  23257149.286    23257147.552
  23025448.876   -14770726.86243 -11330545.31942  23025449.066    23025446.958
  24356470.066    -5646653.35743  -4362654.85442  24356471.545    24356470.360
  24740019.284    -2429572.08543  -1883547.19942  24740020.332    24740021.522
  22406484.171   -15709542.54543 -12235962.93042  22406485.546    22406482.833
 04  7 20  0 31  0.0000000  0  8G13G23G27G 3G 8G19G20G 1
  20232945.714   -24500139.17844 -18630494.48542  20232947.848    20232942.302
  21539505.231   -21254776.16443 -16552401.57642  21539506.815    21539500.398
  21457756.743   -22568972.63043 -17542522.06242  21457758.142    21457754.359
  23250250.385   -10400441.66543  -8072702.81542  23250251.847    23250250.121
  23010538.315   -14849081.70143 -11391600.95942  23010538.660    23010536.529
  24340924.508    -5728345.23043  -4426310.65042  24340926.032    24340924.773
  24761827.585    -2314968.30243  -1794245.82542  24761828.461    24761830.240
  22420825.466   -15634178.68643 -12177237.90742  22420826.796    22420824.273
 04  7 20  0 31 30.0000000  0  7G13G23G27G 3G 8G19G 1
  20231554.421   -24507450.43044 -18636191.56042  20231556.562    20231550.961
  21552581.269   -21186061.25143 -16498857.51342  21552582.885    21552576.511
  21450441.011   -22607415.87443 -17572477.83042  21450442.453    21450438.893
  23243442.762   -10436215.70543  -8100578.64742  23243444.235    23243442.477
  22995657.428   -14927281.53743 -11452535.83142  22995657.656    22995655.593
  24325400.389    -5809924.70943  -4489878.87742  24325401.964    24325400.420
  22435218.824   -15558541.86543 -12118300.17342  22435220.089    22435217.693
 04  7 20  0 32  0.0000000  0  7G13G23G27G 3G 8G19G 1
  20230243.144   -24514341.22144 -18641561.00242  20230245.279    20230239.699
  21565722.612   -21117003.19343 -16445046.06542  21565724.287    21565717.927
  21443160.649   -22645674.56543 -17602289.78042  21443162.045    21443158.441
  23236726.344   -10471510.66143  -8128081.18242  23236727.767    23236725.948
  22980806.704   -15005321.59343 -11513346.17342  22980807.018    22980805.044
  24309899.000    -5891384.06843  -4553353.53342  24309900.639    24309899.050
  22449664.849   -15482627.92243 -12059146.49542  22449666.049    22449663.793
 04  7 20  0 32 30.0000000  0  7G13G23G27G 3G 8G19G 1
  20229011.295   -24520814.70444 -18646605.27242  20229013.462    20229007.827
  21578928.288   -21047606.95643 -16390971.10942  21578929.978    21578923.614
  21435914.482   -22683753.13843 -17631961.36642  21435915.865    21435912.273
  23230100.643   -10506328.93543  -8155212.28242  23230102.081    23230100.221
  22965985.977   -15083205.33343 -11574034.72342  22965986.143    22965984.088
  24294420.180    -5972724.29743  -4616735.36642  24294421.801    24294420.253
  22464162.586   -15406441.76443 -11999780.69242  22464163.761    22464161.555
 04  7 20  0 33  0.0000000  0  7G13G23G27G 3G 8G19G 1
  20227859.104   -24526869.36444 -18651323.18242  20227861.267    20227855.692
  21592198.262   -20977872.87443 -16336632.89142  21592199.936    21592193.460
  21428702.731   -22721651.55143 -17661492.56942  21428704.063    21428700.408
  23223565.988   -10540668.53543  -8181970.34942  23223567.494    23223565.656
  22951194.895   -15160932.08143 -11634600.92642  22951195.152    22951192.874
  24278964.561    -6053942.22143  -4680021.85042  24278966.233    24278964.268
  22478712.085   -15329983.79043 -11940203.09942  22478713.308    22478711.018
 04  7 20  0 33 30.0000000  0  7G13G23G27G 3G 8G19G 1
  20226787.868   -24532498.80644 -18655709.75442  20226790.029    20226784.440
  21605533.496   -20907796.13643 -16282027.68642  21605535.121    21605528.557
  21421526.305   -22759364.42744 -17690879.20342  21421527.627    21421523.917
  23217123.800   -10574521.66443  -8208349.35142  23217125.351    23217123.476
  22936434.770   -15238496.33643 -11695040.49342  22936435.058    22936432.608
  24263533.852    -6135029.39643  -4743206.50042  24263535.645    24263533.074
  22493314.247   -15253248.92843 -11880409.75542  22493315.516    22493313.255
 04  7 20  0 34  0.0000000  0  7G13G23G27G 3G 8G19G 1
  20225796.017   -24537710.88744 -18659771.11042  20225798.194    20225792.606
  21618931.981   -20837386.32643 -16227162.92442  21618933.636    21618927.136
  21414383.317   -22796900.85843 -17720128.34742  21414384.685    21414381.069
  23210772.813   -10607895.39143  -8234354.82542  23210774.373    23210772.448
  22921704.007   -15315906.69443 -11755360.15742  22921704.336    22921701.769
  24248127.039    -6215992.09043  -4806294.13742  24248128.660    24248126.093
  22507967.242   -15176247.01743 -11820408.32442  22507968.526    22507966.248
 04  7 20  0 34 30.0000000  0  7G13G23G27G 3G 8G19G 1
  20224884.876   -24542498.74443 -18663501.90242  20224887.066    20224881.497
  21632394.939   -20766638.35243 -16172034.66242  21632396.470    21632390.107
  21407275.029   -22834255.20343 -17749235.61442  21407276.384    21407272.772
  23204514.739   -10640781.95743  -8259980.68142  23204516.274    23204514.435
  22907003.533   -15393156.93743 -11815555.06242  22907003.985    22907001.560
  24232745.970    -6296820.96843  -4869277.53342  24232747.449    24232744.830
  22522672.093   -15098972.77143 -11760194.67742  22522673.381    22522671.028
 04  7 20  0 35  0.0000000  0  7G13G23G27G 3G 8G19G 1
  20224053.952   -24546865.30844 -18666904.41942  20224056.141    20224050.546
  21645921.098   -20695557.32943 -16116646.88042  21645922.716    21645916.399
  21400200.516   -22871431.78243 -17778204.36042  21400201.869    21400198.248
  23198348.985   -10673183.78643  -8285228.79642  23198350.490    23198348.592
  22892333.041   -15470250.96143 -11875628.26442  22892333.425    22892331.034
  24217389.993    -6377517.33443  -4932157.65742  24217391.578    24217389.163
  22537427.789   -15021430.97843 -11699772.55242  22537429.045    22537426.675
 04  7 20  0 35 30.0000000  0  7G13G23G27G 3G 8G19G 1
  20223304.064   -24550805.95544 -18669975.04442  20223306.229    20223300.675
  21659511.476   -20624140.20743 -16060997.22242  21659513.036    21659506.658
  21393160.459   -22908427.05643 -17807031.82042  21393161.846    21393158.123
  23192276.432   -10705095.14143  -8310094.73042  23192277.991    23192276.093
  22877693.042   -15547184.59843 -11935576.46842  22877693.443    22877690.993
  24202060.474    -6458074.44043  -4994929.29842  24202062.055    24202059.836
  22552234.930   -14943618.67343 -11639139.61942  22552236.190    22552233.864
 04  7 20  0 36  0.0000000  0  7G13G23G27G 3G 8G19G 1
  20222635.868   -24554317.42744 -18672711.25442  20222638.025    20222632.425
  21673166.009   -20552385.49243 -16005084.49442  21673167.579    21673161.238
  21386155.341   -22945238.97343 -17835716.40542  21386156.689    21386152.917
  23186298.071   -10736511.95343  -8334575.29942  23186299.569    23186297.700
  22863084.042   -15623955.43343 -11995397.79642  22863084.427    22863081.786
  24186758.443    -6538487.22943  -5057588.43342  24186760.012    24186757.785
  22567093.978   -14865534.42443 -11578294.80242  22567095.250    22567092.879
 04  7 20  0 36 30.0000000  0  7G13G23G27G 3G 8G19G 1
  20222048.522   -24557403.81244 -18675116.22542  20222050.676    20222045.081
  21686883.652   -20480299.01943 -15948913.25642  21686885.218    21686878.967
  21379184.144   -22981872.70543 -17864262.15942  21379185.513    21379181.761
  23180413.121   -10767437.44343  -8358673.03442  23180414.600    23180412.747
  22848505.054   -15700568.04543 -12055095.83942  22848505.426    22848502.657
  24171483.161    -6618757.70043  -5120136.72142  24171484.753    24171482.763
  22582003.600   -14787184.07343 -11517242.62542  22582004.906    22582002.395
 04  7 20  0 37  0.0000000  0  7G13G23G27G 3G 8G19G 1
  20221542.891   -24560061.06244 -18677186.80942  20221545.004    20221539.387
  21700664.821   -20407878.49643 -15892481.72042  21700666.431    21700660.169
  21372247.469   -23018325.44743 -17892666.87842  21372248.827    21372245.112
  23174622.561   -10797866.54943  -8382383.97642  23174624.107    23174622.046
  22833956.602   -15777019.49943 -12114668.32242  22833957.042    22833954.369
  24156236.503    -6698879.67043  -5182569.24942  24156238.020    24156235.984
  22596964.268   -14708565.12343 -11455981.16542  22596965.482    22596963.057
 04  7 20  0 37 30.0000000  0  7G13G23G27G 3G 8G19G 1
  20221118.623   -24562290.71644 -18678924.19742  20221120.767    20221115.108
  21714508.964   -20335127.50943 -15835792.68942  21714510.535    21714504.162
  21365344.692   -23054600.00943 -17920932.75042  21365346.005    21365342.386
  23168926.382   -10827800.37843  -8405708.98042  23168927.904    23168925.820
  22819438.658   -15853311.98243 -12174116.93342  22819438.955    22819436.356
  24141017.970    -6778852.87843  -5244885.86342  24141019.688    24141017.503
  22611975.400   -14629680.96543 -11394513.03442  22611976.580    22611974.323
 04  7 20  0 38  0.0000000  0  7G13G23G27G 3G 8G19G 1
  20220775.798   -24564092.06344 -18680327.83142  20220777.955    20220772.336
  21728415.724   -20262046.98443 -15778846.87042  21728417.334    21728410.974
  21358475.727   -23090696.63443 -17949059.97842  21358477.045    21358473.394
  23163324.777   -10857237.35743  -8428646.81742  23163326.296    23163324.357
  22804951.016   -15929445.40743 -12233441.61042  22804951.308    22804948.633
  24125828.125    -6858674.57143  -5307084.41242  24125829.932    24125827.960
  22627036.922   -14550532.51443 -11332838.96642  22627038.123    22627035.858
 04  7 20  0 38 30.0000000  0  8G13G10G23G27G 3G 8G19G 1
  20220516.092   -24565456.87244 -18681391.31642  20220518.249    20220512.599
  24615370.546    -1718843.17953  -1309354.59952  24615371.947    24615371.333
  21742386.429   -20188630.48343 -15721639.24942  21742388.004    21742381.770
  21351641.909   -23126608.63143 -17977043.32842  21351643.240    21351639.568
  23157819.195   -10886168.73143  -8451190.70342  23157820.842    23157818.813
  22790494.945   -16005412.27843 -12292636.51142  22790495.271    22790492.588
  24110669.147    -6938334.56143  -5369156.96542  24110670.835    24110669.137
  22642149.887   -14471113.55143 -11270954.12242  22642151.071    22642148.828
 04  7 20  0 39  0.0000000  0  8G13G10G23G27G 3G 8G19G 1
  20220337.824   -24566393.56744 -18682121.19542  20220339.973    20220334.395
  24599208.972    -1803773.66443  -1375534.13142  24599210.255    24599209.226
  21756419.123   -20114888.16843 -15664177.74842  21756420.626    21756414.421
  21344841.486   -23162344.97943 -18004889.80642  21344842.822    21344839.180
  23152408.462   -10914601.77343  -8473346.26542  23152410.050    23152408.054
  22776068.814   -16081221.39843 -12351708.47242  22776069.154    22776066.606
  24095539.439    -7017838.94143  -5431108.27642  24095541.134    24095539.732
  22657312.416   -14391433.80343 -11208866.07242  22657313.666    22657311.414
 04  7 20  0 39 30.0000000  0  8G13G10G23G27G 3G 8G19G 1
  20220242.707   -24566893.39344 -18682510.66642  20220244.895    20220239.253
  24583114.065    -1888351.73143  -1441439.03042  24583115.756    24583114.449
  21770515.063   -20040813.16243 -15606457.00842  21770516.580    21770510.296
  21338075.816   -23197898.24143 -18032593.63342  21338077.137    21338073.602
  23147094.392   -10942526.94043  -8495106.10642  23147095.917    23147093.993
  22761674.147   -16156864.71843 -12410651.22442  22761674.543    22761672.048
  24080441.670    -7097176.94743  -5492929.94442  24080443.211    24080442.131
  22672525.999   -14311486.30943 -11146569.39642  22672527.290    22672525.061
 04  7 20  0 40  0.0000000  0  8G13G10G23G27G 3G 8G19G 1
  20220229.673   -24566961.87844 -18682564.02342  20220231.859    20220226.198
  24567085.820    -1972581.07643  -1507072.18242  24567087.397    24567085.973
  21784673.167   -19966412.51443 -15548482.52642  21784674.673    21784668.215
  21331343.895   -23233274.98944 -18060159.91642  21331345.169    21331341.600
  23141876.059   -10969949.18443  -8516474.05042  23141877.616    23141875.533
  22747309.965   -16232348.33443 -12469469.54442  22747310.297    22747307.742
  24065375.307    -7176352.23943  -5554624.81342  24065376.799    24065375.375
  22687789.299   -14231278.32843 -11084069.73642  22687790.482    22687788.307
 04  7 20  0 40 30.0000000  0  8G13G10G23G27G 3G 8G19G 1
  20220299.409   -24566595.36244 -18682278.41842  20220301.557    20220295.907
  24551125.188    -2056456.92343  -1572429.88142  24551126.459    24551124.695
  21798893.533   -19891684.65843 -15490253.05742  21798895.034    21798888.577
  21324645.960   -23268472.88443 -18087586.83042  21324647.260    21324643.630
  23136754.415   -10996864.10343  -8537446.66742  23136755.859    23136753.818
  22732976.755   -16307669.81243 -12528161.52842  22732977.082    22732974.330
  24050340.727    -7255359.24143  -5616188.54642  24050342.304    24050340.555
  22703102.367   -14150808.25543 -11021365.84342  22703103.596    22703101.508
 04  7 20  0 41  0.0000000  0  8G13G10G23G27G 3G 8G19G 1
  20220452.538   -24565790.55844 -18681651.29342  20220454.698    20220449.065
  24535232.175    -2139974.13043  -1637508.15442  24535233.522    24535231.920
  21813176.190   -19816627.95143 -15431767.33242  21813177.704    21813171.618
  21317982.486   -23303489.65244 -18114872.60142  21317983.800    21317980.118
  23131729.857   -11023267.29743  -8558020.54842  23131731.425    23131729.459
  22718675.176   -16382826.14443 -12586724.83042  22718675.397    22718672.483
  24035339.428    -7334192.21043  -5677616.65742  24035340.985    24035338.840
  22718465.565   -14070074.07343 -10958456.15242  22718466.896    22718464.803
 04  7 20  0 41 30.0000000  0  8G13G10G23G27G 3G 8G19G 1
  20220688.722   -24564549.70344 -18680684.38842  20220690.848    20220685.163
  24519407.376    -2223133.53843  -1702307.60442  24519408.562    24519407.174
  21827520.771   -19741246.56943 -15373028.61442  21827522.302    21827516.219
  21311352.874   -23338328.70344 -18142019.88742  21311354.208    21311350.370
  23126802.613   -11049160.68543  -8578197.17942  23126804.097    23126802.142
  22704404.154   -16457820.18043 -12645161.66742  22704404.476    22704401.582
  24020371.020    -7412851.71743  -5738909.63442  24020372.600    24020370.061
  22733878.288   -13989080.01243 -10895343.96542  22733879.582    22733877.533
 04  7 20  0 42  0.0000000  0  8G13G10G23G27G 3G 8G19G 1
  20221008.676   -24562868.58744 -18679374.42042  20221010.809    20221005.072
  24503652.078    -2305929.21543  -1766823.61842  24503653.164    24503651.532
  21841927.799   -19665537.98043 -15314034.95842  21841929.329    21841922.962
  21304757.662   -23372986.63244 -18169026.04242  21304759.041    21304755.027
  23121973.112   -11074539.15443  -8597972.56942  23121974.626    23121972.709
  22690164.656   -16532648.46243 -12703469.34842  22690164.968    22690162.147
  24005436.516    -7491331.12743  -5800062.28542  24005438.223    24005435.668
  22749340.995   -13907823.49443 -10832027.24142  22749342.275    22749340.116
 04  7 20  0 42 30.0000000  0  8G13G10G23G27G 3G 8G19G 1
  20221412.182   -24560748.24044 -18677722.19642  20221414.286    20221408.530
  24487965.775    -2388360.68443  -1831055.83942  24487967.062    24487965.189
  21856396.312   -19589505.05343 -15254788.55842  21856397.852    21856391.607
  21298196.438   -23407465.61743 -18195892.76742  21298197.847    21298193.782
  23117241.654   -11099403.32643  -8617347.20742  23117243.055    23117241.043
  22675956.322   -16607312.51843 -12761649.06442  22675956.708    22675953.974
  23990536.456    -7569629.63243  -5861073.97142  23990538.176    23990535.848
  22764853.004   -13826307.24743 -10768508.12742  22764854.375    22764852.325
 04  7 20  0 43  0.0000000  0  8G13G10G23G27G 3G 8G19G 1
  20221899.056   -24558189.57244 -18675728.42342  20221901.174    20221895.432
  24472349.008    -2470426.29843  -1895002.99742  24472350.112    24472348.535
  21870926.096   -19513149.81543 -15195290.99642  21870927.614    21870921.669
  21291669.159   -23441766.87443 -18222621.00042  21291670.516    21291666.523
  23112607.993   -11123752.97543  -8636320.90942  23112609.488    23112607.260
  22661779.347   -16681813.55143 -12819701.74142  22661779.649    22661776.840
  23975671.452    -7647745.13943  -5921943.04242  23975673.006    23975670.485
  22780413.956   -13744533.24343 -10704788.17542  22780415.328    22780413.506
 04  7 20  0 43 30.0000000  0  8G13G10G23G27G 3G 8G19G 1
  20222469.887   -24555189.71044 -18673390.86942  20222472.010    20222466.353
  24456802.626    -2552122.58143  -1958662.36242  24456803.824    24456802.184
  21885517.502   -19436472.00743 -15135542.10042  21885518.966    21885513.126
  21285175.754   -23475889.56243 -18249210.09642  21285177.111    21285173.237
  23108072.971   -11147584.95843  -8654891.28142  23108074.401    23108072.292
  22647633.462   -16756149.77643 -12877625.99742  22647633.871    22647631.018
  23960841.811    -7725673.64743  -5982666.42942  23960843.427    23960840.822
  22796024.219   -13662501.02043 -10640867.04142  22796025.587    22796023.780
 04  7 20  0 44  0.0000000  0  8G13G10G23G27G 3G 8G19G 1
  20223124.778   -24551748.07644 -18670709.07242  20223126.922    20223121.309
  24441326.924    -2633447.23643  -2022032.13242  24441328.021    24441326.445
  21900169.982   -19359472.93443 -15075542.86642  21900171.501    21900165.494
  21278716.433   -23509833.90144 -18275660.22142  21278717.733    21278713.943
  23103636.498   -11170898.22643  -8673057.42942  23103637.889    23103635.974
  22633519.062   -16830321.09743 -12935421.77042  22633519.392    22633516.523
  23946048.781    -7803412.45643  -6043242.02142  23946050.200    23946047.869
  22811683.464   -13580211.86843 -10576745.66842  22811684.882    22811682.955
 04  7 20  0 44 30.0000000  0  8G13G10G23G27G 3G 8G19G 1
  20223863.719   -24547864.81943 -18667683.16342  20223865.856    20223860.234
  24425922.513    -2714398.53643  -2085110.97742  24425923.587    24425921.928
  21914883.407   -19282154.05343 -15015294.43942  21914884.885    21914878.614
  21272290.810   -23543600.78144 -18301972.05342  21272292.150    21272288.282
  23099299.022   -11193691.96143  -8690818.75942  23099300.415    23099298.438
  22619435.943   -16904328.02743 -12993089.44842  22619436.264    22619433.460
  23931292.069    -7880959.30843  -6103667.99642  23931293.490    23931291.242
  22827391.029   -13497667.21743 -10512425.22542  22827392.497    22827390.721
 04  7 20  0 45  0.0000000  0  8G13G10G23G27G 3G 8G19G 1
  20224686.861   -24543539.33044 -18664312.65542  20224688.974    20224683.355
  24410589.404    -2794974.18643  -2147897.11642  24410590.640    24410588.940
  21929657.438   -19204516.74343 -14954797.89742  21929658.882    21929652.471
  21265898.919   -23577190.49243 -18328145.83342  21265900.272    21265896.322
  23095060.411   -11215964.65243  -8708174.04742  23095061.924    23095060.119
  22605384.258   -16978170.66843 -13050629.08442  22605384.441    22605381.723
  23916572.480    -7958311.38443  -6163942.23742  23916573.754    23916571.376
  22843147.249   -13414868.16543 -10447906.53442  22843148.608    22843146.946
 04  7 20  0 45 30.0000000  0  8G13G10G23G27G 3G 8G19G 1
  20225594.708   -24538768.54444 -18660595.16042  20225596.833    20225591.183
  24395328.857    -2875169.42043  -2210386.84042  24395329.998    24395328.324
  21944492.266   -19126559.33643 -14894051.91142  21944493.723    21944487.399
  21259541.048   -23610600.99344 -18354179.97442  21259542.385    21259538.456
  23090922.025   -11237712.73443  -8725120.57442  23090923.460    23090921.563
  22591364.248   -17051846.43943 -13108038.70142  22591364.411    22591361.598
  23901890.954    -8035463.37143  -6224060.53042  23901892.149    23901889.749
  22858952.139   -13331813.35143 -10383188.55042  22858953.506    22858951.847
 04  7 20  0 46  0.0000000  0  8G13G10G23G27G 3G 8G19G 1
  20226587.832   -24533549.78944 -18656528.60842  20226589.921    20226584.296
  24380141.186    -2954980.03743  -2272576.87242  24380142.388    24380140.792
  21959388.004   -19048281.38443 -14833056.14142  21959389.478    21959383.386
  21253217.543   -23643830.69743 -18380073.23242  21253218.907    21253215.031
  23086883.944   -11258933.04843  -8741655.84142  23086885.437    23086883.338
  22577376.463   -17125353.01543 -13165316.48542  22577376.641    22577373.600
  23887248.202    -8112410.63643  -6284019.34342  23887249.504    23887246.925
  22874805.881   -13248501.85643 -10318270.56942  22874807.292    22874805.648
 04  7 20  0 46 30.0000000  0  8G13G10G23G27G 3G 8G19G 1
  20227665.531   -24527886.69444 -18652115.80742  20227667.618    20227662.002
  24365026.699    -3034407.78543  -2334468.57942  24365027.757    24365025.982
  21974343.849   -18969687.89543 -14771814.50842  21974345.340    21974339.411
  21246927.786   -23676883.85444 -18405828.90942  21246929.110    21246925.204
  23082945.768   -11279628.37243  -8757782.01842  23082947.368    23082945.051
  22563420.031   -17198694.60543 -13222465.71042  22563420.291    22563417.085
  23872644.490    -8189154.11843  -6343819.32242  23872645.802    23872642.995
  22890707.516   -13164938.83943 -10253156.59542  22890708.867    22890707.185
 04  7 20  0 47  0.0000000  0  8G13G10G23G27G 3G 8G19G 1
  20228828.133   -24521777.10944 -18647355.09542  20228830.238    20228824.631
  24349985.579    -3113449.23843  -2396059.24842  24349986.740    24349985.113
  21989359.855   -18890778.71043 -14710326.87942  21989361.332    21989355.281
  21240671.717   -23709759.47944 -18431446.25542  21240673.043    21240669.123
  23079107.990   -11299796.14243  -8773497.12842  23079109.489    23079107.178
  22549495.227   -17271869.66643 -13279485.17142  22549495.516    22549492.268
  23858080.177    -8265690.00943  -6403457.55642  23858081.538    23858078.627
  22906657.033   -13081124.04843 -10187846.43342  22906658.289    22906656.614
 04  7 20  0 47 30.0000000  0  8G13G10G23G27G 3G 8G19G 1
  20230075.762   -24515220.64944 -18642246.17442  20230077.863    20230072.319
  24335018.253    -3192102.68643  -2457347.59542  24335019.392    24335018.041
  22004435.544   -18811555.32843 -14648594.43842  22004437.000    22004430.923
  21234449.306   -23742458.31344 -18456925.85242  21234450.625    21234446.687
  23075370.367   -11319435.44743  -8788800.46542  23075371.978    23075369.879
  22535601.902   -17344878.45443 -13336375.07742  22535602.234    22535599.061
  23843555.614    -8342015.76543  -6462932.03942  23843557.058    23843554.380
  22922654.262   -12997058.89543 -10122341.19842  22922655.555    22922653.514
 04  7 20  0 48  0.0000000  0  8G13G10G23G27G 3G 8G19G 1
  20231408.886   -24508214.88544 -18636787.13742  20231411.020    20231405.446
  24320125.691    -3270363.57843  -2518330.05242  24320126.704    24320125.570
  22019571.267   -18732016.96543 -14586616.54742  22019572.705    22019566.586
  21228261.035   -23774978.45144 -18482266.20042  21228262.344    21228258.327
  23071734.366   -11338543.41643  -8803689.76942  23071735.813    23071733.845
  22521740.812   -17417719.18643 -13393134.02142  22521741.088    22521737.819
  23829072.115    -8418126.47443  -6522238.96942  23829073.499    23829070.893
  22938699.137   -12912742.52243 -10056640.19742  22938700.533    22938698.419
 04  7 20  0 48 30.0000000  0  8G13G10G23G27G 3G 8G19G 1
  20232827.760   -24500758.64744 -18630977.08742  20232829.905    20232824.334
  24305308.193    -3348229.21843  -2579004.49142  24305309.232    24305308.123
  22034766.834   -18652164.29043 -14524393.72742  22034768.296    22034762.202
  21222106.699   -23807319.68144 -18507467.13742  21222108.033    21222104.038
  23068199.940   -11357118.11243  -8818163.51542  23068201.313    23068199.252
  22507912.012   -17490390.67943 -13449761.11742  22507912.238    22507908.834
  23814630.291    -8494018.80643  -6581375.70042  23814631.582    23814628.944
  22954791.631   -12828175.32643  -9990743.75742  22954793.084    22954791.163
 04  7 20  0 49  0.0000000  0  8G13G10G23G27G 3G 8G19G 1
  20234332.527   -24492851.26644 -18624815.49742  20234334.660    20234329.032
  24290566.299    -3425697.27543  -2639369.14142  24290567.314    24290565.935
  22050021.812   -18571998.30443 -14461926.74642  22050023.276    22050017.426
  21215986.327   -23839482.27044 -18532528.86442  21215987.678    21215983.676
  23064766.979   -11375158.43643  -8832220.85842  23064768.463    23064766.300
  22494115.188   -17562892.93543 -13506256.34642  22494115.412    22494112.166
  23800230.437    -8569689.79543  -6640340.00942  23800231.771    23800229.077
  22970931.939   -12743358.48843  -9924652.78042  22970933.331    22970931.497
 04  7 20  0 49 30.0000000  0  8G13G10G23G27G 3G 8G19G 1
  20235923.054   -24484493.04944 -18618302.60242  20235925.209    20235919.597
  24275900.680    -3502765.93143  -2699422.58742  24275901.439    24275899.915
  22065335.937   -18491520.80243 -14399217.03042  22065337.524    22065331.857
  21209899.846   -23871467.02444 -18557452.03142  21209901.209    21209897.113
  23061435.549   -11392663.67143  -8845861.27942  23061437.136    23061435.103
  22480350.465   -17635226.94343 -13562620.46842  22480350.630    22480347.490
  23785872.668    -8645137.50343  -6699130.30142  23785874.309    23785871.683
  22987119.273   -12658293.67443  -9858368.60342  22987120.675    22987119.008
 04  7 20  0 50  0.0000000  0  8G13G10G23G27G 3G 8G19G 1
  20237599.427   -24475683.85944 -18611438.30242  20237601.580    20237595.939
  24261311.390    -3579433.65943  -2759163.63042  24261312.215    24261310.426
  22080709.236   -18410733.70643 -14336266.09842  22080710.804    22080705.145
  21203846.948   -23903274.85244 -18582237.33242  21203848.327    21203844.283
  23058205.873   -11409633.49843  -8859084.52042  23058207.425    23058205.787
  22466617.747   -17707392.18443 -13618853.06142  22466617.979    22466614.910
  23771558.311    -8720359.54143  -6757744.76842  23771559.775    23771557.292
  23003353.524   -12572982.44443  -9791892.37242  23003354.869    23003353.309
 04  7 20  0 50 30.0000000  0  8G13G10G23G27G 3G 8G19G 1
  20239362.063   -24466420.97544 -18604220.47542  20239364.231    20239358.637
  24246799.046    -3655696.22143  -2818588.95742  24246800.086    24246797.957
  22096141.728   -18329636.15743 -14273073.26342  22096143.225    22096137.627
  21197828.095   -23934903.94243 -18606883.36742  21197829.429    21197825.492
  23055079.273   -11426064.69343  -8871888.01442  23055080.796    23055079.027
  22452917.340   -17779387.28143 -13674953.07242  22452917.621    22452914.711
  23757287.762    -8795351.31243  -6816179.78642  23757289.031    23757286.805
  23019634.774   -12487423.89543  -9725223.46542  23019636.075    23019634.610
 04  7 20  0 51  0.0000000  0  8G13G10G23G27G 3G 8G19G 1
  20241210.099   -24456709.49844 -18596653.09242  20241212.251    20241206.674
  24232363.034    -3731557.08843  -2877701.26042  24232364.286    24232362.116
  22111632.072   -18248234.70043 -14209643.60742  22111633.556    22111627.994
  21191842.157   -23966360.09044 -18631394.63442  21191843.467    21191839.587
  23052054.406   -11441961.79243  -8884275.30442  23052055.983    23052053.835
  22439248.484   -17851217.60843 -13730924.71042  22439248.738    22439245.760
  23743060.464    -8870115.36443  -6874437.40642  23743061.785    23743059.387
  23035962.061   -12401624.63743  -9658366.96442  23035963.296    23035961.526
 04  7 20  0 51 30.0000000  0  8G13G10G23G27G 3G 8G19G 1
  20243145.068   -24446540.81744 -18588729.44642  20243147.234    20243141.655
  24218005.492    -3807005.62443  -2936492.27442  24218006.968    24218004.649
  22127181.512   -18166522.46643 -14145971.78842  22127183.089    22127177.506
  21185890.666   -23997635.35843 -18655764.96242  21185891.994    21185888.070
  23049132.651   -11457315.50143  -8896239.18242  23049134.319    23049132.179
  22425612.750   -17922874.57343 -13786761.26442  22425612.914    22425609.742
  23728878.828    -8944640.43943  -6932508.80442  23728880.207    23728877.596
  23052336.359   -12315577.47343  -9591317.29442  23052337.522    23052335.690
 04  7 20  0 52  0.0000000  0  8G13G10G23G27G 3G 8G19G 1
  20245166.595   -24435917.57844 -18580451.60242  20245168.750    20245163.136
  24203726.146    -3882043.20643  -2994963.01342  24203727.594    24203725.530
  22142789.187   -18084503.90943 -14082061.28842  22142790.773    22142785.168
  21179972.919   -24028733.32144 -18679997.11842  21179974.240    21179970.280
  23046313.906   -11472128.07243  -8907781.45342  23046315.481    23046313.445
  22412009.192   -17994361.65743 -13842465.44642  22412009.386    22412006.113
  23714742.568    -9018927.35643  -6990394.60042  23714743.973    23714741.007
  23068756.863   -12229286.91143  -9524077.95942  23068758.008    23068756.158
 04  7 20  0 52 30.0000000  0  8G13G10G23G27G 3G 8G19G 1
  20247274.861   -24424838.29644 -18571818.39942  20247277.013    20247271.413
  24189525.160    -3956666.48743  -3053110.93542  24189526.728    24189524.929
  22158455.188   -18002179.30543 -14017912.30742  22158456.670    22158450.888
  21174089.086   -24059653.15844 -18704090.47642  21174090.434    21174086.441
  23043598.193   -11486397.64243  -8918900.58042  23043599.826    23043597.962
  22398438.234   -18065677.05543 -13898035.85542  22398438.449    22398435.240
  23700652.266    -9092972.37843  -7048091.94042  23700653.772    23700650.018
  23085223.653   -12142753.31743  -9456649.24742  23085224.801    23085223.198
 04  7 20  0 53  0.0000000  0  8G13G10G23G27G 3G 8G19G 1
  20249469.771   -24413304.23044 -18562830.82342  20249471.906    20249466.308
  24175403.550    -4030875.16543  -3110935.80542  24175404.887    24175403.294
  22174178.773   -17919551.58043 -13953527.13342  22174180.225    22174174.271
  21168238.777   -24090396.85844 -18728046.58742  21168240.124    21168236.098
  23040986.166   -11500125.00843  -8929597.19742  23040987.774    23040985.398
  22384899.338   -18136823.43843 -13953474.54542  22384899.613    22384896.550
  23686608.371    -9166774.26043  -7105599.76542  23686609.877    23686605.845
  23101736.220   -12055979.53143  -9389033.37942  23101737.321    23101735.788
 04  7 20  0 53 30.0000000  0  8G13G10G23G27G 3G 8G19G 1
  20251751.776   -24401312.18644 -18553486.37842  20251753.943    20251748.340
  24161362.104    -4104664.18943  -3168433.69542  24161363.120    24161361.819
  22189960.322   -17836619.27143 -13888904.61642  22189961.679    22189955.763
  21162422.413   -24120961.90144 -18751863.48942  21162423.754    21162419.754
  23038477.862   -11513306.45743  -8939868.37042  23038479.561    23038476.921
  22371393.517   -18207797.31543 -14008778.80742  22371393.708    22371390.522
  23672611.687    -9240327.45843  -7162913.84542  23672613.093    23672609.071
  23118294.701   -11968963.77743  -9321228.98142  23118295.709    23118294.303
 04  7 20  0 54  0.0000000  0  8G13G10G23G27G 3G 8G19G 1
  20254120.582   -24388863.71343 -18543786.27142  20254122.759    20254117.184
  24147400.227    -4178033.65743  -3225604.64842  24147401.397    24147400.326
  22205799.038   -17753385.87743 -13824047.47442  22205800.388    22205794.642
  21156639.613   -24151350.79344 -18775543.12742  21156640.963    21156636.966
  23036073.381   -11525943.15743  -8949715.10742  23036074.906    23036072.457
  22357920.106   -18278600.70143 -14063950.22442  22357920.286    22357916.923
  23658662.058    -9313631.63143  -7220033.86142  23658663.510    23658659.843
  23134898.537   -11881709.51343  -9253238.72142  23134899.643    23134898.259
 04  7 20  0 54 30.0000000  0  8G13G10G23G27G 3G 8G19G 1
  20256576.188   -24375959.54944 -18533731.08142  20256578.336    20256572.783
  24133518.691    -4250982.00543  -3282447.47642  24133519.735    24133518.505
  22221694.582   -17669853.64543 -13758957.48342  22221695.958    22221690.279
  21150890.030   -24181564.61044 -18799086.34242  21150891.365    21150887.433
  23033772.161   -11538035.15343  -8959137.43142  23033773.752    23033771.462
  22344478.878   -18349234.24643 -14118989.28642  22344479.100    22344475.711
  23644760.455    -9386684.69443  -7276958.21742  23644761.721    23644758.417
  23151547.685   -11794218.57743  -9185064.05542  23151548.847    23151547.449
 04  7 20  0 55  0.0000000  0  8G13G10G23G27G 3G 8G19G 1
  20259119.727   -24362593.14444 -18523315.70942  20259121.875    20259116.290
  24119718.697    -4323501.42943  -3338956.06642  24119719.884    24119718.328
  22237648.138   -17586017.60543 -13693630.76642  22237649.485    22237643.694
  21145175.008   -24211597.49044 -18822488.58642  21145176.318    21145172.300
  23031576.141   -11549575.47743  -8968129.89442  23031577.624    23031575.368
  22331071.262   -18419692.19143 -14173891.51942  22331071.431    22331068.011
  23630908.356    -9459477.71543  -7333679.91742  23630909.550    23630906.497
  23168242.700   -11706486.24543  -9116701.27342  23168243.893    23168242.705
 04  7 20  0 55 30.0000000  0  8G13G10G23G27G 3G 8G19G 1
  20261750.924   -24348766.55043 -18512541.74242  20261753.055    20261747.410
  24106000.305    -4395592.44943  -3395130.81342  24106001.538    24105999.778
  22253658.631   -17501881.87043 -13628070.51242  22253660.027    22253654.217
  21139493.871   -24241452.33344 -18845752.08542  21139495.159    21139491.147
  23029484.747   -11560566.32343  -8976694.15542  23029486.275    23029483.926
  22317696.563   -18489976.75043 -14228658.64342  22317696.780    22317693.390
  23617105.838    -9532010.69343  -7390198.98142  23617107.004    23617103.980
  23184982.859   -11618516.44243  -9048153.46142  23184983.996    23184983.074
 04  7 20  0 56  0.0000000  0  8G13G10G23G27G 3G 8G19G 1
  20264468.431   -24334485.86244 -18501413.94142  20264470.590    20264464.955
  24092362.764    -4467258.86043  -3450974.70842  24092363.980    24092362.111
  22269724.906   -17417453.86243 -13562282.51042  22269726.308    22269720.443
  21133845.309   -24271135.57544 -18868881.86942  21133846.636    21133842.649
  23027496.919   -11571012.55143  -8984834.03342  23027498.508    23027495.973
  22304353.569   -18560094.32643 -14283295.66542  22304353.835    22304350.462
  23603352.084    -9604286.77043  -7446517.88142  23603353.340    23603350.334
  23201766.912   -11530316.43943  -8979426.28042  23201767.986    23201767.083
 04  7 20  0 56 30.0000000  0  8G13G10G23G27G 3G 8G19G 1
  20267274.471   -24319739.86943 -18489923.56242  20267276.620    20267271.037
  24078808.287    -4538487.97243  -3506477.85842  24078809.528    24078807.727
  22285848.458   -17332724.34043 -13496259.55642  22285849.955    22285844.065
  21128231.397   -24300636.83844 -18891869.85242  21128232.705    21128228.632
  23025614.938   -11580902.94143  -8992540.77642  23025616.455    23025613.623
  22291044.431   -18630034.17043 -14337794.23042  22291044.694    22291041.346
  23589649.447    -9676293.04143  -7502626.55242  23589650.926    23589647.961
  23218596.587   -11441876.88943  -8910512.44542  23218597.639    23218596.558
 04  7 20  0 57  0.0000000  0  8G13G10G23G27G 3G 8G19G 1
  20270168.241   -24304533.11044 -18478074.15142  20270170.391    20270164.812
  24065336.556    -4609283.05743  -3561642.78942  24065337.661    24065335.882
  22302028.121   -17247699.37143 -13430006.39042  22302029.593    22302023.883
  21122651.108   -24329961.31144 -18914720.08342  21122652.403    21122648.313
  23023837.726   -11590241.90943  -8999817.86542  23023839.319    23023836.486
  22277768.154   -18699800.47543 -14392157.54242  22277768.463    22277765.388
  23575997.932    -9748031.33543  -7558526.44842  23575999.445    23575996.585
  23235470.373   -11353204.01543  -8841416.80342  23235471.406    23235470.548
 04  7 20  0 57 30.0000000  0  8G13G10G23G27G 3G 8G19G 1
  20273149.189   -24288868.04244 -18465867.61842  20273151.351    20273145.778
  24051947.326    -4679644.52443  -3616469.84942  24051948.449    24051946.521
  22318263.385   -17162383.11443 -13363526.24942  22318264.794    22318259.101
  21117103.870   -24359111.76744 -18937434.71742  21117105.204    21117101.141
  23022164.912   -11599030.98843  -9006666.50042  23022166.592    23022164.123
  22264524.416   -18769396.53643 -14446388.17942  22264524.642    22264521.753
  23562397.590    -9819501.82143  -7614217.64642  23562398.992    23562396.123
  23252387.679   -11264301.65043  -8772142.32142  23252388.662    23252388.198
 04  7 20  0 58  0.0000000  0  8G13G10G23G27G 3G 8G19G 1
  20276218.900   -24272736.85944 -18453297.88242  20276221.041    20276215.444
  24038642.386    -4749562.53643  -3670951.37642  24038643.521    24038641.574
  22334555.305   -17076769.19543 -13296814.17442  22334556.766    22334550.927
  21111591.249   -24388080.80644 -18960007.99742  21111592.582    21111588.476
  23020598.786   -11607262.12143  -9013080.36442  23020600.270    23020597.907
  22251314.697   -18838814.26143 -14500479.85842  22251314.858    22251311.933
  23548850.170    -9890693.99543  -7669692.00042  23548851.614    23548848.498
  23269350.276   -11175163.41043  -8702684.05842  23269351.288    23269350.680
 04  7 20  0 58 30.0000000  0  8G13G10G23G27G 3G 8G19G 1
  20279376.058   -24256146.11544 -18440370.05342  20279378.179    20279372.555
  24025420.752    -4819042.72743  -3725091.73142  24025421.875    24025419.973
  22350902.065   -16990866.46643 -13229877.05242  22350903.587    22350897.826
  21106111.655   -24416876.26544 -18982446.01842  21106112.961    21106108.920
  23019137.396   -11614942.02543  -9019064.70442  23019138.901    23019136.447
  22238137.324   -18908061.36643 -14554438.60642  22238137.526    22238134.493
  23535354.897    -9961612.59443  -7724953.17542  23535356.280    23535352.873
  23286356.368   -11085797.86543  -8633048.67342  23286357.349    23286356.358
 04  7 20  0 59  0.0000000  0  9G13G10G23G27G28G 3G 8G19G 1
  20282620.796   -24239095.11344 -18427083.57742  20282622.900    20282617.259
  24012282.984    -4888082.31443  -3778888.75942  24012284.139    24012282.115
  22367303.650   -16904675.59943 -13162715.38642  22367305.166    22367299.566
  21100665.172   -24445497.70244 -19004748.43542  21100666.478    21100662.492
  24765657.102    -3755167.47153  -2886224.91752  24765659.251    24765660.338
  23017781.191   -11622069.37543  -9024618.45442  23017782.678    23017779.982
  22224992.748   -18977136.81443 -14608263.60242  22224992.881    22224989.770
  23521912.245   -10032254.35543  -7779998.64942  23521913.598    23521909.919
  23303405.310   -10996205.65743  -8563236.67342  23303406.236    23303405.298
 04  7 20  0 59 30.0000000  0  9G13G10G23G27G28G 3G 8G19G 1
  20285954.566   -24221575.91143 -18413432.28142  20285956.690    20285951.025
  23999230.853    -4956671.53243  -3832334.87742  23999232.047    23999229.811
  22383761.452   -16818190.01443 -13095324.10542  22383762.876    22383757.351
  21095253.328   -24473937.18844 -19026909.08542  21095254.599    21095250.637
  24745662.898    -3860235.62743  -2968095.94942  24745665.201    24745666.538
  23016531.787   -11628635.61843  -9029734.98542  23016533.098    23016530.497
  22211882.419   -19046032.33943 -14661948.40742  22211882.582    22211879.273
  23508524.212   -10102608.53243  -7834820.02742  23508525.613    23508521.807
  23320498.549   -10906380.17843  -8493242.88942  23320499.621    23320498.533
 04  7 20  1  0  0.0000000  0  9G13G10G23G27G28G 3G 8G19G 1
  20289376.907   -24203591.38643 -18399418.38342  20289379.015    20289373.332
  23986264.188    -5024811.73443  -3885431.07942  23986265.375    23986263.076
  22400274.274   -16731414.68943 -13027707.03942  22400275.696    22400270.266
  21089875.395   -24502198.61944 -19048930.97242  21089876.647    21089872.631
  24725686.747    -3965208.62043  -3049892.81542  24725689.019    24725690.816
  23015388.246   -11634643.47343  -9034416.40642  23015389.832    23015387.151
  22198805.688   -19114751.29143 -14715495.59642  22198805.869    22198802.394
  23495190.849   -10172675.98843  -7889417.98742  23495192.237    23495188.191
  23337635.034   -10816326.19043  -8423071.01742  23337636.188    23337635.326
 04  7 20  1  0 30.0000000  0  9G13G10G23G27G28G 3G 8G19G 1
  20292887.520   -24185143.00643 -18385043.04042  20292889.626    20292883.976
  23973383.055    -5092502.53543  -3938177.10042  23973384.128    23973381.998
  22416841.785   -16644352.47543 -12959866.41742  22416843.193    22416837.699
  21084531.042   -24530283.58944 -19070815.35742  21084532.290    21084528.163
  24705728.814    -4070086.68043  -3131615.69242  24705731.029    24705732.783
  23014351.111   -11640093.91443  -9038663.48742  23014352.536    23014350.042
  22185762.199   -19183295.49843 -14768906.61542  22185762.389    22185758.768
  23481912.169   -10242455.50543  -7943791.52542  23481913.585    23481909.464
  23354814.860   -10726046.50843  -8352723.34042  23354815.970    23354814.994
 04  7 20  1  1  0.0000000  0  9G13G10G23G27G28G 3G 8G19G 1
  20296486.494   -24166230.43644 -18370305.98842  20296488.592    20296482.959
  23960587.702    -5159741.93843  -3990571.38242  23960588.793    23960586.770
  22433463.564   -16557004.80143 -12891803.35742  22433464.965    22433459.432
  21079220.087   -24558192.40944 -19092562.47742  21079221.370    21079217.283
  24685789.550    -4174867.94043  -3213263.13542  24685791.564    24685793.125
  23013419.797   -11644986.51443  -9042475.90942  23013421.473    23013419.168
  22172751.731   -19251664.78743 -14822181.33742  22172751.983    22172748.414
  23468688.969   -10311944.31143  -7997938.54642  23468690.318    23468686.005
  23372037.470   -10635542.32743  -8282200.72342  23372038.608    23372037.424
 04  7 20  1  1 30.0000000  0  9G13G10G23G27G28G 3G 8G19G 1
  20300174.301   -24146851.06244 -18355205.19442  20300176.382    20300170.804
  23947879.135    -5226525.25243  -4042610.26642  23947880.239    23947878.243
  22450139.603   -16469370.53243 -12823516.97242  22450141.041    22450135.697
  21073943.227   -24585922.62844 -19114170.44642  21073944.476    21073940.477
  24665869.418    -4279548.30443  -3294831.97242  24665871.177    24665872.858
  23012595.711   -11649318.00543  -9045851.08442  23012597.201    23012595.085
  22159775.168   -19319856.75543 -14875317.90142  22159775.350    22159771.904
  23455521.803   -10381137.16943  -8051854.93642  23455523.305    23455518.980
  23389303.134   -10544812.40843  -8211502.24342  23389304.264    23389303.000
 04  7 20  1  2  0.0000000  0  9G13G10G23G27G28G 3G 8G19G 1
  20303951.334   -24127002.58043 -18339738.85542  20303953.418    20303947.900
  23935258.046    -5292849.03943  -4094291.08242  23935259.204    23935257.162
  22466870.359   -16381449.41643 -12755007.07642  22466871.759    22466866.593
  21068700.553   -24613472.71744 -19135638.04842  21068701.833    21068697.973
  24645968.855    -4384124.53343  -3376319.67842  24645970.654    24645972.388
  23011878.462   -11653086.44743  -9048787.53042  23011880.078    23011877.883
  22146832.993   -19387868.73343 -14928314.22942  22146833.161    22146829.801
  23442411.722   -10450029.81443  -8105537.43242  23442413.278    23442409.224
  23406611.610   -10453856.34443  -8140627.51742  23406612.886    23406611.566
 04  7 20  1  2 30.0000000  0  9G13G10G23G27G28G 3G 8G19G 1
  20307816.847   -24106689.13343 -18323910.20742  20307818.917    20307813.466
  23922724.187    -5358715.44243  -4145615.49942  23922725.236    23922723.074
  22483654.979   -16293246.79043 -12686277.84342  22483656.322    22483650.968
  21063491.430   -24640847.15344 -19156968.78142  21063492.688    21063488.780
  24626087.975    -4488599.12843  -3457728.20642  24626089.676    24626091.244
  23011267.944   -11656295.43043  -9051288.03642  23011269.415    23011267.116
  22133923.989   -19455705.56743 -14981174.08042  22133924.185    22133920.983
  23429358.485   -10518623.78743  -8158987.19142  23429360.089    23429356.422
  23423962.015   -10362679.55443  -8069580.79442  23423963.322    23423961.989
 04  7 20  1  3  0.0000000  0  9G13G10G23G27G28G 3G 8G19G 1
  20311770.474   -24085912.86044 -18307720.92242  20311772.543    20311767.131
  23910277.213    -5424124.78543  -4196583.75842  23910278.226    23910276.004
  22500492.284   -16204766.63643 -12617332.34142  22500493.706    22500488.065
  21058315.250   -24668048.38644 -19178164.54242  21058316.538    21058312.530
  24606226.434    -4592973.05543  -3539058.29342  24606228.023    24606229.400
  23010763.428   -11658946.88343  -9053354.07042  23010764.923    23010762.488
  22121047.894   -19523369.24243 -15033899.00342  22121048.045    22121044.957
  23416362.501   -10586918.55043  -8212203.80942  23416364.001    23416360.423
  23441353.617   -10271285.81243  -7998365.00542  23441354.909    23441353.629
 04  7 20  1  3 30.0000000  0  9G13G10G23G27G28G 3G 8G19G 1
  20315814.289   -24064662.43244 -18291162.15842  20315816.391    20315810.975
  23897919.377    -5489063.95643  -4247185.64042  23897920.592    23897918.431
  22517384.077   -16115999.05643 -12548162.87642  22517385.519    22517379.891
  21053174.104   -24695065.37844 -19199216.73842  21053175.386    21053171.328
  24586386.350    -4697233.35243  -3620299.77242  24586387.848    24586389.414
  23010367.141   -11661028.82243  -9054976.34542  23010368.644    23010366.201
  22108206.919   -19590848.04943 -15086479.86442  22108207.139    22108204.046
  23403425.893   -10654900.33143  -8265176.53742  23403427.405    23403423.919
  23458788.618   -10179665.13143  -7926972.35542  23458789.798    23458788.619
 04  7 20  1  4  0.0000000  0  9G13G10G23G27G28G 3G 8G19G 1
  20319945.862   -24042951.01743 -18274244.19142  20319947.950    20319942.559
  23885648.998    -5553544.70743  -4297430.31242  23885650.105    23885648.210
  22534327.846   -16026959.11843 -12478781.17342  22534329.288    22534323.683
  21048065.382   -24721911.87144 -19220136.08042  21048066.682    21048062.616
  24566565.454    -4801392.12443  -3701462.19142  24566567.087    24566568.637
  23010076.902   -11662554.59043  -9056165.23442  23010078.380    23010075.765
  22095398.823   -19658156.03743 -15138927.59942  22095398.973    22095395.701
  23390546.762   -10722579.89443  -8317913.81542  23390548.297    23390544.934
  23476263.983   -10087832.55043  -7855414.59742  23476265.140    23476264.075
 04  7 20  1  4 30.0000000  0  9G13G10G23G27G28G 3G 8G19G 1
  20324166.941   -24020769.04343 -18256959.54742  20324169.041    20324163.676
  23873468.218    -5617555.39643  -4347308.72642  23873469.119    23873467.518
  22551325.180   -15937638.55343 -12409180.81242  22551326.636    22551320.977
  21042990.945   -24748578.38544 -19240915.17542  21042992.232    21042988.145
  24546766.019    -4905438.02943  -3782536.66242  24546767.867    24546768.977
  23009894.353   -11663513.91343  -9056912.75242  23009895.802    23009893.301
  22082625.188   -19725283.16843 -15191234.40042  22082625.290    22082621.732
  23377727.549   -10789945.04143  -8370406.07942  23377729.112    23377725.675
  23493781.230    -9995779.61843  -7783685.12442  23493782.418    23493781.394
 04  7 20  1  5  0.0000000  0  9G13G10G23G27G28G 3G 8G19G 1
  20328477.553   -23998116.57643 -18239308.28342  20328479.638    20328474.265
  23861376.966    -5681094.67943  -4396819.78742  23861377.953    23861376.434
  22568375.494   -15848039.07143 -12339363.10042  22568377.009    22568371.222
  21037950.673   -24775065.28944 -19261554.31542  21037951.972    21037947.865
  24526988.430    -5009369.73143  -3863522.12842  24526990.321    24526991.043
  23009819.581   -11663906.88343  -9057218.95942  23009821.032    23009818.516
  22069885.789   -19792229.42443 -15243400.28542  22069885.923    22069882.213
  23364968.796   -10856993.18443  -8422651.29142  23364970.227    23364966.491
  23511340.145    -9903507.93143  -7711785.20842  23511341.343    23511340.211
 04  7 20  1  5 30.0000000  0  9G13G10G23G27G28G 3G 8G19G 1
  20332877.385   -23974995.11244 -18221291.57142  20332879.472    20332874.145
  23849375.514    -5744162.23343  -4445963.30342  23849376.469    23849374.841
  22585478.269   -15758163.95843 -12269330.62142  22585479.800    22585474.058
  21032944.083   -24801374.62844 -19282055.09142  21032945.397    21032941.402
  24507232.306    -5113187.53243  -3944418.87742  24507234.309    24507234.873
  23009852.168   -11663734.96643  -9057084.97242  23009853.607    23009851.225
  22057180.310   -19858996.61543 -15295426.64342  22057180.482    22057176.827
  23352270.373   -10923723.62243  -8474648.96042  23352271.749    23352267.812
  23528939.922    -9811020.69243  -7639717.32642  23528941.121    23528939.994
 04  7 20  1  6  0.0000000  0  9G13G10G23G27G28G 3G 8G19G 1
  20337366.177   -23951406.60244 -18202910.93042  20337368.271    20337362.844
  23837463.624    -5806758.38843  -4494739.47542  23837464.580    23837463.129
  22602632.917   -15668016.61843 -12199085.99942  22602634.436    22602628.678
  21027970.991   -24827508.26344 -19302418.96142  21027972.309    21027968.324
  24487497.682    -5216891.79243  -4025227.12942  24487499.715    24487500.489
  23009992.093   -11662999.69743  -9056512.02442  23009993.545    23009991.077
  22044508.445   -19925586.49643 -15347314.82442  22044508.683    22044505.142
  23339632.664   -10990135.62943  -8526398.48642  23339634.030    23339629.669
  23546579.734    -9718321.10843  -7567484.00042  23546581.047    23546580.239
 04  7 20  1  6 30.0000000  0  9G13G10G23G27G28G 3G 8G19G 1
  20341944.800   -23927345.99144 -18184162.42142  20341946.881    20341941.425
  23825642.917    -5868876.52943  -4543143.17442  23825643.848    23825642.180
  22619839.988   -15577593.76843 -12128626.71442  22619841.520    22619835.700
  21023032.193   -24853461.74444 -19322642.44142  21023033.484    21023029.550
  24467785.997    -5320476.25843  -4105942.05942  24467787.850    24467788.871
  23010240.205   -11661695.93943  -9055496.09042  23010241.613    23010239.114
  22031871.594   -19991993.95243 -15399060.84442  22031871.793    22031868.182
  23327056.924   -11056221.78843  -8577894.12142  23327058.341    23327053.686
  23564260.826    -9625405.96043  -7495082.71042  23564262.097    23564261.590
 04  7 20  1  7  0.0000000  0  9G13G10G23G27G28G 3G 8G19G 1
  20346612.861   -23902814.98443 -18165047.36042  20346614.956    20346609.547
  23813913.047    -5930516.27443  -4591174.12742  23813914.071    23813912.322
  22637098.836   -15486898.48243 -12057955.14142  22637100.377    22637094.488
  21018127.334   -24879236.72944 -19342726.83542  21018128.651    21018124.721
  24448097.017    -5423940.96343  -4186563.68242  24448098.831    24448099.971
  23010595.989   -11659825.32143  -9054038.48042  23010597.438    23010595.013
  22019269.025   -20058220.80043 -15450666.12642  22019269.226    22019265.490
  23314543.251   -11121981.06743  -8629135.05842  23314544.606    23314540.098
  23581982.473    -9532278.02043  -7422515.59242  23581983.569    23581983.295
 04  7 20  1  7 30.0000000  0  9G13G10G23G27G28G 3G 8G19G 1
  20351369.680   -23877817.88744 -18145569.11442  20351371.770    20351366.354
  23802274.012    -5991680.37143  -4638834.43242  23802274.848    23802273.076
  22654408.276   -15395936.53843 -11987075.78542  22654409.801    22654404.075
  21013255.595   -24904837.98244 -19362675.84142  21013256.914    21013252.884
  24428430.488    -5527288.68743  -4267094.12342  24428432.396    24428433.141
  23011059.015   -11657391.94443  -9052142.30142  23011060.401    23011057.996
  22006699.876   -20124271.36843 -15502134.06842  22006700.091    22006696.363
  23302091.354   -11187415.33743  -8680122.73542  23302092.708    23302088.348
  23599743.571    -9438943.09543  -7349787.20142  23599744.499    23599744.299
 04  7 20  1  8  0.0000000  0  9G13G10G23G27G28G 3G 8G19G 1
  20356216.292   -23852348.62444 -18125722.95042  20356218.403    20356213.028
  23790726.988    -6052360.90343  -4686117.92842  23790727.914    23790725.901
  22671769.315   -15304703.65143 -11915985.29442  22671770.826    22671765.206
  21008418.054   -24930259.56844 -19382484.86442  21008419.386    21008415.260
  24408787.665    -5630511.88443  -4347527.54542  24408789.611    24408789.890
  23011630.410   -11654389.45843  -9049802.70942  23011631.863    23011629.464
  21994165.608   -20190139.05043 -15553459.51642  21994165.838    21994162.186
  23289703.059   -11252516.08243  -8730850.50942  23289704.378    23289700.087
  23617545.052    -9345396.68643  -7276894.02542  23617546.032    23617545.734
 04  7 20  1  8 30.0000000  0  9G13G10G23G27G28G 3G 8G19G 1
  20361152.774   -23826407.46144 -18105509.06842  20361154.878    20361149.472
  23779272.128    -6112556.55743  -4733023.60342  23779273.003    23779270.969
  22689181.468   -15213201.63143 -11844685.06942  22689182.979    22689177.589
  21003614.632   -24955501.86944 -19402154.17542  21003615.940    21003611.851
  24389168.536    -5733609.50643  -4427863.12542  24389170.632    24389170.467
  23012310.070   -11650818.02343  -9047019.77542  23012311.494    23012309.089
  21981666.181   -20255824.64743 -15604643.04742  21981666.350    21981662.780
  23277378.621   -11317280.87243  -8781316.50542  23277380.092    23277375.781
  23635386.540    -9251640.44343  -7203837.32642  23635387.575    23635387.023
 04  7 20  1  9  0.0000000  0  9G13G10G23G27G28G 3G 8G19G 1
  20366178.149   -23799998.89843 -18084930.98442  20366180.256    20366174.877
  23767908.978    -6172269.68743  -4779553.27342  23767909.835    23767908.034
  22706643.854   -15121436.24643 -11773179.64442  22706645.333    22706640.092
  20998844.342   -24980569.43444 -19421687.32942  20998845.670    20998841.665
  24369572.943    -5836584.39843  -4508103.08742  24369575.074    24369574.715
  23013096.988   -11646681.93143  -9043796.83742  23013098.454    23013096.330
  21969200.572   -20321332.11043 -15655687.76742  21969200.777    21969197.150
  23265117.831   -11381711.44943  -8831522.06342  23265119.353    23265114.990
  23653266.840    -9157679.98143  -7130621.51542  23653267.898    23653267.345
 04  7 20  1  9 30.0000000  0  9G13G10G23G27G28G 3G 8G19G 1
  20371294.127   -23773114.12543 -18063981.82342  20371296.236    20371290.841
  23756639.697    -6231490.28943  -4825699.13542  23756640.588    23756638.863
  22724157.716   -15029400.56743 -11701463.59642  22724159.153    22724153.969
  20994108.971   -25005453.80544 -19441077.74142  20994110.293    20994106.274
  24350002.491    -5939426.28543  -4588239.42142  24350004.758    24350004.302
  23013993.149   -11641972.31143  -9040126.99942  23013994.548    23013992.468
  21956770.286   -20386653.02543 -15706587.14042  21956770.580    21956766.902
  23252922.786   -11445796.68943  -8881458.53242  23252924.215    23252920.026
  23671187.009    -9063508.41943  -7057241.16442  23671188.138    23671187.737
 04  7 20  1 10  0.0000000  0  9G13G10G23G27G28G 3G 8G19G 1
  20376499.523   -23745759.72544 -18042666.72942  20376501.602    20376496.223
  23745463.219    -6290222.99643  -4871464.83442  23745464.056    23745462.420
  22741721.602   -14937102.50743 -11629543.11342  22741722.992    22741717.809
  20989407.252   -25030161.63244 -19460330.58742  20989408.590    20989404.473
  24330456.344    -6042139.93843  -4668275.80942  24330458.599    24330458.568
  23014997.267   -11636695.44543  -9036015.16142  23014998.821    23014996.559
  21944374.395   -20451793.44943 -15757345.87942  21944374.630    21944371.021
  23240792.664   -11509540.51443  -8931128.97342  23240794.110    23240790.151
  23689146.028    -8969133.47243  -6983702.35342  23689147.181    23689146.563
 04  7 20  1 10 30.0000000  0  9G13G10G23G27G28G 3G 8G19G 1
  20381794.082   -23717936.64743 -18020986.42442  20381796.136    20381790.777
  23734379.742    -6348466.81743  -4916849.57042  23734380.650    23734378.950
  22759334.909   -14844544.29043 -11557419.91042  22759336.338    22759331.075
  20984738.973   -25054693.61244 -19479446.40542  20984740.272    20984736.182
  24310934.753    -6144724.97843  -4748211.95742  24310936.862    24310936.953
  23016109.384   -11630851.94443  -9031461.79342  23016110.915    23016108.343
  21932012.757   -20516754.09543 -15807964.53242  21932012.967    21932009.356
  23228727.781   -11572941.22443  -8980532.06042  23228729.273    23228725.503
  23707143.533    -8874557.18143  -6910006.70442  23707144.640    23707143.724
 04  7 20  1 11  0.0000000  0  9G13G10G23G27G28G 3G 8G19G 1
  20387178.850   -23689639.61443 -17998936.80242  20387180.895    20387175.559
  23723390.633    -6406215.24143  -4961848.27542  23723391.595    23723389.733
  22776998.244   -14751722.62343 -11485091.40242  22776999.761    22776994.485
  20980105.143   -25079044.94344 -19498421.45642  20980106.411    20980102.248
  24291439.067    -6247174.88443  -4828042.82042  24291440.959    24291441.118
  23017330.093   -11624437.16443  -9026463.19642  23017331.478    23017328.842
  21919686.353   -20581529.47043 -15858438.81442  21919686.558    21919682.967
  23216729.798   -11635991.35943  -9029661.97742  23216731.183    23216727.468
  23725179.607    -8779776.22643  -6836151.56142  23725180.775    23725179.960
 04  7 20  1 11 30.0000000  0  9G13G10G23G27G28G 3G 8G19G 1
  20392653.409   -23660870.53444 -17976519.35342  20392655.497    20392650.144
  23712495.835    -6463468.33143  -5006461.02742  23712496.801    23712494.759
  22794711.040   -14658640.91043 -11412560.28242  22794712.464    22794707.381
  20975505.117   -25103217.71144 -19517257.36642  20975506.466    20975502.292
  24271969.345    -6349489.73743  -4907768.43442  24271971.200    24271970.973
  23018659.075   -11617452.60743  -9021020.67242  23018660.624    23018657.680
  21907394.661   -20646121.51143 -15908770.24142  21907394.936    21907391.525
  23204798.629   -11698690.00143  -9078518.01342  23204799.955    23204796.319
  23743254.151    -8684793.72443  -6762139.35142  23743255.403    23743254.556
 04  7 20  1 12  0.0000000  0  9G13G10G23G27G28G 3G 8G19G 1
  20398217.457   -23631631.37344 -17953735.60842  20398219.543    20398214.207
  23701695.096    -6520226.14343  -5050687.83942  23701696.118    23701694.117
  22812472.752   -14565302.48143 -11339829.12442  22812474.103    22812468.965
  20970938.856   -25127213.73944 -19535955.56242  20970940.150    20970936.031
  24252525.137    -6451669.72243  -4987389.00542  24252527.162    24252526.520
  23020096.463   -11609899.92343  -9015135.47042  23020098.020    23020094.788
  21895137.671   -20710532.00043 -15958960.19842  21895137.884    21895134.736
  23192934.551   -11761036.35843  -9127099.52042  23192935.782    23192932.134
  23761366.720    -8589612.95143  -6687972.65942  23761367.800    23761367.038
 04  7 20  1 12 30.0000000  0  9G13G10G23G27G28G 3G 8G19G 1
  20403871.480   -23601919.56944 -17930583.57642  20403873.564    20403868.211
  23690989.536    -6576484.35043  -5094525.34842  23690990.523    23690988.472
  22830283.718   -14471705.97743 -11266896.88042  22830285.090    22830279.640
  20966406.718   -25151030.28344 -19554513.90742  20966407.986    20966403.905
  24233107.099    -6553710.73443  -5066901.32842  24233109.330    24233108.600
  23021642.156   -11601776.50243  -9008805.50142  23021643.712    23021640.878
  21882915.916   -20774757.88043 -16009006.31842  21882916.097    21882912.948
  23181138.436   -11823025.29343  -9175402.52542  23181139.675    23181135.944
  23779517.226    -8494232.65443  -6613650.48142  23779518.254    23779517.709
 04  7 20  1 13  0.0000000  0  9G13G10G23G27G28G 3G 8G19G 1
  20409615.703   -23571733.57444 -17907062.04142  20409617.796    20409612.405
  23680379.603    -6632239.89943  -5137971.19842  23680380.587    23680378.430
  22848143.694   -14377851.49343 -11193763.59742  22848145.195    22848139.704
  20961909.030   -25174665.89744 -19572931.26842  20961910.305    20961906.192
  24213716.358    -6655609.76743  -5146302.99142  24213718.453    24213717.651
  23023296.806   -11593080.81943  -9002029.65942  23023298.162    23023295.685
  21870729.646   -20838797.64943 -16058907.41342  21870729.790    21870726.464
  23169410.930   -11884652.72543  -9223423.85642  23169412.301    23169408.570
  23797705.651    -8398652.66443  -6539172.68142  23797706.561    23797706.253
 04  7 20  1 13 30.0000000  0  9G13G10G23G27G28G 3G 8G19G 1
  20415448.981   -23541079.41944 -17883175.70342  20415451.080    20415445.757
  23669864.468    -6687497.45243  -5181028.99942  23669865.446    23669863.257
  22866051.326   -14283746.90843 -11120435.42342  22866052.828    22866047.377
  20957444.523   -25198126.95044 -19591212.60242  20957445.822    20957441.741
  24194351.869    -6757371.57143  -5225597.70942  24194353.701    24194352.489
  23025059.178   -11583819.07943  -8994812.75242  23025060.778    23025058.281
  21858577.526   -20902657.27643 -16108668.12342  21858577.660    21858574.339
  23157751.671   -11945922.19743  -9271166.25542  23157753.042    23157749.333
  23815930.654    -8302880.67043  -6464545.24542  23815931.543    23815931.188
 04  7 20  1 14  0.0000000  0  9G13G10G23G27G28G 3G 8G19G 1
  20421373.621   -23509945.31944 -17858915.38342  20421375.705    20421370.418
  23659446.742    -6742243.27243  -5223688.04342  23659447.780    23659445.507
  22884008.729   -14189381.40843 -11046903.95142  22884010.113    22884004.623
  20953015.569   -25221401.30244 -19609348.45242  20953016.872    20953012.798
  24175015.631    -6858982.33943  -5304774.72642  24175017.591    24175016.494
  23026931.968   -11573979.14243  -8987145.26042  23026933.249    23026930.989
  21846462.099   -20966324.21243 -16158278.69842  21846462.227    21846458.919
  23146163.331   -12006819.06243  -9318618.28342  23146164.698    23146160.836
  23834193.835    -8206905.89143  -6389759.81042  23834194.854    23834194.886
 04  7 20  1 14 30.0000000  0  9G13G10G23G27G28G 3G 8G19G 1
  20427387.080   -23478344.59344 -17834291.45542  20427389.138    20427383.856
  23649124.204    -6796488.61443  -5265957.10742  23649125.076    23649122.908
  22902012.779   -14094769.81243 -10973180.70942  22902014.203    22902008.719
  20948619.637   -25244502.08944 -19627349.06642  20948620.940    20948616.815
  24155705.693    -6960453.72843  -5383843.15842  24155707.752    24155707.081
  23028912.030   -11563574.26243  -8979037.54842  23028913.331    23028911.200
  21834380.827   -21029811.59843 -16207749.36642  21834381.010    21834377.633
  23134643.423   -12067353.96543  -9365788.25642  23134644.988    23134640.983
  23852493.137    -8110742.96843  -6314827.76942  23852494.125    23852494.191
 04  7 20  1 15  0.0000000  0  9G13G10G23G27G28G 3G 8G19G 1
  20433490.908   -23446268.70243 -17809297.27342  20433492.977    20433487.671
  23638898.774    -6850223.29143  -5307828.25742  23638899.654    23638897.390
  22920064.943   -13999905.34543 -10899260.42542  22920066.410    22920060.984
  20944258.326   -25267420.91244 -19645207.88242  20944259.592    20944255.507
  24136424.530    -7061775.79343  -5462795.22742  24136426.365    24136426.122
  23031001.030   -11552596.00443  -8970483.05942  23031002.253    23031000.092
  21822335.367   -21093111.09143 -16257073.61142  21822335.557    21822332.142
  23123194.901   -12127515.85743  -9412667.55242  23123196.319    23123192.160
  23870829.832    -8014384.69543  -6239743.53142  23870830.784    23870830.530
 04  7 20  1 15 30.0000000  0  9G13G10G23G27G28G 3G 8G19G 1
  20439684.726   -23413719.74444 -17783934.46642  20439686.801    20439681.526
  23628770.440    -6903447.81243  -5349301.88042  23628771.312    23628769.205
  22938164.559   -13904791.30543 -10825145.67642  22938166.067    22938160.899
  20939931.289   -25290159.64944 -19662926.37742  20939932.534    20939928.490
  24117171.952    -7162948.73643  -5541631.07542  24117173.863    24117173.540
  23033198.757   -11541046.32343  -8961483.32942  23033199.884    23033197.693
  21810325.482   -21156223.44043 -16306252.04842  21810325.648    21810322.235
  23111817.479   -12187304.24443  -9459255.81742  23111818.891    23111814.455
  23889202.955    -7917834.58643  -6164509.82042  23889203.994    23889203.426
 04  7 20  1 16  0.0000000  0  9G13G10G23G27G28G 3G 8G19G 1
  20445968.201   -23380699.79844 -17758204.65142  20445970.296    20445965.055
  23618739.054    -6956162.56443  -5390378.27842  23618739.973    23618738.019
  22956311.075   -13809431.33543 -10750839.28242  22956312.553    22956307.486
  20935638.053   -25312720.53044 -19680506.28142  20935639.352    20935635.235
  24097947.762    -7263973.11443  -5620351.17242  24097949.708    24097949.216
  23035504.456   -11528927.54043  -8952040.17442  23035506.243    23035503.773
  21798350.682   -21219151.07243 -16355286.54742  21798350.850    21798347.442
  23100511.263   -12246718.77043  -9505552.77942  23100512.557    23100508.145
  23907611.860    -7821096.19443  -6089129.39142  23907612.959    23907612.174
 04  7 20  1 16 30.0000000  0  9G13G10G23G27G28G 3G 8G19G 1
  20452342.020   -23347205.47344 -17732105.19342  20452344.080    20452338.791
  23608805.364    -7008362.53643  -5431053.54642  23608806.367    23608804.684
  22974504.708   -13713823.64643 -10676339.87142  22974506.195    22974501.171
  20931379.352   -25335099.88744 -19697944.73942  20931380.636    20931376.564
  24078752.595    -7364843.74643  -5698951.50642  24078754.611    24078754.130
  23037919.533   -11516236.43643  -8942150.97642  23037921.326    23037918.819
  21786411.615   -21281890.75143 -16404174.58742  21786411.828    21786408.483
  23089277.321   -12305753.34243  -9551553.67842  23089278.651    23089274.355
  23926056.994    -7724167.29243  -6013600.50242  23926058.126    23926057.188
 04  7 20  1 17  0.0000000  0  9G13G10G23G27G28G 3G 8G19G 1
  20458805.248   -23313240.96244 -17705639.35942  20458807.330    20458801.995
  23598969.492    -7060050.02943  -5471329.46542  23598970.303    23598968.839
  22992744.393   -13617973.48743 -10601651.50142  22992745.912    22992741.034
  20927154.517   -25357301.62644 -19715244.78342  20927155.801    20927151.706
  24059586.131    -7465563.18743  -5777434.00242  24059588.156    24059587.425
  23040442.962   -11502976.67643  -8931818.65642  23040444.644    23040441.920
  21774507.805   -21344445.62143 -16452918.62242  21774507.967    21774504.632
  23078115.632   -12364409.05643  -9597259.34642  23078116.932    23078112.613
  23944537.549    -7627053.18143  -5937927.30242  23944538.627    23944537.450
 04  7 20  1 17 30.0000000  0  9G13G10G23G27G28G 3G 8G19G 1
  20465358.666   -23278802.84244 -17678804.47742  20465360.748    20465355.362
  23589231.988    -7111220.16443  -5511202.24642  23589232.888    23589231.411
  23011030.659   -13521878.74643 -10526772.55542  23011032.188    23011027.386
  20922964.212   -25379322.19044 -19732403.65742  20922965.497    20922961.328
  24040449.469    -7566126.24743  -5855794.61742  24040451.504    24040450.523
  23043075.321   -11489144.97643  -8921040.70642  23043076.957    23043074.071
  21762639.945   -21406811.60943 -16501515.46942  21762640.033    21762636.741
  23067026.999   -12422680.18543  -9642665.35742  23067028.314    23067023.987
  23963053.514    -7529751.74343  -5862108.16242  23963054.580    23963053.496
 04  7 20  1 18  0.0000000  0  9G13G10G23G27G28G 3G 8G19G 1
  20472002.148   -23243891.55644 -17651600.90142  20472004.224    20471998.781
  23579593.395    -7161871.69343  -5550670.94242  23579594.335    23579592.707
  23029363.278   -13425541.42943 -10451704.59242  23029364.687    23029359.737
  20918808.225   -25401161.73144 -19749421.47242  20918809.526    20918805.425
  24021342.920    -7666531.83643  -5934032.53542  24021345.084    24021343.818
  23045816.080   -11474742.04243  -8909817.63542  23045817.802    23045814.765
  21750807.890   -21468989.38443 -16549965.65942  21750808.041    21750804.653
  23056011.870   -12480564.52043  -9687769.99142  23056013.254    23056008.928
  23981604.495    -7432264.91343  -5786144.50642  23981605.687    23981604.617
 04  7 20  1 18 30.0000000  0  9G13G10G23G27G28G 3G 8G19G 1
  20478735.388   -23208508.16744 -17624029.44442  20478737.498    20478732.056
  23570053.582    -7212004.01143  -5589735.05442  23570054.659    23570052.761
  23047741.273   -13328964.21143 -10376449.68942  23047742.726    23047737.550
  20914686.459   -25422821.44744 -19766299.17042  20914687.757    20914683.761
  24002266.081    -7766779.35043  -6012147.27042  24002268.373    24002267.185
  23048665.194   -11459768.90843  -8898150.27442  23048666.936    23048663.759
  21739011.624   -21530979.60643 -16598269.70042  21739011.750    21739008.246
  23045070.912   -12538060.48843  -9732572.00342  23045072.166    23045067.908
  24000190.255    -7334595.09443  -5710038.26942  24000191.440    24000190.500
 04  7 20  1 19  0.0000000  0  9G13G10G23G27G28G 3G 8G19G 1
  20485558.272   -23172653.39444 -17596090.67942  20485560.401    20485555.059
  23560612.947    -7261615.87843  -5628393.60942  23560613.989    23560611.680
  23066164.505   -13232149.00643 -10301009.34742  23066165.974    23066160.794
  20910598.924   -25444301.59344 -19783036.94442  20910600.227    20910596.204
  23983219.394    -7866867.55143  -6090137.86542  23983221.610    23983220.943
  23051623.060   -11444226.15643  -8886039.02942  23051624.516    23051621.418
  21727251.036   -21592781.83243 -16646427.26542  21727251.139    21727247.675
  23034204.209   -12595166.03643  -9777069.78942  23034205.508    23034201.163
  24018810.633    -7236743.89843  -5633790.71242  24018811.763    24018811.366
 04  7 20  1 19 30.0000000  0  9G13G10G23G27G28G 3G 8G19G 1
  20492471.835   -23136322.32544 -17567780.77042  20492473.941    20492468.638
  23551272.327    -7310701.03143  -5666641.78042  23551273.364    23551270.948
  23084633.837   -13135092.40043 -10225380.90542  23084635.224    23084629.983
  20906546.500   -25465597.10244 -19799630.83142  20906547.795    20906543.777
  23964204.767    -7966790.16843  -6167999.42942  23964206.789    23964206.175
  23054689.764   -11428109.23543  -8873480.41542  23054691.327    23054688.635
  21715527.184   -21654391.28243 -16694434.61742  21715527.288    21715523.840
  23023413.153   -12651873.74743  -9821257.56542  23023414.473    23023410.131
  24037466.347    -7138707.91243  -5557399.15942  24037467.490    24037467.413
 04  7 20  1 20  0.0000000  0  9G13G10G23G27G28G 3G 8G19G 1
  20499475.077   -23099519.81444 -17539103.50442  20499477.171    20499471.897
  23542031.216    -7359262.63043  -5704481.95642  23542032.309    23542029.968
  23103147.820   -13037800.54343 -10149569.15942  23103149.147    23103144.017
  20902528.364   -25486712.42544 -19816084.32142  20902529.663    20902525.598
  23945221.015    -8066550.01543  -6245734.16442  23945223.102    23945222.112
  23057865.157   -11411423.03643  -8860478.18242  23057866.620    23057863.755
  21703839.177   -21715812.53543 -16742295.30342  21703839.332    21703835.764
  23012697.145   -12708185.70743  -9865136.94942  23012698.545    23012694.225
  24056156.043    -7040493.04043  -5480868.18342  24056157.180    24056157.313
 04  7 20  1 20 30.0000000  0  9G13G10G23G27G28G 3G 8G19G 1
  20506567.860   -23062247.33644 -17510060.03042  20506569.933    20506564.628
  23532889.903    -7407300.11843  -5741913.73542  23532890.938    23532888.666
  23121706.160   -12940276.15343 -10073576.22242  23121707.405    23121702.337
  20898544.274   -25507648.83144 -19832398.39942  20898545.578    20898541.569
  23926268.290    -8166146.67543  -6323341.75242  23926270.257    23926269.279
  23061148.696   -11394168.80543  -8847033.33742  23061150.006    23061146.939
  21692186.831   -21777045.77743 -16790009.47942  21692187.030    21692183.401
  23002056.812   -12764100.57943  -9908706.91242  23002058.229    23002053.834
  24074879.041    -6942101.97443  -5404199.94242  24074880.513    24074880.771
 04  7 20  1 21  0.0000000  0  9G13G10G23G27G28G 3G 8G19G 1
  20513750.474   -23024502.77244 -17480648.70042  20513752.538    20513747.224
  23523849.061    -7454809.95943  -5778934.34842  23523850.018    23523847.602
  23140309.042   -12842518.35243  -9997401.44142  23140310.154    23140305.126
  20894594.843   -25528403.62344 -19848570.95642  20894596.142    20894592.076
  23907347.139    -8265576.33743  -6400819.21342  23907349.113    23907348.017
  23064540.644   -11376344.52443  -8833144.26342  23064542.022    23064538.802
  21680570.594   -21838088.35343 -16837575.11142  21680570.831    21680567.369
  22991493.182   -12819613.46543  -9951963.63142  22991494.528    22991489.981
  24093635.901    -6843533.64243  -5327393.55442  24093637.346    24093637.731
 04  7 20  1 21 30.0000000  0  9G13G10G23G27G28G 3G 8G19G 1
  20521023.109   -22986284.90244 -17450868.55642  20521025.235    20521019.924
  23514909.259    -7501789.36943  -5815541.64642  23514910.162    23514907.773
  23158956.151   -12744527.52143  -9921045.06042  23158957.333    23158952.287
  20890680.139   -25548975.59044 -19864601.04842  20890681.470    20890677.326
  23888458.504    -8364836.21343  -6478164.37842  23888460.519    23888459.114
  23068041.066   -11357949.30543  -8818810.33642  23068042.520    23068039.350
  21668991.000   -21898939.29443 -16884991.40942  21668991.124    21668987.843
  22981006.415   -12874720.84843  -9994904.39042  22981007.912    22981003.375
  24112426.860    -6744788.44943  -5250449.39542  24112428.188    24112428.451
 04  7 20  1 22  0.0000000  0  9G13G10G23G27G28G 3G 8G19G 1
  20528385.384   -22947596.31244 -17420721.62042  20528387.507    20528382.155
  23506070.085    -7548239.17543  -5851736.27842  23506071.016    23506068.884
  23177646.739   -12646307.67543  -9844510.20642  23177647.969    23177643.193
  20886799.788   -25569366.83044 -19880490.31642  20886801.132    20886796.997
  23869602.186    -8463926.99443  -6555377.78842  23869604.206    23869602.275
  23071649.665   -11338985.85543  -8804033.60542  23071651.081    23071648.085
  21657447.613   -21959600.43143 -16932259.80642  21657447.787    21657444.296
  22970596.928   -12929422.52943 -10037529.03142  22970598.429    22970593.966
  24131250.837    -6645869.97543  -5173370.20742  24131252.119    24131252.092
 04  7 20  1 22 30.0000000  0  9G13G10G23G27G28G 3G 8G19G 1
  20535837.240   -22908436.26744 -17390207.31142  20535839.402    20535834.050
  23497332.051    -7594157.00443  -5887516.36542  23497332.970    23497331.074
  23196380.913   -12547859.00943  -9767797.05442  23196382.132    23196377.431
  20882954.074   -25589576.14644 -19896237.83342  20882955.410    20882951.245
  23850778.541    -8562845.98143  -6632457.33842  23850780.494    23850778.224
  23075366.520   -11319453.35743  -8788813.51842  23075367.829    23075365.171
  21645940.690   -22020070.07043 -16979378.96842  21645940.897    21645937.166
  22960265.217   -12983714.69243 -10079834.58942  22960266.754    22960262.542
  24150107.291    -6546778.63943  -5096156.28842  24150108.653    24150108.595
 04  7 20  1 23  0.0000000  0  9G13G10G23G27G28G 3G 8G19G 1
  20543379.420   -22868801.99844 -17359323.48842  20543381.573    20543376.189
  23488696.173    -7639538.31443  -5922878.39442  23488697.084    23488695.125
  23215159.048   -12449180.13243  -9690904.52042  23215160.197    23215155.544
  20879143.586   -25609600.36844 -19911841.10842  20879144.900    20879140.741
  23831988.073    -8661588.72443  -6709399.56842  23831990.031    23831987.699
  23079192.355   -11299349.14343  -8773147.92842  23079193.636    23079191.156
  21634470.848   -22080344.87243 -17026346.31442  21634471.044    21634467.198
  22950012.477   -13037592.11843 -10121816.99142  22950014.036    22950009.927
  24168996.785    -6447513.05043  -5018806.58642  24168998.105    24168998.091
 04  7 20  1 23 30.0000000  0  9G13G10G23G27G28G 3G 8G19G 1
  20551010.186   -22828701.76044 -17328076.56542  20551012.373    20551006.986
  23480161.453    -7684389.79343  -5957827.53142  23480162.316    23480160.256
  23233978.883   -12350280.72743  -9613840.12842  23233980.202    23233975.562
  20875366.811   -25629447.27844 -19927306.22442  20875368.117    20875364.024
  23813230.456    -8760161.60043  -6786209.45742  23813232.265    23813229.778
  23083125.228   -11278681.58543  -8757043.35642  23083126.535    23083124.309
  21623036.393   -22140432.70943 -17073167.97542  21623036.612    21623032.842
  22939837.793   -13091060.58943 -10163480.70642  22939839.257    22939835.044
  24187918.123    -6348082.49543  -4941328.35642  24187919.301    24187918.939
 04  7 20  1 24  0.0000000  0  9G13G10G23G27G28G 3G 8G19G 1
  20558730.913   -22788128.87244 -17296461.34942  20558733.080    20558727.752
  23471728.930    -7728703.22243  -5992357.46242  23471729.782    23471727.757
  23252841.736   -12251155.50443  -9536599.76642  23252843.135    23252838.730
  20871625.056   -25649110.12444 -19942627.91842  20871626.396    20871622.346
  23794506.592    -8858556.43943  -6862880.61842  23794508.449    23794505.930
  23087166.631   -11257444.46843  -8740494.97842  23087167.964    23087165.590
  21611638.875   -22200326.70043 -17119838.58442  21611639.134    21611635.420
  22929742.881   -13144110.66743 -10204818.38642  22929744.232    22929739.925
  24206871.541    -6248481.75143  -4863717.49742  24206872.734    24206872.082
 04  7 20  1 24 30.0000000  0  9G13G10G23G27G28G 3G 8G19G 1
  20566541.836   -22747082.36044 -17264477.07842  20566543.953    20566538.657
  23463399.075    -7772475.87543  -6026465.99642  23463400.097    23463398.133
  23271747.662   -12151804.63943  -9459183.60142  23271749.101    23271744.833
  20867918.675   -25668587.19344 -19957804.85642  20867919.992    20867916.007
  23775816.964    -8956770.22843  -6939410.67342  23775818.879    23775816.522
  23091316.531   -11235636.86343  -8723502.03342  23091317.875    23091315.477
  21600278.731   -22260024.90243 -17166356.63042  21600278.932    21600275.282
  22919728.012   -13196738.74743 -10245827.24342  22919729.350    22919725.066
  24225857.427    -6148710.75543  -4785973.98542  24225858.778    24225857.916
 04  7 20  1 25  0.0000000  0  9G13G10G23G27G28G 3G 8G19G 1
  20574441.828   -22705567.53644 -17232127.88542  20574443.946    20574438.704
  23455171.861    -7815711.23743  -6060155.83842  23455172.885    23455170.578
  23290695.216   -12052234.49043  -9381596.57142  23290696.692    23290692.581
  20864246.804   -25687883.17644 -19972840.68342  20864248.138    20864244.115
  23757161.137    -9054805.91243  -7015801.94042  23757163.076    23757160.896
  23095573.902   -11213263.85943  -8706068.51842  23095575.365    23095572.747
  21588954.889   -22319531.76643 -17212725.59242  21588955.081    21588951.568
  22909793.023   -13248947.09043 -10286509.01742  22909794.297    22909790.089
  24244874.721    -6048775.63043  -4708102.60542  24244876.134    24244875.204
 04  7 20  1 25 30.0000000  0  9G13G10G23G27G28G 3G 8G19G 1
  20582431.464   -22663581.84844 -17199411.79542  20582433.547    20582428.380
  23447047.470    -7858405.37243  -6093423.96542  23447048.637    23447045.946
  23309684.740   -11952444.13543  -9303837.94442  23309686.165    23309682.146
  20860609.886   -25706995.37344 -19987733.30042  20860611.215    20860607.100
  23738539.955    -9152659.62843  -7092051.43642  23738541.842    23738539.799
  23099939.380   -11190323.36043  -8688192.82342  23099940.761    23099937.996
  21577668.084   -22378844.00443 -17258942.90242  21577668.221    21577664.893
  22899938.993   -13300730.70143 -10326859.84942  22899940.257    22899935.941
  24263923.434    -5948675.41043  -4630102.54842  24263924.770    24263924.037
 04  7 20  1 26  0.0000000  0  9G13G10G23G27G28G 3G 8G19G 1
  20590510.808   -22621124.68744 -17166328.31542  20590512.892    20590507.797
  23439026.514    -7900555.87243  -6126268.48642  23439027.724    23439024.961
  23328716.182   -11852433.99643  -9225908.05942  23328717.596    23328713.541
  20857008.262   -25725922.27744 -20002481.53042  20857009.544    20857005.375
  23719954.256    -9250328.56243  -7168156.94842  23719955.999    23719953.813
  23104412.930   -11166814.55043  -8669874.27942  23104414.306    23104411.573
  21566418.514   -22437960.56043 -17305007.72742  21566418.658    21566415.382
  22890166.388   -13352085.87443 -10366876.81442  22890167.678    22890163.338
  24283003.178    -5848410.22643  -4551973.94742  24283004.362    24283004.109
 04  7 20  1 26 30.0000000  0  9G13G10G23G27G28G 3G 8G19G 1
  20598678.923   -22578201.21444 -17132881.47442  20598680.954    20598675.967
  23431108.364    -7942166.32743  -6158692.18642  23431109.540    23431106.877
  23347788.266   -11752210.54343  -9147811.96642  23347789.698    23347785.573
  20853440.925   -25744668.70944 -20017089.13342  20853442.192    20853438.077
  23701402.758    -9347816.22843  -7244121.24142  23701404.566    23701402.285
  23108993.548   -11142743.21743  -8651117.41742  23108994.939    23108992.319
  21555205.433   -22496885.74543 -17350923.42942  21555205.601    21555202.216
  22880474.725   -13403015.40343 -10406562.10942  22880475.909    22880471.694
  24302113.000    -5747986.45843  -4473721.80142  24302114.000    24302114.133
 04  7 20  1 27  0.0000000  0  9G13G10G23G27G28G 3G 8G19G 1
  20606936.924   -22534805.21244 -17099066.42342  20606938.963    20606933.989
  23423294.253    -7983229.17143  -6190689.17642  23423295.378    23423292.786
  23366901.721   -11651769.19643  -9069546.08042  23366903.194    23366899.031
  20849909.138   -25763228.06944 -20031550.96742  20849910.406    20849906.334
  23682887.250    -9445114.55543  -7319938.01142  23682889.078    23682886.754
  23113682.384   -11118103.32443  -8631917.50442  23113683.699    23113681.083
  21544030.097   -22555613.01743 -17396684.90842  21544030.239    21544026.706
  22870865.710   -13453510.54543 -10445908.94842  22870866.878    22870862.795
  24321254.013    -5647399.30043  -4395342.33442  24321254.937    24321255.396
 04  7 20  1 27 30.0000000  0  9G13G10G23G27G28G 3G 8G19G 1
  20615284.081   -22490940.89644 -17064886.46642  20615286.110    20615281.101
  23415584.061    -8023746.87943  -6222261.40042  23415585.041    23415582.300
  23386055.768   -11551114.55443  -8991114.00242  23386057.246    23386052.898
  20846412.360   -25781603.68343 -20045869.63742  20846413.621    20846409.564
  23664407.427    -9542225.82143  -7395609.02742  23664409.318    23664406.894
  23118478.768   -11092898.96043  -8612277.75242  23118480.073    23118477.400
  21532891.665   -22614145.47943 -17442294.58942  21532891.868    21532888.145
  22861339.249   -13503572.67743 -10484918.35942  22861340.440    22861336.315
  24340425.389    -5546653.71143  -4316839.40542  24340426.326    24340426.797
 04  7 20  1 28  0.0000000  0  9G13G10G23G27G28G 3G 8G19G 1
  20623719.966   -22446610.20844 -17030343.10042  20623722.018    20623716.936
  23407977.548    -8063719.69143  -6253408.99242  23407978.541    23407975.684
  23405249.897   -11450250.15243  -8912518.48142  23405251.231    23405246.675
  20842950.307   -25799796.99643 -20060046.24442  20842951.580    20842947.560
  23645963.346    -9639149.92543  -7471134.20242  23645965.187    23645962.690
  23123381.854   -11067132.51843  -8592200.01642  23123383.275    23123380.742
  21521790.141   -22672483.95143 -17487753.11042  21521790.368    21521786.557
  22851895.477   -13553200.88743 -10523589.63642  22851896.646    22851892.327
  24359626.577    -5445752.81743  -4238215.46542  24359627.493    24359627.736
 04  7 20  1 28 30.0000000  0  9G13G10G23G27G28G 3G 8G19G 1
  20632245.186   -22401810.06244 -16995433.92542  20632247.261    20632242.100
  23400475.472    -8103142.88243  -6284128.35742  23400476.455    23400473.675
  23424484.245   -11349174.10643  -8833758.04742  23424485.525    23424480.785
  20839523.632   -25817804.18644 -20074077.79942  20839524.897    20839520.968
  23627555.848    -9735881.80943  -7546509.55942  23627557.707    23627555.077
  23128392.638   -11040800.84843  -8571681.85042  23128394.028    23128391.507
  21510726.295   -22730625.02943 -17533057.81342  21510726.466    21510722.584
  22842535.198   -13602389.43043 -10561918.30942  22842536.447    22842531.901
  24378857.739    -5344694.61643  -4159468.97642  24378858.624    24378858.902
 04  7 20  1 29  0.0000000  0  9G13G10G23G27G28G 3G 8G19G 1
  20640859.550   -22356541.09944 -16960159.43342  20640861.625    20640856.490
  23393078.085    -8142015.58143  -6314418.74342  23393079.111    23393076.452
  23443758.238   -11247888.35543  -8754834.20042  23443759.662    23443754.967
  20836132.371   -25835625.43144 -20087964.49342  20836133.637    20836129.622
  23609185.230    -9832420.35243  -7621734.27142  23609187.045    23609184.313
  23133510.536   -11013904.96643  -8550724.04142  23133512.079    23133509.634
  21499699.983   -22788568.32143 -17578208.40642  21499700.154    21499696.166
  22833258.918   -13651136.35343 -10599902.86742  22833260.130    22833255.473
  24398117.939    -5243480.87443  -4080601.26242  24398119.101    24398119.655
 04  7 20  1 29 30.0000000  0  9G13G10G23G27G28G 3G 8G19G 1
  20649562.827   -22310805.27444 -16924521.15742  20649564.867    20649559.713
  23385785.710    -8180337.78443  -6344280.17642  23385786.701    23385783.966
  23463071.591   -11146395.65943  -8675749.05342  23463073.147    23463068.520
  20832776.292   -25853261.51344 -20101706.88642  20832777.588    20832773.565
  23590851.283    -9928765.12343  -7696807.98042  23590853.154    23590850.483
  23138735.487   -10986446.81443  -8529328.09642  23138737.045    23138734.851
  21488711.145   -22846315.04643 -17623205.82842  21488711.288    21488707.312
  22824066.931   -13699440.35443 -10637542.28842  22824068.109    22824063.465
  24417407.149    -5142114.05543  -4001614.22242  24417408.523    24417409.291
 04  7 20  1 30  0.0000000  0  9G13G10G23G27G28G 3G 8G19G 1
  20658354.954   -22264602.08844 -16888518.69942  20658356.983    20658351.933
  23378598.169    -8218108.42043  -6373711.79942  23378599.144    23378596.268
  23482424.188   -11044697.36043  -8596503.72442  23482425.771    23482421.149
  20829455.639   -25870712.16744 -20115304.79842  20829456.870    20829452.852
  23572554.395   -10024914.45343  -7771729.41342  23572556.373    23572553.761
  23144067.570   -10958426.95743  -8507494.43342  23144069.005    23144066.884
  21477759.976   -22903864.39843 -17668049.45942  21477760.089    21477756.048
  22814959.608   -13747299.19743 -10674834.84542  22814960.895    22814956.191
  24436725.748    -5040595.60143  -3922509.07742  24436727.096    24436727.696
 04  7 20  1 30 30.0000000  0  9G13G10G23G27G28G 3G 8G19G 1
  20667236.074   -22217931.94544 -16852152.38342  20667238.075    20667233.036
  23371515.786    -8255325.41843  -6402712.05042  23371516.697    23371514.151
  23501815.910   -10942794.38343  -8517098.91642  23501817.422    23501812.642
  20826170.364   -25887976.44244 -20128757.47042  20826171.615    20826167.525
  23554294.941   -10120866.07143  -7846496.77942  23554296.988    23554294.653
  23149506.730   -10929845.21843  -8485222.95642  23149508.146    23149505.455
  21466846.529   -22961215.01743 -17712738.22142  21466846.678    21466842.711
  22805937.652   -13794710.00943 -10711778.27542  22805938.983    22805934.153
  24456072.834    -4938926.31643  -3843286.36442  24456074.055    24456075.125
 04  7 20  1 31  0.0000000  0  9G13G10G23G27G28G 3G 8G19G 1
  20676205.675   -22170796.48444 -16815423.47842  20676207.707    20676202.655
  23364538.793    -8291989.08343  -6431281.11642  23364539.669    23364537.375
  23521245.963   -10840689.85643  -8437537.04942  23521247.518    23521242.530
  20822920.335   -25905055.41644 -20142065.76042  20822921.597    20822917.407
  23536073.436   -10216620.02143  -7921110.14942  23536075.336    23536073.214
  23155052.207   -10900703.70143  -8462515.28642  23155053.713    23155050.765
  21455970.532   -23018368.29243 -17757273.21142  21455970.713    21455966.837
  22797000.975   -13841671.73843 -10748371.79142  22797002.348    22796997.560
  24475448.117    -4837109.04443  -3763948.36342  24475449.173    24475450.442
 04  7 20  1 31 30.0000000  0  9G13G10G23G27G28G 3G 8G19G 1
  20685264.145   -22123194.32444 -16778330.91542  20685266.182    20685261.093
  23357667.889    -8328096.50243  -6459416.73142  23357668.808    23357666.404
  23540714.396   -10738383.55143  -8357817.98142  23540715.912    23540710.772
  20819705.964   -25921947.07844 -20155228.09042  20819707.234    20819703.089
  23517890.147   -10312172.95243  -7995566.87142  23517891.995    23517890.045
  23160704.458   -10871001.60043  -8439370.79542  23160705.808    23160702.874
  21445132.624   -23075321.64043 -17801652.43142  21445132.775    21445128.994
  22788150.655   -13888180.49243 -10784612.34542  22788151.954    22788147.237
  24494851.913    -4735143.53343  -3684494.86042  24494852.856    24494853.835
 04  7 20  1 32  0.0000000  0  9G13G10G23G27G28G 3G 8G19G 1
  20694410.909   -22075127.83244 -16740876.53542  20694412.987    20694407.855
  23350902.501    -8363648.58543  -6487119.60642  23350903.318    23350901.186
  23560220.359   -10635878.93843  -8277944.37142  23560221.912    23560216.916
  20816526.916   -25938652.97844 -20168245.67742  20816528.221    20816524.059
  23499745.308   -10407525.15343  -8069867.19942  23499747.061    23499745.000
  23166463.038   -10840741.41343  -8415791.44442  23166464.289    23166461.332
  21434332.574   -23132076.36843 -17845876.88542  21434332.718    21434328.999
  22779386.612   -13934235.85843 -10820499.61242  22779387.896    22779383.300
  24514282.818    -4633033.02143  -3604928.34242  24514283.830    24514284.666
 04  7 20  1 32 30.0000000  0  9G13G10G23G27G28G 3G 8G19G 1
  20703645.648   -22026598.99044 -16703061.87542  20703647.692    20703642.560
  23344242.650    -8398645.33443  -6514389.79842  23344243.602    23344241.471
  23579763.471   -10533178.97643  -8197918.54642  23579765.075    23579760.339
  20813383.024   -25955174.06144 -20181119.25842  20813384.335    20813380.222
  23481638.685   -10502676.37143  -8144010.90642  23481640.411    23481638.275
  23172327.052   -10809925.12543  -8391778.78642  23172328.338    23172325.494
  21423570.080   -23188633.69543 -17889947.50842  21423570.219    21423566.513
  22770709.084   -13979836.67843 -10856032.68042  22770710.395    22770705.807
  24533741.079    -4530780.47143  -3525251.17642  24533741.859    24533742.466
 04  7 20  1 33  0.0000000  0  8G13G10G23G27G28G 3G 8G19
  20712972.391   -21977586.63244 -16664870.45542  20712974.426    20712969.303
  23337692.912    -8433064.39943  -6541209.82242  23337693.952    23337691.644
  23599347.680   -10430263.36543  -8117724.68342  23599349.228    23599344.899
  20810278.527   -25971488.49244 -20193831.80042  20810279.814    20810275.765
  23463574.610   -10597603.49643  -8217979.99442  23463576.335    23463574.006
  23178300.806   -10778531.96943  -8367316.61942  23178302.219    23178299.678
  21412849.304   -23244971.63243 -17933847.18342  21412849.428    21412845.678
  22762122.465   -14024959.41043 -10891193.21242  22762123.766    22762119.301
 04  7 20  1 33 30.0000000  0  8G13G10G23G27G28G 3G 8G19
  20722384.471   -21928126.00244 -16626329.72842  20722386.492    20722381.287
  23331246.827    -8466939.05843  -6567605.62942  23331247.887    23331245.429
  23618966.120   -10327168.62543  -8037391.24242  23618967.604    23618963.520
  20807206.780   -25987630.47543 -20206409.96642  20807208.068    20807204.017
  23445546.924   -10692339.67543  -8291800.29342  23445548.648    23445546.209
  23184377.329   -10746596.89643  -8342432.17442  23184379.108    23184376.715
  21402163.791   -23301124.07743 -17977602.30642  21402163.942    21402160.099
  22753620.512   -14069636.39843 -10926006.43742  22753621.855    22753617.565
 04  7 20  1 34  0.0000000  0  8G13G10G23G27G28G 3G 8G19
  20731884.102   -21878205.04044 -16587430.30742  20731886.165    20731880.960
  23324906.647    -8500256.21543  -6593567.03642  23324907.720    23324905.304
  23638620.590   -10223883.96043  -7956909.78342  23638622.088    23638618.160
  20804170.218   -26003587.36243 -20218843.91042  20804171.531    20804167.410
  23427558.306   -10786871.22543  -8365461.14442  23427559.971    23427557.432
  23190560.032   -10714108.75443  -8317116.77942  23190561.404    23190559.324
  21391515.955   -23357078.47543 -18021203.10742  21391516.096    21391512.290
  22745206.281   -14113853.12643 -10960461.01542  22745207.575    22745203.393
 04  7 20  1 34 30.0000000  0  8G13G10G23G27G28G 3G 8G19
  20741471.723   -21827822.07944 -16548170.88242  20741473.781    20741468.583
  23318673.386    -8533012.78843  -6619091.61942  23318674.338    23318671.939
  23658311.272   -10120408.98543  -7876280.02342  23658312.749    23658308.903
  20801169.407   -26019356.81443 -20231131.80042  20801170.675    20801166.594
  23409609.157   -10881194.33343  -8438959.56142  23409610.883    23409608.533
  23196848.409   -10681066.43543  -8291369.53442  23196849.466    23196847.170
  21380906.522   -23412831.58843 -18064647.08242  21380906.642    21380902.747
  22736880.522   -14157605.27843 -10994553.56742  22736881.785    22736877.518
 04  7 20  1 35  0.0000000  0  8G13G10G23G27G28G 3G 8G19
  20751147.621   -21776974.40544 -16508549.33342  20751149.760    20751144.621
  23312547.547    -8565204.08443  -6644175.71242  23312548.595    23312546.080
  23678038.873   -10016741.34543  -7795500.14942  23678040.355    23678036.116
  20798205.020   -26034934.61144 -20243270.34542  20798206.305    20798202.259
  23391700.583   -10975303.73443  -8512291.47542  23391702.360    23391700.141
  23203243.814    -7496627.08253  -5809988.16452  23203243.493    23203240.480
  21370335.979   -23468379.90943 -18107931.47642  21370336.112    21370332.316
  22728644.258   -14200887.01143 -11028279.56442  22728645.505    22728641.186
 04  7 20  1 35 30.0000000  0  7G13G10G23G27G28G 8G19
  20760912.487   -21725660.18844 -16468564.25642  20760914.582    20760909.453
  23306529.925    -8596826.84043  -6668816.79242  23306530.918    23306528.448
  23697803.019    -9912880.70143  -7714569.89642  23697804.605    23697800.094
  20795277.661   -26050318.30544 -20255257.64742  20795278.896    20795274.824
  23373833.420   -11069195.78343  -8585454.00442  23373835.223    23373832.965
  21359804.912   -23523720.69543 -18151054.16442  21359805.049    21359801.343
  22720498.413   -14243693.95443 -11061635.58242  22720499.600    22720495.284
 04  7 20  1 36  0.0000000  0  7G13G10G23G27G28G 8G19
  20770763.517   -21673892.81644 -16428226.07042  20770765.595    20770760.472
  23300618.184    -8627892.57243  -6693023.83942  23300619.246    23300616.857
  23717601.247    -9808840.84643  -7633499.97342  23717602.812    23717598.310
  20792384.902   -26065519.81844 -20267102.98842  20792386.132    20792382.079
  23356005.672   -11162881.33943  -8658455.62042  23356007.486    23356005.141
  21349311.231   -23578865.51543 -18194024.14642  21349311.337    21349307.600
  22712440.906   -14286036.34343 -11094629.57842  22712442.137    22712437.660
 04  7 20  1 36 30.0000000  0  7G13G10G23G27G28G 8G19
  20780702.224   -21621664.70644 -16387528.85942  20780704.276    20780699.171
  23294814.050    -8658393.36443  -6716790.66242  23294815.168    23294812.778
  23737434.380    -9704616.60143  -7552286.43142  23737436.052    23737431.590
  20789528.234   -26080531.94844 -20278800.75642  20789529.442    20789525.373
  23338218.965   -11256351.98443  -8731289.77742  23338220.718    23338218.041
  21338856.215   -23633807.08043 -18236835.73342  21338856.319    21338852.483
  22704473.574   -14327904.97943 -11127254.43642  22704474.844    22704470.103
 04  7 20  1 37  0.0000000  0  7G13G10G23G27G28G 8G19
  20790728.385   -21568976.67144 -16346473.26842  20790730.438    20790725.388
  23289117.802    -8688328.08243  -6740116.38542  23289118.853    23289116.407
  23757302.446    -9600209.20043  -7470930.12342  23757304.144    23757299.757
  20786707.707   -26095353.99544 -20290350.40842  20786708.938    20786704.818
  23320473.324   -11349605.77943  -8803954.96942  23320475.172    23320472.130
  21328439.983   -23688544.58643 -18279488.30942  21328440.088    21328436.203
  22696596.730   -14369297.73943 -11159508.49642  22696598.056    22696593.283
 04  7 20  1 37 30.0000000  0  7G13G10G23G27G28G 8G19
  20800841.987   -21515829.37544 -16305059.81642  20800844.036    20800839.019
  23283529.434    -8717695.58343  -6763000.12842  23283530.480    23283527.929
  23777205.201    -9495620.03843  -7389432.18942  23777206.812    23777202.625
  20783923.467   -26109985.26644 -20301751.40442  20783924.723    20783920.632
  23302768.891   -11442641.36843  -8876450.12442  23302770.880    23302767.740
  21318062.781   -23743077.30543 -18321981.31342  21318062.864    21318058.983
  22688810.797   -14410212.32543 -11191389.96142  22688812.176    22688807.559
 04  7 20  1 38  0.0000000  0  7G13G10G23G27G28G 8G19
  20811043.240   -21462221.50744 -16263287.47442  20811045.305    20811040.210
  23278049.691    -8746492.88143  -6785439.55842  23278050.516    23278047.922
  23797142.658    -9390848.39643  -7307792.06942  23797144.163    23797140.202
  20781175.976   -26124423.17544 -20313001.72542  20781177.214    20781173.221
  23285106.769   -11535454.77743  -8948772.17042  23285108.773    23285105.656
  21307724.945   -23797402.76843 -18364312.83942  21307725.061    21307721.191
  22681116.766   -14450644.29343 -11222895.35942  22681118.118    22681113.640
 04  7 20  1 38 30.0000000  0  7G13G10G23G27G28G 8G19
  20821330.972   -21408159.20844 -16221161.03842  20821333.050    20821327.924
  23272677.186    -8774724.82643  -6807438.46842  23272678.104    23272675.621
  23817113.202    -9285901.92443  -7226015.69842  23817114.675    23817110.881
  20778464.266   -26138673.23344 -20324105.66542  20778465.522    20778461.525
  23267486.342   -11628050.54743  -9020924.62542  23267488.220    23267485.242
  21297425.690   -23851525.98743 -18406486.75042  21297425.790    21297421.939
  22673513.896   -14490597.38243 -11254027.61442  22673515.188    22673510.721
 04  7 20  1 39  0.0000000  0  8G13G10G23G27G28G 3G 8G19
  20831705.246   -21353641.94944 -16178680.07442  20831707.342    20831702.306
  23267412.745    -8802389.91043  -6828995.66542  23267413.624    23267411.059
  23837117.113    -9180781.22043  -7144103.57242  23837118.416    23837114.822
  20775788.607   -26152733.92844 -20335062.04342  20775789.885    20775785.848
  23249907.864   -11720425.98043  -9092905.38742  23249909.726    23249906.843
  23258167.157
  21287165.270   -23905445.26543 -18448501.75542  21287165.364    21287161.427
  22666002.866   -14530068.69843 -11284784.44342  22666004.100    22665999.558
 04  7 20  1 39 30.0000000  0  8G13G10G23G27G28G 3G 8G19
  20842166.539   -21298667.34444 -16135842.74442  20842168.618    20842163.627
  23262256.890    -8829484.01443  -6850107.95042  23262257.784    23262255.145
  23857154.538    -9075484.51943  -7062054.31442  23857155.798    23857152.273
  20773149.622   -26166601.80844 -20345868.18342  20773150.892    20773146.884
  23232372.157   -11812576.43743  -9164710.83242  23232374.012    23232371.377
  23265500.138    -1063544.98953   -854617.80252  23265501.017    23265496.103
  21276944.077   -23959157.16643 -18490355.16642  21276944.235    21276940.360
  22658584.467   -14569052.93043 -11315161.72842  22658585.722    22658581.129
 04  7 20  1 40  0.0000000  0  8G13G10G23G27G28G 3G 8G19
  20852714.307   -21243238.63244 -16092651.56342  20852716.325    20852711.375
  23257209.398    -8856008.69543  -6870776.52542  23257210.262    23257207.608
  23877224.734    -8970016.25143  -6979871.36742  23877226.032    23877222.166
  20770546.934   -26180278.86743 -20356525.62342  20770548.224    20770544.225
  23214879.072   -11904503.19343  -9236341.96642  23214880.941    23214878.429
  23272937.673    -1024460.74543   -824162.66342  23272938.484    23272935.458
  21266762.145   -24012663.56043 -18532048.44742  21266762.283    21266758.403
  22651258.587   -14607550.59543 -11345159.87842  22651259.862    22651255.326
 04  7 20  1 40 30.0000000  0  8G13G10G23G27G28G 3G 8G19
  20863348.989   -21187353.10244 -16049104.42642  20863351.032    20863346.034
  23252271.137    -8881959.99143  -6890998.27942  23252271.990    23252269.233
  23897327.771    -8864374.54243  -6897553.26442  23897329.124    23897325.151
  20767981.323   -26193761.29943 -20367031.40442  20767982.576    20767978.586
  23197429.376   -11996201.39643  -9307794.97842  23197431.291    23197428.870
  23280478.542     -984831.18343   -793282.52942  23280480.053    23280477.331
  21256620.053   -24065960.63643 -18573578.60742  21256620.223    21256616.263
  22644026.384   -14645556.26543 -11374774.64842  22644027.664    22644023.099
 04  7 20  1 41  0.0000000  0  8G13G10G23G27G28G 3G 8G19
  20874070.820   -21131009.91044 -16005200.67042  20874072.852    20874067.778
  23247441.983    -8907335.58143  -6910771.47242  23247442.975    23247440.488
  23917463.954    -8758559.53943  -6815100.14242  23917465.218    23917461.151
  20765453.093   -26207047.06843 -20377383.94242  20765454.384    20765450.297
  23180023.666   -12087667.71243  -9379067.33642  23180025.554    23180023.265
  23288123.689     -944655.87443   -761977.10042  23288125.097    23288122.665
  21246518.159   -24119046.16943 -18614943.93642  21246518.332    21246514.427
  22636888.508   -14683066.40043 -11404003.28042  22636889.764    22636885.091
 04  7 20  1 41 30.0000000  0  8G13G10G23G27G28G 3G 8G19
  20884878.484   -21074215.91244 -15960945.64142  20884880.525    20884875.342
  23242721.877    -8932140.78643  -6930100.18142  23242722.710    23242720.314
  23937631.344    -8652578.73743  -6732517.80942  23937632.698    23937628.691
  20762961.207   -26220141.75243 -20387587.58642  20762962.507    20762958.440
  23162661.259   -12178906.85143  -9450162.66542  23162663.083    23162660.891
  23295871.192     -903942.10643   -730252.11342  23295872.552    23295870.058
  21236455.467   -24171925.64343 -18656148.71042  21236455.630    21236451.781
  22629844.027   -14720085.21643 -11432849.04842  22629845.325    22629840.566
 04  7 20  1 42  0.0000000  0  8G13G10G23G27G28G 3G 8G19
  20895771.473   -21016973.00044 -15916340.80442  20895773.522    20895768.274
  23238109.921    -8956376.26943  -6948984.93542  23238110.941    23238108.548
  23957829.460    -8546435.36143  -6649808.81842  23957830.947    23957827.274
  20760505.501   -26233046.38043 -20397643.13442  20760506.792    20760502.836
  23145342.250   -12269918.78843  -9521080.94942  23145344.031    23145341.696
  23303720.633     -862692.29143   -698109.44842  23303722.141    23303719.524
  21226431.824   -24224599.96743 -18697193.62542  21226431.933    21226428.100
  22622893.152   -14756612.03543 -11461311.44942  22622894.441    22622889.692
 04  7 20  1 42 30.0000000  0  8G13G10G23G27G28G 3G 8G19
  20906750.704   -20959276.29543 -15871382.36442  20906752.768    20906747.614
  23233607.501    -8980035.82643  -6967420.95342  23233608.463    23233606.268
  23978059.826    -8440125.21143  -6566969.86442  23978061.252    23978057.611
  20758087.192   -26245754.75944 -20407545.76142  20758088.474    20758084.572
  23128067.956   -12360696.37843  -9591816.62142  23128069.702    23128067.125
  23311673.164     -820901.78143   -665545.44842  23311674.556    23311672.033
  21216448.495   -24277062.59143 -18738073.57242  21216448.643    21216444.677
  22616037.292   -14792639.27443 -11489384.55842  22616038.614    22616033.875
 04  7 20  1 43  0.0000000  0  8G13G10G23G27G28G 3G 8G19
  20917815.765   -20901128.94944 -15826072.77142  20917817.808    20917812.757
  23229214.606    -9003120.72343  -6985409.19642  23229215.604    23229213.267
  23998320.999    -8333651.99743  -6484003.81742  23998322.610    23998318.935
  20755705.983   -26258268.40444 -20417296.64542  20755707.266    20755703.340
  23110838.002   -12451240.29943  -9662370.24242  23110839.757    23110837.017
  23319727.941     -778573.82143   -632562.66042  23319729.277    23319726.652
  21206505.303   -24329315.00644 -18778789.71842  21206505.435    21206501.338
  22609276.552   -14828167.13943 -11517068.55242  22609277.860    22609273.074
 04  7 20  1 43 30.0000000  0  8G13G10G23G27G28G 3G 8G19
  20928966.708   -20842530.41844 -15780411.60642  20928968.701    20928963.716
  23224931.424    -9025629.79743  -7002948.71342  23224932.331    23224929.844
  24018613.307    -8227016.74443  -6400911.53042  24018614.795    24018611.315
  20753361.980   -26270586.31344 -20426895.01542  20753363.231    20753359.310
  23093652.814   -12541548.23143  -9732739.96142  23093654.631    23093651.782
  23327884.883     -735708.61543   -599161.23942  23327886.274    23327883.615
  21196602.138   -24381356.10543 -18819341.20642  21196602.308    21196598.231
  22602611.229   -14863192.87243 -11544361.29942  22602612.531    22602607.876
 04  7 20  1 44  0.0000000  0  8G13G10G23G27G28G 3G 8G19
  20940202.361   -20783486.84743 -15734403.66142  20940204.342    20940199.385
  23220756.621    -9047567.59143  -7020043.07542  23220757.581    23220755.056
  24038935.158    -8120226.32643  -6317698.32442  24038936.558    24038933.096
  20751054.341   -26282713.05444 -20436344.41242  20751055.612    20751051.623
  23076512.079   -12631624.14243  -9802928.87542  23076513.763    23076510.732
  23336142.805     -692312.95043   -565346.45742  23336144.187    23336141.635
  21186738.377   -24433190.71443 -18859731.79742  21186738.514    21186734.506
  22596040.904   -14897719.83443 -11571265.40442  22596042.148    22596037.553
 04  7 20  1 44 30.0000000  0  8G13G10G23G27G28G 3G 8G19
  20951524.231   -20723990.07544 -15688042.57542  20951526.266    20951521.296
  23216692.423    -9068924.60243  -7036684.90742  23216693.365    23216690.759
  24059287.670    -8013273.30843  -6234358.44242  24059289.059    24059285.441
  20748784.912   -26294639.12244 -20445637.44442  20748786.186    20748782.183
  23059417.161   -12721457.46543  -9872928.76542  23059418.933    23059416.064
  23344503.055     -648378.74543   -531112.04942  23344504.521    23344502.218
  21176915.795   -24484808.95743 -18899953.79842  21176915.893    21176911.919
  22589567.528   -14931737.24743 -11597772.46142  22589568.784    22589564.199
 04  7 20  1 45  0.0000000  0  8G13G10G23G27G28G 3G 8G19
  20962930.840   -20664048.16644 -15641334.63742  20962932.881    20962927.837
  23212737.822    -9089707.08643  -7052879.04942  23212738.775    23212736.096
  24079669.459    -7906166.23743  -6150898.50742  24079670.696    24079666.983
  20746552.373   -26306371.19444 -20454779.31642  20746553.643    20746549.617
  23042367.225   -12811053.89043  -9942744.07342  23042368.991    23042366.409
  23352964.449     -603914.42443   -496464.55442  23352965.760    23352963.505
  21167133.024   -24536217.28043 -18940012.21542  21167133.140    21167129.317
  22583190.270   -14965250.28543 -11623886.49242  22583191.464    22583186.765
 04  7 20  1 45 30.0000000  0  8G13G10G23G27G28G 3G 8G19
  20974421.756   -20603663.36244 -15594281.57342  20974423.772    20974418.708
  23208892.125    -9109916.30243  -7068626.47242  23208893.148    23208890.608
  24100079.763    -7798908.57043  -6067321.21542  24100080.661    24100077.432
  20744356.526   -26317910.36944 -20463770.87942  20744357.795    20744353.742
  23025362.550   -12900413.52543 -10012374.85242  23025364.288    23025361.797
  23361526.254     -558922.93743   -461406.27942  23361527.447    23361525.105
  21157390.124   -24587416.68544 -18979907.83542  21157390.231    21157386.379
  22576908.937   -14998258.69243 -11649607.28342  22576910.154    22576905.423
 04  7 20  1 46  0.0000000  0  8G13G10G23G27G28G 3G 8G19
  20985997.712   -20542831.05143 -15546879.81342  20985999.707    20985994.793
  23205156.698    -9129546.22543  -7083922.51742  23205157.614    23205155.193
  24120519.375    -7691496.52943  -5983623.64242  24120520.199    24120517.567
  20742198.585   -26329250.61844 -20472607.44142  20742199.864    20742195.775
  23008404.403   -12989529.58743 -10081815.84342  23008406.045    23008403.558
  23370188.911     -513399.99743   -425933.90742  23370190.198    23370187.913
  21147688.130   -24638401.10844 -19019635.93342  21147688.196    21147684.383
  22570725.100   -15030755.16043 -11674929.19142  22570726.314    22570721.571
 04  7 20  1 46 30.0000000  0  8G13G10G23G27G28G 3G 8G19
  20997658.420   -20481553.74443 -15499131.29642  20997660.377    20997655.490
  23201531.180    -9148597.86543  -7098767.93142  23201532.151    23201529.787
  24140987.762    -7583933.07543  -5899808.06342  24140988.724    24140986.427
  20740078.281   -26340393.03444 -20481289.84742  20740079.540    20740075.438
  22991492.512   -13078402.20343 -10151067.12542  22991494.118    22991491.635
  23378952.317     -467348.39143   -390049.54342  23378953.506    23378951.370
  21138026.817   -24689171.26144 -19059197.08142  21138026.940    21138023.091
  22564638.752   -15062739.36743 -11699851.90742  22564639.882    22564635.148
 04  7 20  1 47  0.0000000  0  8G13G10G23G27G28G 3G 8G19
  21009403.074   -20419835.34143 -15451039.07142  21009405.023    21009400.173
  23198015.400    -9167074.14943  -7113165.00942  23198016.268    23198013.863
  24161484.247    -7476223.40243  -5815878.54142  24161485.470    24161483.106
  20737995.054   -26351340.39344 -20489820.25742  20737996.313    20737992.211
  22974626.582   -13167033.42143 -10220130.31142  22974628.163    22974625.470
  23387815.307     -420772.92243   -353756.98442  23387816.514    23387814.458
  21128405.731   -24739730.34143 -19098593.75842  21128405.813    21128401.884
  22558649.382   -15094213.13543 -11724376.88742  22558650.620    22558645.877
 04  7 20  1 47 30.0000000  0  8G13G10G23G27G28G 3G 8G19
  21021233.270   -20357667.39643 -15402596.55242  21021235.194    21021230.461
  23194610.889    -9184965.12443  -7127106.02742  23194611.757    23194609.292
  24182010.678    -7368359.35843  -5731828.76142  24182011.794    24182008.941
  20735950.896   -26362082.47444 -20498190.71842  20735952.142    20735948.072
  22957808.755   -13255411.95543 -10288996.59542  22957810.390    22957807.377
  23396779.674     -373665.21243   -317049.69742  23396780.974    23396778.819
  21118826.779   -24790067.88743 -19137817.82042  21118826.877    21118822.878
  22552759.268   -15125164.83843 -11748495.07242  22552760.616    22552755.915
 04  7 20  1 48  0.0000000  0  8G13G10G23G27G28G 3G 8G19
  21033145.895   -20295066.37244 -15353816.55742  21033147.863    21033143.138
  23191314.729    -9202285.99343  -7140602.81642  23191315.635    23191313.041
  24202562.899    -7260358.42743  -5647672.33042  24202564.087    24202560.776
  20733942.906   -26372634.42144 -20506413.01442  20733944.163    20733940.097
  22941036.134   -13343552.06143 -10357677.09942  22941037.929    22941034.613
  23405842.264     -326042.02743   -279940.73442  23405843.431    23405841.152
  21109287.130   -24840198.88643 -19176880.91742  21109287.239    21109283.306
  22546965.912   -15155608.57643 -11772217.45342  22546967.289    22546962.572
 04  7 20  1 48 30.0000000  0  8G13G10G23G27G28G 3G 8G19
  21045143.618   -20232018.42344 -15304688.32742  21045145.605    21045140.803
  23188129.922    -9219021.58943  -7153643.54142  23188130.917    23188128.105
  24223143.516    -7152207.50543  -5563399.00042  24223144.718    24223141.441
  20731974.026   -26382981.12844 -20514475.39242  20731975.254    20731971.205
  22924311.770   -13431437.80043 -10426159.41242  22924313.618    22924310.207
  23415005.045     -277890.04743   -242419.70242  23415006.406    23415004.209
  21099789.806   -24890107.65544 -19215770.85342  21099789.913    21099785.952
  22541272.599   -15185527.98943 -11795531.26542  22541273.879    22541269.117
 04  7 20  1 49  0.0000000  0  8G13G10G23G27G28G 3G 8G19
  21057223.728   -20168537.50844 -15255222.71542  21057225.724    21057220.775
  23185054.406    -9235184.70943  -7166238.15742  23185055.287    23185052.293
  24243749.840    -7043921.42543  -5479020.35442  24243751.255    24243747.744
  20730041.711   -26393135.10743 -20522387.58442  20730042.991    20730038.958
  22907633.702   -13519081.03643 -10494452.75042  22907635.414    22907632.050
  23424266.051     -229223.84643   -204497.99142  23424267.469    23424265.154
  21090332.307   -24939807.16144 -19254497.74042  21090332.409    21090328.385
  22535676.744   -15214934.39943 -11818445.32542  22535678.115    22535673.229
 04  7 20  1 49 30.0000000  0  8G13G10G23G27G28G 3G 8G19
  21069387.985   -20104613.70843 -15205411.99442  21069389.999    21069385.073
  23182089.559    -9250764.28643  -7178378.08142  23182090.475    23182087.669
  24264383.538    -6935490.86143  -5394529.14642  24264384.944    24264381.263
  20728148.306   -26403084.87744 -20530140.65742  20728149.545    20728145.587
  22891004.176   -13606469.40743 -10562547.49942  22891005.880    22891002.647
  23433626.044     -180034.10743   -166168.34042  23433627.759    23433625.585
  21080916.759   -24989286.00644 -19293052.67042  21080916.855    21080912.975
  22530180.748   -15243815.19843 -11840949.83542  22530182.160    22530177.349
 04  7 20  1 50  0.0000000  0  8G13G10G23G27G28G 3G 8G19
  21081635.824   -20040250.57843 -15155258.93142  21081637.846    21081633.001
  23179235.187    -9265762.10843  -7190064.69142  23179236.176    23179233.791
  24285044.145    -6826919.91743  -5309928.51742  24285045.425    24285041.510
  20726293.509   -26412832.21844 -20537735.99542  20726294.733    20726290.716
  22874422.863   -13693603.85243 -10630444.39242  22874424.606    22874421.566
  23443085.497     -130324.56843   -127433.65542  23443087.137    23443085.063
  21071543.034   -25038545.58144 -19331436.74642  21071543.099    21071539.212
  22524784.778   -15272171.01843 -11863045.27142  22524786.086    22524781.413
 04  7 20  1 50 30.0000000  0  8G13G10G23G27G28G 3G 8G19
  21093966.430   -19975453.09243 -15104767.41542  21093968.430    21093963.592
  23176490.923    -9280182.15843  -7201301.08042  23176491.986    23176489.819
  24305730.307    -6718214.47943  -5225223.10742  24305731.597    24305727.492
  20724476.540   -26422380.78044 -20545176.43242  20724477.735    20724473.713
  22857889.186   -13780487.26743 -10698145.67242  22857890.923    22857888.238
  23452642.939      -80100.63943    -88298.16642  23452644.472    23452642.388
  21062210.183   -25087589.85344 -19369653.04342  21062210.262    21062206.301
  22519488.270   -15300004.68843 -11884733.82242  22519489.487    22519484.852
 04  7 20  1 51  0.0000000  0  8G13G10G23G27G28G 3G 8G19
  21106379.451   -19910222.31643 -15053938.27842  21106381.467    21106376.662
  23173857.158    -9294024.44943  -7212087.25742  23173858.054    23173855.802
  24326441.648    -6609376.59343  -5140414.49342  24326442.902    24326439.083
  20722697.335   -26431730.49744 -20552461.92742  20722698.567    20722694.515
  22841403.796   -13867118.68043 -10765650.58442  22841405.356    22841402.689
  23462297.846      -29364.35743    -48763.41442  23462299.209    23462297.158
  21052918.522   -25136417.89943 -19407700.86542  21052918.629    21052914.637
  22514291.320   -15327314.79643 -11906014.40742  22514292.589    22514287.929
 04  7 20  1 51 30.0000000  0  8G13G10G23G27G28G 3G 8G19
  21118875.103   -19844557.12043 -15002770.62342  21118877.178    21118872.395
  23171333.585    -9307286.58243  -7222421.37942  23171334.553    23171332.273
  24347178.256    -6500405.52243  -5055502.07642  24347179.452    24347176.039
  20720956.602   -26440878.25244 -20559590.05442  20720957.836    20720953.798
  22824967.133   -13953494.37543 -10832956.23342  22824968.571    22824965.743
  23472050.260       21885.30443     -8828.61042  23472051.619    23472049.665
  21043668.481   -25185026.93144 -19445578.02742  21043668.612    21043664.689
  22509194.837   -15354097.25343 -11926883.84242  22509196.076    22509191.336
 04  7 20  1 52  0.0000000  0  8G13G10G23G27G28G 3G 8G19
  21131453.806   -19778455.85343 -14951263.17442  21131455.861    21131451.165
  23168920.736    -9319965.85543  -7232301.34242  23168921.769    23168919.535
  24367940.050    -6391300.47843  -4970485.24342  24367941.202    24367938.207
  20719254.857   -26449821.04144 -20566558.46742  20719256.086    20719252.038
  22808579.743   -14039610.64043 -10900059.74242  22808581.173    22808578.078
  23481900.574       73649.36653     31507.01452  23481901.960    23481900.026
  21034460.768   -25233413.95344 -19483282.19642  21034460.854    21034456.929
  22504199.518   -15380348.05443 -11947338.98742  22504200.720    22504195.911
 04  7 20  1 52 30.0000000  0  8G13G10G23G27G28G 3G 8G19
  21144114.391   -19711923.94643 -14899420.15842  21144116.433    21144111.877
  23166618.152    -9332066.34743  -7241730.28042  23166619.108    23166616.776
  24388726.270    -6282067.32443  -4885368.59442  24388727.295    24388724.982
  20717591.357   -26458562.71644 -20573370.16542  20717592.606    20717588.540
  22792240.958   -14125470.24243 -10966963.26942  22792242.414    22792239.379
  23491847.733      125921.95143     72238.88742  23491849.071    23491847.158
  21025294.600   -25281582.43544 -19520816.07442  21025294.690    21025290.777
  22499304.704   -15406070.19843 -11967382.19742  22499305.920    22499301.110
 04  7 20  1 53  0.0000000  0  8G13G10G23G27G28G 3G 8G19
  21156856.422   -19644964.00243 -14847243.61342  21156858.451    21156853.940
  23164425.288    -9343589.47443  -7250709.32142  23164426.257    23164423.816
  24409536.305    -6172709.56043  -4800154.85742  24409537.593    24409535.133
  20715965.988   -26467104.05044 -20580025.75342  20715967.217    20715963.146
  22775951.199   -14211073.55043 -11033667.08342  22775952.627    22775949.539
  23501891.457      178700.17043    113364.76342  23501892.793    23501890.596
  21016169.819   -25329533.58144 -19558180.59042  21016169.878    21016165.961
  22494510.513   -15431263.63143 -11987013.41842  22494511.769    22494506.958
 04  7 20  1 53 30.0000000  0  8G13G10G23G27G28G 3G 8G19
  21169680.783   -19577571.90543 -14794730.32242  21169682.800    21169678.141
  23162343.237    -9354529.75643  -7259234.20142  23162344.151    23162341.897
  24430370.648    -6063223.38743  -4714841.05942  24430372.144    24430369.771
  20714379.762   -26475439.41444 -20586520.84642  20714381.003    20714377.031
  22759711.639   -14296414.13443 -11100166.15142  22759712.996    22759709.823
  23512031.613      231987.58243    154887.43942  23512033.384    23512030.928
  21007087.571   -25377260.97644 -19595370.74742  21007087.632    21007083.634
  22489818.188   -15455921.53843 -12006227.35142  22489819.503    22489814.642
 04  7 20  1 54  0.0000000  0  8G13G10G23G27G28G 3G 8G19
  21182586.953   -19509749.46243 -14741881.70442  21182589.017    21182584.246
  23160372.099    -9364887.99943  -7267305.55842  23160372.991    23160370.836
  24451229.039    -5953611.50543  -4629429.29742  24451230.609    24451228.345
  20712832.771   -26483569.08944 -20592855.66242  20712833.973    20712829.945
  22743522.007   -14381491.50643 -11166460.15042  22743523.448    22743520.141
  23522268.238      285781.68053    196804.88952  23522269.715    23522267.421
  20998047.862   -25424765.03944 -19632386.88542  20998047.958    20998043.772
  22485227.996   -15480043.50843 -12025023.68142  22485229.225    22485224.282
 04  7 20  1 54 30.0000000  0  8G13G10G23G27G28G 3G 8G19
  21195573.869   -19441502.90643 -14688702.60442  21195575.914    21195571.107
  23158511.090    -9374669.09543  -7274927.17842  23158511.997    23158509.559
  24472110.520    -5843880.67343  -4543924.86742  24472111.992    24472109.615
  20711324.103   -26491497.48044 -20599033.63842  20711325.305    20711321.213
  22727381.672   -14466309.10943 -11232551.73542  22727383.262    22727379.901
  23532600.628      340075.76653    239111.97952  23532601.694    23532599.298
  20989049.774   -25472050.41344 -19669232.61542  20989049.893    20989045.601
  22480738.968   -15503632.90443 -12043405.01742  22480740.211    22480735.312
 04  7 20  1 55  0.0000000  0  7G13G10G23G27G28G 8G19
  21208643.753   -19372820.06243 -14635183.54142  21208645.800    21208641.005
  23156762.077    -9383859.83643  -7282088.77242  23156763.035    23156760.607
  24493016.697    -5734019.19443  -4458318.66542  24493018.309    24493015.622
  20709856.338   -26499210.71244 -20605043.93942  20709857.547    20709853.459
  22711293.594   -14550852.76543 -11298429.85142  22711295.147    22711291.827
  20980095.962   -25519102.78844 -19705896.77842  20980096.066    20980091.912
  22476354.158   -15526674.99443 -12061359.87242  22476355.411    22476350.517
 04  7 20  1 55 30.0000000  0  7G13G10G23G27G28G 8G19
  21221793.141   -19303719.35543 -14581338.87842  21221795.186    21221790.433
  23155122.120    -9392477.65043  -7288803.94442  23155123.136    23155120.640
  24513943.871    -5624046.55943  -4372625.80042  24513945.530    24513942.535
  20708426.275   -26506725.59744 -20610899.69442  20708427.521    20708423.396
  22695254.567   -14635138.36543 -11364106.87942  22695256.167    22695252.896
  20971183.294   -25565939.11944 -19742392.60642  20971183.411    20971179.323
  22472070.455   -15549185.88343 -12078900.79542  22472071.736    22472066.766
 04  7 20  1 56  0.0000000  0  7G13G10G23G27G28G 8G19
  21235023.023   -19234195.68643 -14527164.61942  21235025.012    21235020.384
  23153592.464    -9400516.00143  -7295067.57542  23153593.436    23153590.929
  24534893.426    -5513957.95443  -4286842.59242  24534894.893    24534891.336
  20707035.309   -26514035.20944 -20616595.49542  20707036.552    20707032.458
  22679266.036   -14719158.49043 -11429577.05342  22679267.623    22679264.299
  20962313.065   -25612552.25944 -19778714.51742  20962313.215    20962309.152
  22467889.329   -15571157.92543 -12096021.83342  22467890.614    22467885.587
 04  7 20  1 56 30.0000000  0  7G13G10G23G27G28G 8G19
  21248332.647   -19164253.03643 -14472663.87142  21248334.591    21248330.165
  23152172.624    -9407977.76743  -7300881.93042  23152173.572    23152170.986
  24555863.808    -5403757.90943  -4200972.55342  24555865.267    24555861.315
  20705682.986   -26521141.78744 -20622133.09042  20705684.253    20705680.180
  22663327.553   -14802914.72443 -11494841.59942  22663329.138    22663325.838
  20953484.889   -25658944.59444 -19814864.37142  20953485.011    20953481.008
  22463810.459   -15592592.59143 -12112724.13642  22463811.778    22463806.672
 04  7 20  1 57  0.0000000  0  7G13G10G23G27G28G 8G19
  21261723.410   -19093884.59643 -14417831.35342  21261725.313    21261720.863
  23150863.953    -9414855.26143  -7306241.02542  23150864.874    23150862.248
  24576856.486    -5293440.30043  -4115010.90142  24576857.987    24576854.139
  20704370.883   -26528036.87244 -20627505.88542  20704372.157    20704368.062
  22647441.144   -14886397.96743 -11559893.42442  22647442.690    22647439.335
  20944700.311   -25705107.26444 -19850835.26242  20944700.454    20944696.534
  22459835.615   -15613480.54343 -12129000.44642  22459836.906    22459831.810
 04  7 20  1 57 30.0000000  0  7G13G10G23G27G28G 8G19
  21275194.104   -19023096.19543 -14362671.60142  21275196.022    21275191.435
  23149665.454    -9421153.12343  -7311148.46342  23149666.361    23149663.919
  24597870.713    -5183011.47843  -4028962.57342  24597872.142    24597868.228
  20703098.169   -26534724.70244 -20632717.18242  20703099.487    20703095.401
  22631606.042   -14969611.62743 -11624735.17442  22631607.612    22631604.201
  20935958.769   -25751044.42844 -19886630.42642  20935958.898    20935954.940
  22455964.138   -15633825.31143 -12144853.48742  22455965.379    22455960.335
 04  7 20  1 58  0.0000000  0  8G13G10G23G31G27G28G 8G19
  21288739.005   -18951917.65643 -14307207.84542  21288740.981    21288736.338
  23148571.737    -9426900.10843  -7315626.59442  23148572.588    23148570.270
  24618900.470    -5072501.71743  -3942851.21642  24618901.823    24618897.559
  24631377.360    -6115982.12153  -4757213.51452  24631380.043    24631381.670
  20701859.655   -26541233.11344 -20637788.67542  20701860.938    20701856.890
  22615817.021   -15052583.00443 -11689388.14242  22615818.609    22615815.310
  20927254.823   -25796783.79644 -19922271.47442  20927254.968    20927250.958
  22452190.842   -15653654.11543 -12160304.48442  22452192.111    22452187.066
 04  7 20  1 58 30.0000000  0  8G13G10G23G31G27G28G 8G19
  21302368.824   -18880292.52543 -14251396.08242  21302370.852    21302366.236
  23147593.823    -9432038.80443  -7319630.74942  23147594.662    23147592.461
  24639956.010    -4961855.34043  -3856633.39242  24639957.575    24639953.014
  24609470.111    -6231104.71343  -4846919.22042  24609472.421    24609474.286
  20700666.318   -26547504.03644 -20642675.11442  20700667.585    20700663.611
  22600085.230   -15135253.63943 -11753806.77342  22600086.795    22600083.707
  20918599.580   -25842267.30944 -19957713.15442  20918599.726    20918595.692
  22448526.975   -15672908.04743 -12175307.52942  22448528.246    22448523.242
 04  7 20  1 59  0.0000000  0  8G13G10G23G31G27G28G 8G19
  21316077.212   -18808254.66643 -14195262.72142  21316079.197    21316074.645
  23146725.489    -9436601.88243  -7323186.39942  23146726.239    23146724.135
  24661030.925    -4851106.79543  -3770335.96242  24661032.518    24661028.044
  24587551.969    -6346285.61543  -4936670.35642  24587554.035    24587555.902
  20699512.145   -26553569.21944 -20647401.23342  20699513.391    20699509.440
  22584404.770   -15217654.65643 -11818015.30342  22584406.315    22584403.399
  20909987.065   -25887526.55544 -19992980.09342  20909987.222    20909983.183
  22444966.461   -15691618.63343 -12189887.19342  22444967.705    22444962.737
 04  7 20  1 59 30.0000000  0  7G13G10G31G27G28G 8G19
  21329865.182   -18735798.34343 -14138803.27742  21329867.204    21329862.632
  23145967.861    -9440582.67643  -7326288.33042  23145968.733    23145966.539
  24565624.370    -6461515.21843  -5026459.42042  24565626.329    24565628.241
  20698398.557   -26559421.26744 -20651961.27242  20698399.793    20698395.868
  22568777.324   -15299777.94743 -11882007.40642  22568778.842    22568775.877
  20901418.558   -25932554.39744 -20028066.70442  20901418.704    20901414.708
  22441510.888   -15709777.56043 -12204036.99742  22441512.135    22441507.220
 04  7 20  2  0  0.0000000  0  7G13G10G31G27G28G 8G19
  21343731.300   -18662931.74543 -14082024.14742  21343733.319    21343728.704
  23145319.915    -9443988.27543  -7328942.05342  23145320.775    23145318.427
  24543686.598    -6576797.41143  -5116289.50742  24543688.492    24543690.388
  20697324.307   -26565066.40544 -20656360.07742  20697325.532    20697321.629
  22553201.548   -15381629.04843 -11945787.40942  22553203.085    22553199.950
  20892892.993   -25977356.66844 -20062977.52942  20892893.109    20892889.062
  22438159.303   -15727390.47043 -12217761.31742  22438160.519    22438155.598
 04  7 20  2  0 30.0000000  0  7G13G10G31G27G28G 8G19
  21357676.494   -18589649.61643 -14024921.22142  21357678.531    21357673.933
  23144782.472    -9446812.46743  -7331142.71342  23144783.428    23144781.040
  24521740.645    -6692123.08543  -5206153.47842  24521742.502    24521744.644
  20696290.838   -26570497.48444 -20660592.08742  20696292.039    20696288.104
  22537678.759   -15463200.59143 -12009349.58242  22537680.322    22537677.062
  20884411.686   -26021926.12144 -20097706.96342  20884411.827    20884407.675
  22434912.989   -15744450.03943 -12231054.46142  22434914.186    22434909.202
 04  7 20  2  1  0.0000000  0  7G13G10G31G27G28G 8G19
  21371699.794   -18515956.53643 -13967498.07042  21371701.868    21371697.342
  23144355.066    -9449058.61943  -7332892.92442  23144356.019    23144353.508
  24499786.917    -6807492.91043  -5296051.85342  24499788.481    24499789.931
  20695297.494   -26575717.40044 -20664659.55042  20695298.693    20695294.793
  22522209.076   -15544494.73243 -12072695.59242  22522210.594    22522207.081
  20875974.142   -26066265.58344 -20132257.17442  20875974.288    20875970.149
  22431771.514   -15760958.23343 -12243917.97842  22431772.684    22431767.657
 04  7 20  2  1 30.0000000  0  7G13G10G31G27G28G 8G19
  21385800.650   -18441856.52243 -13909757.83142  21385802.649    21385798.077
  23144036.962    -9450729.85243  -7334195.16642  23144037.920    23144035.416
  24477824.422    -6922906.61943  -5385984.42142  24477826.016    24477826.787
  20694344.000   -26580728.03544 -20668563.94142  20694345.240    20694341.307
  22506791.915   -15625512.86543 -12135826.54742  22506793.480    22506789.793
  20867579.975   -26110377.26444 -20166629.90342  20867580.080    20867575.970
  22428734.696   -15776916.54943 -12256353.03342  22428735.813    22428730.890
 04  7 20  2  2  0.0000000  0  7G13G10G31G27G28G 8G19
  21399980.031   -18367343.54443 -13851695.81342  21399982.035    21399977.380
  23143829.752    -9451819.25743  -7335044.06542  23143830.618    23143828.085
  24455855.260    -7038354.19043  -5475943.33142  24455856.991    24455857.257
  20693431.857   -26585521.48844 -20672299.10242  20693433.073    20693429.138
  22491428.782   -15706246.64943 -12198735.91242  22491430.408    22491426.698
  20859230.691   -26154252.98744 -20200818.76442  20859230.771    20859226.722
  22425804.117   -15792316.72543 -12268353.14642  22425805.273    22425800.348
 04  7 20  2  2 30.0000000  0  7G13G10G31G27G28G 8G19
  21414235.743   -18292429.95343 -13793321.61942  21414237.715    21414233.038
  23143731.070    -9452338.15543  -7335448.42142  23143732.027    23143729.389
  24433877.949    -7153843.87243  -5565935.11442  24433879.849    24433879.574
  20692558.975   -26590108.29044 -20675873.23442  20692560.227    20692556.335
  22476117.851   -15786705.87443 -12261431.34242  22476119.480    22476115.659
  20850924.362   -26197902.92344 -20234831.69842  20850924.452    20850920.398
  22422978.005   -15807168.58843 -12279925.99142  22422979.115    22422974.143
 04  7 20  2  3  0.0000000  0  7G13G10G31G27G28G 8G19
  21428568.599   -18217109.95543 -13734630.74442  21428570.662    21428566.140
  23143742.398    -9452279.54443  -7335402.75442  23143743.331    23143740.507
  24411894.513    -7269365.39643  -5655951.69842  24411896.457    24411896.110
  20691726.994   -26594480.46544 -20679280.13042  20691728.236    20691724.319
  22460860.875   -15866882.01143 -12323906.16442  22460862.493    22460858.502
  20842662.399   -26241319.62244 -20268662.89642  20842662.454    20842658.485
  22420257.765   -15821463.88343 -12291065.13742  22420258.864    22420253.799
 04  7 20  2  3 30.0000000  0  7G13G10G31G27G28G 8G19
  21442978.724   -18141384.34943 -13675623.80842  21442980.782    21442976.249
  23143863.506    -9451643.54843  -7334907.16242  23143864.444    23143861.508
  24389905.678    -7384916.05743  -5745991.04242  24389907.641    24389907.200
  20690935.989   -26598637.27044 -20682519.20842  20690937.197    20690933.315
  22445657.742   -15946774.24343 -12386159.76842  22445659.454    22445655.526
  20834445.220   -26284501.25944 -20302310.92142  20834445.284    20834441.255
  22417643.420   -15835201.67343 -12301769.86742  22417644.615    22417639.587
 04  7 20  2  4  0.0000000  0  7G13G10G31G27G28G 8G19
  21457465.779   -18065254.58743 -13616301.95642  21457467.875    21457463.248
  23144094.080    -9450430.51443  -7333961.93642  23144094.996    23144092.368
  24367912.163    -7500492.39043  -5836050.32242  24367913.964    24367914.022
  20690186.190   -26602577.55144 -20685589.54942  20690187.400    20690183.498
  22430508.943   -16026380.81043 -12448190.78942  22430510.672    22430507.043
  20826272.939   -26327447.24044 -20335775.31642  20826272.997    20826268.889
  22415135.504   -15848380.25743 -12312038.85442  22415136.745    22415131.759
 04  7 20  2  4 30.0000000  0  7G13G10G31G27G28G 8G19
  21472028.708   -17988726.58843 -13556669.79442  21472030.771    21472026.081
  23144433.735    -9448645.71643  -7332571.19542  23144434.595    23144432.099
  24345913.402    -7616096.53643  -5926131.27942  24345915.137    24345915.333
  20689476.742   -26606305.77644 -20688494.66342  20689477.981    20689474.028
  22415413.754   -16105705.62843 -12510002.25442  22415415.474    22415412.086
  20818144.626   -26370161.66944 -20369059.28242  20818144.719    20818140.569
  22412733.276   -15861003.71143 -12321875.30642  22412734.531    22412729.419
 04  7 20  2  5  0.0000000  0  7G13G10G31G27G28G 8G19
  21486667.598   -17911798.37143 -13496725.76142  21486669.677    21486665.162
  23144882.878    -9446286.13943  -7330732.57242  23144883.706    23144881.148
  24323910.571    -7731722.26143  -6016229.06742  24323912.121    24323912.648
  20688808.506   -26609817.60444 -20691231.15142  20688809.735    20688805.757
  22400373.129   -16184743.80843 -12571590.35642  22400374.815    22400371.479
  20810061.186   -26412640.27344 -20402159.49842  20810061.289    20810057.183
  22410437.518   -15873067.57443 -12331275.69142  22410438.831    22410433.735
 04  7 20  2  5 30.0000000  0  7G13G10G31G27G28G 8G19
  21501382.166   -17834472.69643 -13436472.01042  21501384.196    21501379.798
  23145441.033    -9443353.55943  -7328447.45442  23145441.922    23145439.276
  24301903.782    -7847367.96343  -6106342.41442  24301905.262    24301906.053
  20688181.228   -26613113.74944 -20693799.58142  20688182.480    20688178.502
  22385386.879   -16263495.99143 -12632955.60242  22385388.552    22385385.255
  20802022.512   -26454883.87544 -20435076.59642  20802022.587    20802018.508
  22408248.378   -15884572.28843 -12340240.37542  22408249.560    22408244.445
 04  7 20  2  6  0.0000000  0  7G13G10G31G27G28G 8G19
  21516172.365   -17756750.30143 -13375909.14942  21516174.350    21516169.762
  23146108.047    -9439847.89043  -7325715.78042  23146108.844    23146106.297
  24279893.969    -7963030.16243  -6196468.62042  24279895.416    24279896.347
  20687595.322   -26616192.95344 -20696198.96742  20687596.576    20687592.598
  22370455.635   -16341960.37443 -12694096.57842  22370457.258    22370453.805
  20794028.809   -26496891.00144 -20467809.41842  20794028.910    20794024.870
  22406165.839   -15895516.26543 -12348768.14142  22406166.898    22406161.833
 04  7 20  2  6 30.0000000  0  7G13G10G31G27G28G 8G19
  21531038.347   -17678629.08243 -13315035.51642  21531040.351    21531035.604
  23146884.523    -9435766.49943  -7322535.48042  23146885.290    23146882.957
  24257882.289    -8078702.66643  -6286602.86742  24257883.801    24257884.673
  20687051.409   -26619051.17444 -20698426.15442  20687052.662    20687048.712
  22355580.008   -16420132.36143 -12755009.72742  22355581.660    22355578.051
  20786080.892   -26538657.56344 -20500354.79442  20786080.973    20786076.990
  22404190.807   -15905895.17643 -12356855.59042  22404191.920    22404186.869
 04  7 20  2  7  0.0000000  0  7G13G10G31G27G28G 8G19
  21545978.150   -17600119.83143 -13253859.51142  21545980.117    21545975.476
  23147769.104    -9431118.76243  -7318913.87042  23147769.786    23147767.436
  24235867.376    -8194391.68243  -6376749.99442  24235869.071    24235869.592
  20686547.935   -26621696.92544 -20700487.79142  20686549.197    20686545.214
  22340758.482   -16498020.09943 -12815701.39542  22340760.143    22340756.553
  20778177.146   -26580192.13244 -20532719.39442  20778177.197    20778173.213
  22402321.808   -15915717.54543 -12364509.36742  22402322.932    22402317.775
 04  7 20  2  7 30.0000000  0  7G13G10G31G27G28G 8G19
  21560993.134   -17521215.75943 -13192375.85342  21560995.115    21560990.487
  23148762.797    -9425896.99743  -7314844.94942  23148763.539    23148761.048
  24213851.488    -8310086.16543  -6466901.37642  24213853.274    24213853.355
  20686086.512   -26624121.34544 -20702376.95442  20686087.799    20686083.877
  22325992.778   -16575614.48143 -12876164.48342  22325994.423    22325990.785
  20770319.292   -26621485.44744 -20564896.00642  20770319.366    20770315.374
  22400560.284   -15924974.24443 -12371722.36942  22400561.437    22400556.296
 04  7 20  2  8  0.0000000  0  7G13G10G31G27G28G 8G19
  21576082.707   -17441919.94943 -13130586.95542  21576084.711    21576079.953
  23149865.211    -9420103.82843  -7310330.80142  23149865.906    23149863.417
  24191834.813    -8425785.00743  -6557056.15842  24191836.678    24191836.262
  20685667.094   -26626325.49544 -20704094.47742  20685668.343    20685664.420
  22311282.678   -16652916.12243 -12936399.45342  22311284.337    22311280.683
  20762507.081   -26662538.38544 -20596885.29842  20762507.164    20762503.302
  22398906.395   -15933666.11043 -12378495.24442  22398907.542    22398902.296
 04  7 20  2  8 30.0000000  0  7G13G10G31G27G28G 8G19
  21591245.887   -17362237.10643 -13068496.46242  21591247.911    21591243.101
  23151075.493    -9413742.78143  -7305374.14542  23151076.263    23151073.892
  24169817.197    -8541488.36843  -6647214.46442  24169818.978    24169818.244
  20685289.153   -26628311.81144 -20705642.25942  20685290.381    20685286.352
  22296627.960   -16729927.06943 -12996407.93242  22296629.564    22296625.904
  20754740.250   -26703353.32144 -20628689.14142  20754740.341    20754736.410
  22397359.295   -15941795.55043 -12384829.87342  22397360.631    22397355.263
 04  7 20  2  9  0.0000000  0  7G13G10G31G27G28G 8G19
  21606483.779   -17282161.99543 -13006100.31342  21606485.778    21606481.015
  23152394.965    -9406808.26743  -7299970.61042  23152395.751    23152393.496
  24147800.104    -8657187.08643  -6737369.17342  24147801.948    24147801.152
  20684953.947   -26630073.43444 -20707014.95542  20684955.200    20684951.149
  22282029.997   -16806640.16343 -13056184.31042  22282031.560    22282027.823
  20747020.067   -26743923.45144 -20660302.21642  20747020.170    20747016.157
  22395920.471   -15949355.57843 -12390720.78542  22395921.891    22395916.642
 04  7 20  2  9 30.0000000  0  7G13G10G31G27G28G 8G19
  21621794.381   -17201704.21143 -12943405.96542  21621796.457    21621791.776
  23153822.261    -9399308.64143  -7294126.74742  23153823.016    23153820.475
  24125783.317    -8772885.70743  -6827523.79642  24125785.010    24125784.191
  20684660.217   -26631617.01244 -20708217.75842  20684661.460    20684657.379
  22267487.389   -16883061.94443 -13115733.70442  22267489.036    22267485.266
  20739345.105   -26784255.72444 -20691729.94742  20739345.213    20739341.236
  22394588.885   -15956352.88543 -12396173.21442  22394590.278    22394585.114
 04  7 20  2 10  0.0000000  0  7G13G10G31G27G28G 8G19
  21637178.371   -17120860.46643 -12880410.87942  21637180.440    21637175.901
  23155357.821    -9391239.89343  -7287839.41542  23155358.676    23155355.688
  24103767.868    -8888576.80043  -6917672.51842  24103769.488    24103768.766
  20684408.974   -26632937.39544 -20709246.63542  20684410.215    20684406.185
  22253001.140   -16959186.48043 -13175051.47542  22253002.886    22252999.282
  20731716.546   -26824344.01744 -20722967.58342  20731716.655    20731712.619
  22393365.269   -15962782.04743 -12401182.93842  22393366.666    22393361.654
 04  7 20  2 10 30.0000000  0  7G13G10G31G27G28G 8G19
  21652635.288   -17039633.92243 -12817117.51042  21652637.347    21652632.736
  23157001.068    -9382604.76743  -7281110.76142  23157001.976    23156998.878
  24081754.111    -9004259.37443  -7007814.63342  24081755.784    24081755.052
  20684200.059   -26634035.60944 -20710102.38942  20684201.304    20684197.217
  22238571.223   -17035014.77843 -13234138.41942  22238573.012    22238569.585
  20724134.034   -26864190.09844 -20754016.47042  20724134.150    20724130.194
  22392249.615   -15968644.42243 -12405751.00642  22392250.911    22392246.043
 04  7 20  2 11  0.0000000  0  7G13G10G31G27G28G 8G19
  21668163.701   -16958032.21143 -12753531.81742  21668165.758    21668161.021
  23158750.683    -9373409.83443  -7273945.86642  23158751.654    23158748.823
  24059741.470    -9119936.15343  -7097952.19842  24059743.119    24059742.388
  20684032.336   -26634916.93144 -20710789.13042  20684033.616    20684029.506
  22224196.840   -17110551.78243 -13292998.36642  22224198.552    22224195.173
  20716596.758   -26903799.01244 -20784880.53842  20716596.867    20716592.896
  22391241.038   -15973945.10843 -12409881.39242  22391242.215    22391237.283
 04  7 20  2 11 30.0000000  0  7G13G10G31G27G28G 8G19
  21683765.235   -16876045.93243 -12689646.44442  21683767.288    21683762.520
  23160608.869    -9363645.03543  -7266336.93642  23160609.746    23160607.271
  24037732.306    -9235593.35843  -7188074.55042  24037734.038    24037733.185
  20683908.093   -26635569.81444 -20711297.86942  20683909.331    20683905.266
  22209880.357   -17185785.82443 -13351622.24442  22209881.926    22209878.409
  20709106.887   -26943158.53844 -20815550.28542  20709106.993    20709102.928
  22390341.434   -15978672.61943 -12413565.14042  22390342.628    22390337.542
 04  7 20  2 12  0.0000000  0  7G13G10G31G27G28G 8G19
  21699438.551   -16793681.53743 -12625466.43642  21699440.627    21699436.027
  23162574.470    -9353315.93543  -7258288.27542  23162575.356    23162572.959
  24015726.398    -9351233.16143  -7278183.34542  24015728.231    24015727.476
  20683826.454   -26635998.47744 -20711631.89642  20683827.698    20683823.747
  22195620.856   -17260720.59543 -13410012.92342  22195622.415    22195618.753
  20701663.487   -26982273.37144 -20846029.36142  20701663.638    20701659.557
  22389550.051   -15982831.39043 -12416805.72242  22389551.301    22389546.112
 04  7 20  2 12 30.0000000  0  7G13G10G31G27G28G 8G19
  21715182.846   -16710944.82543 -12560996.30742  21715184.827    21715180.345
  23164646.579    -9342427.72843  -7249803.94542  23164647.405    23164644.886
  23993724.043    -9466856.74943  -7368279.52942  23993725.626    23993724.656
  20683786.827   -26636206.58743 -20711794.06542  20683788.048    20683784.162
  22181417.646   -17335359.29543 -13468172.90242  22181419.192    22181415.496
  20694266.146   -27021146.84644 -20876320.35642  20694266.255    20694262.211
  22388866.226   -15986425.04543 -12419605.94542  22388867.472    22388862.222
 04  7 20  2 13  0.0000000  0  7G13G10G31G27G28G 8G19
  21730999.288   -16627828.42443 -12496230.32142  21731001.247    21730996.907
  23166826.333    -9330972.16643  -7240877.54342  23166827.205    23166824.582
  23971726.893    -9582452.13243  -7458353.69242  23971728.509    23971727.324
  20683791.024   -26636184.20444 -20711776.62642  20683792.239    20683788.426
  22167272.575   -17409692.14343 -13526094.55242  22167274.044    22167270.348
  20686916.515   -27059769.54144 -20906415.94342  20686916.594    20686912.500
  22388291.776   -15989443.80143 -12421958.19942  22388292.978    22388287.779
 04  7 20  2 13 30.0000000  0  7G13G10G31G27G28G 8G19
  21746886.342   -16544341.03043 -12431175.24542  21746888.277    21746884.047
  23169112.567    -9318957.49543  -7231515.48842  23169113.396    23169110.817
  23949734.146    -9698023.69343  -7548409.30742  23949735.870    23949734.498
  20683837.917   -26635938.03443 -20711584.81042  20683839.105    20683835.268
  22153184.440   -17483725.44243 -13583782.78242  22153185.926    22153182.089
  20679613.464   -27098147.34844 -20936320.72242  20679613.563    20679609.444
  22387825.429   -15991894.70243 -12423867.97242  22387826.595    22387821.353
 04  7 20  2 14  0.0000000  0  8G13G10G31G27G28G29G 8G19
  21762842.461   -16460491.30443 -12365837.83242  21762844.397    21762840.190
  23171503.781    -9306391.84343  -7221724.08942  23171504.550    23171502.000
  23927745.257    -9813575.66643  -7638449.67142  23927747.028    23927745.746
  20683926.079   -26635474.50444 -20711223.61342  20683927.286    20683923.458
  22139152.091   -17557465.52043 -13641242.52642  22139153.597    22139149.582
  24766770.843    -2625184.26853  -1999456.70352  24766773.032    24766770.392
  20672355.677   -27136286.87244 -20966039.81742  20672355.791    20672351.783
  22387465.797   -15993784.13743 -12425340.22942  22387467.058    22387461.787
 04  7 20  2 14 30.0000000  0  8G13G10G31G27G28G29G 8G19
  21778871.366   -16376259.16243 -12300202.43242  21778873.280    21778869.133
  23174003.874    -9293254.28443  -7211487.01042  23174004.607    23174002.049
  23905764.625    -9929082.93143  -7728455.16042  23905766.475    23905765.569
  20684060.036   -26634770.83044 -20710675.29642  20684061.221    20684057.301
  22125179.985   -17630889.49943 -13698455.95942  22125181.416    22125177.455
  24747497.786    -2726463.90943  -2078375.85042  24747499.893    24747497.356
  20665147.647   -27174165.21744 -20995555.39642  20665147.770    20665143.698
  22387217.402   -15995089.55643 -12426357.41542  22387218.596    22387213.445
 04  7 20  2 15  0.0000000  0  8G13G10G31G27G28G29G 8G19
  21794969.357   -16291663.02743 -12234283.40642  21794971.366    21794967.277
  23176609.281    -9279562.67843  -7200818.22942  23176610.106    23176607.524
  23883789.805   -10044559.80943  -7818436.96042  23883791.650    23883791.205
  20684236.464   -26633843.70643 -20709952.86542  20684237.671    20684233.684
  22111264.871   -17704013.40343 -13755435.58242  22111266.343    22111262.565
  24728239.133    -2827667.48743  -2157235.73542  24728241.152    24728238.899
  20657986.253   -27211798.91844 -21024880.34442  20657986.370    20657982.180
  22387076.783   -15995827.96043 -12426932.79142  22387078.042    22387072.914
 04  7 20  2 15 30.0000000  0  8G13G10G31G27G28G29G 8G19
  21811137.727   -16206697.65743 -12168076.66242  21811139.792    21811135.646
  23179321.236    -9265310.64943  -7189712.79542  23179322.175    23179319.583
  23861823.124   -10159995.86343  -7908386.97942  23861824.962    23861824.579
  20684456.933   -26632684.77243 -20709049.80342  20684458.189    20684454.248
  22097408.434   -17776829.03643 -13812174.99142  22097409.944    22097406.363
  24708996.893    -2928785.39943  -2236028.83442  24708998.789    24708996.856
  20650872.913   -27249179.66844 -21054008.19242  20650873.051    20650868.848
  22387045.777   -15995991.51743 -12427060.20842  22387046.973    22387041.748
 04  7 20  2 16  0.0000000  0  8G13G10G31G27G28G29G 8G19
  21827374.792   -16121371.66543 -12101588.91442  21827376.830    21827372.657
  23182138.364    -9250506.71743  -7178177.30542  23182139.315    23182136.762
  23839863.105   -10275395.83643  -7998308.88842  23839865.024    23839864.517
  20684720.313   -26631300.86544 -20707971.43842  20684721.542    20684717.594
  22083609.514   -17849342.96343 -13868679.28442  22083610.987    22083607.424
  24689770.044    -3029822.71543  -2314759.14442  24689772.046    24689770.220
  20643806.388   -27286314.40144 -21082944.34242  20643806.523    20643802.360
  22387122.720   -15995587.14543 -12426745.08842  22387123.903    22387118.650
 04  7 20  2 16 30.0000000  0  8G13G10G31G27G28G29G 8G19
  21843680.693   -16035683.80743 -12034819.19042  21843682.707    21843678.630
  23185060.943    -9235149.12143  -7166210.36442  23185061.791    23185059.295
  23817911.401   -10390752.71043  -8088197.20342  23817913.163    23817912.575
  20685027.222   -26629688.09843 -20706714.74642  20685028.455    20685024.517
  22069868.668   -17921551.31443 -13924945.47242  22069870.196    22069866.476
  24670559.555    -3130774.43543  -2393422.73542  24670561.574    24670559.738
  20636787.410   -27323198.99044 -21111685.57842  20636787.544    20636783.465
  22387308.437   -15994611.19443 -12425984.59742  22387309.593    22387304.302
 04  7 20  2 17  0.0000000  0  8G13G10G31G27G28G29G 8G19
  21860056.110   -15949631.02943 -11967765.11442  21860058.150    21860054.049
  23188089.379    -9219233.88843  -7153808.91342  23188090.257    23188087.912
  23795969.073   -10506059.60043  -8178046.58242  23795970.909    23795970.277
  20685378.645   -26627841.07443 -20705275.50442  20685379.910    20685376.015
  22056187.022   -17993448.35243 -13980969.08942  22056188.595    22056184.860
  24651366.963    -3231633.26743  -2472013.95242  24651368.877    24651366.828
  20629817.199   -27359827.80144 -21140227.50442  20629817.312    20629813.206
  22387603.886   -15993058.68543 -12424774.84742  22387604.975    22387599.743
 04  7 20  2 17 30.0000000  0  8G13G10G31G27G28G29G 8G19
  21876499.255   -15863222.14343 -11900433.56142  21876501.348    21876497.065
  23191222.583    -9202769.19243  -7140979.31342  23191223.481    23191220.960
  23774035.622   -10621320.65543  -8267860.23842  23774037.346    23774036.656
  20685773.473   -26625766.15643 -20703658.68742  20685774.734    20685770.862
  22042563.611   -18065040.38043 -14036755.02642  22042565.166    22042561.397
  24632190.898    -3332404.39243  -2550536.80342  24632192.808    24632190.568
  20622894.459   -27396206.93444 -21168574.88042  20622894.582    20622890.504
  22388007.769   -15990936.34343 -12423121.08442  22388008.867    22388003.682
 04  7 20  2 18  0.0000000  0  8G13G10G31G27G28G29G 8G19
  21893010.516   -15776454.78643 -11832822.68242  21893012.637    21893008.227
  23194460.857    -9185752.17343  -7127719.32442  23194461.800    23194459.095
  23752112.022   -10736528.68243  -8357632.57442  23752113.766    23752113.096
  20686212.491   -26623458.93143 -20701860.85042  20686213.739    20686209.908
  22028998.971   -18136322.71743 -14092299.63942  22029000.616    22028996.705
  24613032.744    -3433081.44943  -2628986.37142  24613034.648    24613032.261
  20616020.079   -27432331.87944 -21196724.18942  20616020.180    20616016.231
  22388520.777   -15988240.16443 -12421020.15142  22388521.888    22388516.840
 04  7 20  2 18 30.0000000  0  8G13G10G31G27G28G29G 8G19
  21909589.633   -15689331.39743 -11764934.37542  21909591.711    21909587.260
  23197803.895    -9168184.63943  -7114030.35542  23197804.772    23197801.983
  23730198.906   -10851681.54543  -8447361.92742  23730200.744    23730199.921
  20686695.792   -26620919.15543 -20699881.81142  20686697.004    20686693.209
  22015493.234   -18207295.19543 -14147602.79942  22015494.921    22015490.802
  24593892.545    -3533662.97143  -2707361.49742  24593894.515    24593891.928
  20609194.077   -27468202.64644 -21224675.43242  20609194.179    20609190.205
  22389142.848   -15984970.49843 -12418472.35642  22389144.020    22389139.092
 04  7 20  2 19  0.0000000  0  8G13G10G31G27G28G29G 8G19
  21926236.358   -15601852.77343 -11696769.25642  21926238.396    21926234.005
  23201251.584    -9150066.68443  -7099912.49242  23201252.429    23201249.606
  23708297.146   -10966774.87643  -8537044.88442  23708299.119    23708298.035
  20687223.639   -26618145.13443 -20697720.24042  20687224.891    20687221.148
  22002046.858   -18277955.93543 -14202663.04842  22002048.538    22002044.305
  24574771.241    -3634145.72343  -2785659.67042  24574773.153    24574770.516
  20602416.897   -27503817.20744 -21252427.03442  20602416.967    20602412.936
  22389874.458   -15981125.99843 -12415476.63842  22389875.597    22389870.666
 04  7 20  2 19 30.0000000  0  8G13G10G31G27G28G29G 8G19
  21942949.459   -15514024.16643 -11628331.41842  21942951.571    21942947.350
  23204803.282    -9131402.90143  -7085369.31542  23204804.043    23204801.248
  23686406.764   -11081809.49143  -8626682.11542  23686408.767    23686407.233
  20687795.561   -26615139.66543 -20695378.32242  20687796.783    20687793.116
  21988659.323   -18348307.48243 -14257482.39042  21988661.002    21988656.838
  24555668.569    -3734530.74943  -2863881.70742  24555670.480    24555667.874
  20595687.930   -27539178.10944 -21279980.97842  20595687.995    20595683.998
  22390714.863   -15976709.65143 -12412035.32742  22390716.026    22390711.010
 04  7 20  2 20  0.0000000  0  8G13G10G31G27G28G29G 8G19
  21959729.448   -15425844.82843 -11559620.28242  21959731.515    21959727.320
  23208458.990    -9112192.39543  -7070400.14042  23208459.807    23208456.982
  23664528.694   -11196779.99343  -8716269.36942  23664530.628    23664528.966
  20688412.137   -26611899.78344 -20692853.74442  20688413.361    20688409.627
  21975331.192   -18418346.89643 -14312058.49942  21975332.817    21975328.796
  24536585.490    -3834813.68643  -2942024.19642  24536587.379    24536584.772
  20589007.870   -27574282.40744 -21307334.97942  20589007.914    20589003.895
  22391664.495   -15971719.25743 -12408146.69342  22391665.653    22391660.613
 04  7 20  2 20 30.0000000  0  8G13G10G31G27G28G29G 8G19
  21976575.727   -15337317.25643 -11490637.81442  21976577.810    21976573.609
  23212218.337    -9092437.01743  -7055006.36142  23212219.242    23212216.580
  23642663.071   -11311684.06843  -8805804.89542  23642665.028    23642663.476
  20689073.348   -26608425.28844 -20690146.34842  20689074.596    20689070.785
  21962062.597   -18488074.09143 -14366391.31242  21962064.183    21962059.990
  24517522.162    -3934992.84343  -3020085.82042  24517523.862    24517521.365
  20582376.500   -27609130.31844 -21334489.19442  20582376.565    20582372.586
  22392723.393   -15966155.31643 -12403811.14142  22392724.513    22392719.379
 04  7 20  2 21  0.0000000  0  8G13G10G31G27G28G29G 8G19
  21993488.039   -15248442.24743 -11421384.59042  21993490.135    21993486.083
  23216081.199    -9072137.30543  -7039188.41942  23216082.160    23216079.686
  23620810.793   -11426517.76743  -8895285.54842  23620812.691    23620811.470
  20689779.455   -26604714.74044 -20687255.01042  20689780.705    20689776.845
  21948853.655   -18557487.30343 -14420479.45042  21948855.274    21948850.866
  24498479.057    -4035064.93743  -3098064.01042  24498480.865    24498478.330
  20575794.304   -27643720.11844 -21361442.27942  20575794.359    20575790.402
  22393891.410   -15960016.82443 -12399027.88942  22393892.566    22393887.568
 04  7 20  2 21 30.0000000  0  8G13G10G31G27G28G29G 8G19
  22010466.228   -15159221.09443 -11351861.65842  22010468.297    22010464.498
  23220047.712    -9051293.96243  -7022946.86042  23220048.599    23220046.056
  23598972.495   -11541277.39743  -8984708.52242  23598974.385    23598973.403
  20690530.762   -26600766.64044 -20684178.56942  20690532.018    20690528.138
  21935704.631   -18626585.35643 -14474322.03342  21935706.247    21935701.898
  24479456.692    -4135027.31543  -3175956.69942  24479458.513    24479456.134
  20569261.560   -27678049.96544 -21388192.80542  20569261.635    20569257.616
  22395168.930   -15953302.94643 -12393796.28842  22395170.136    22395165.190
 04  7 20  2 22  0.0000000  0  8G13G10G31G27G28G29G 8G19
  22027509.853   -15069657.36743 -11282071.78342  22027511.861    22027507.802
  23224116.987    -9029909.93543  -7006283.99842  23224117.911    23224115.263
  23577148.589   -11655961.77943  -9074072.86642  23577150.282    23577149.612
  20691327.024   -26596582.20343 -20680917.96742  20691328.279    20691324.392
  21922615.496   -18695369.10743 -14527919.70842  21922617.043    21922612.865
  24460455.217    -4234879.46843  -3253763.50542  24460457.144    24460454.853
  20562778.081   -27712120.34744 -21414741.14142  20562778.198    20562774.252
  22396555.626   -15946015.55943 -12388117.82142  22396556.856    22396551.900
 04  7 20  2 22 30.0000000  0  8G13G10G31G27G28G29G 8G19
  22044618.142   -14979753.26243 -11212016.69342  22044620.178    22044615.883
  23228288.764    -9007986.99343  -6989201.18242  23228289.551    23228286.945
  23555339.547   -11770568.21743  -9163376.47442  23555341.193    23555340.541
  20692168.367   -26592160.99144 -20677472.86942  20692169.601    20692165.709
  21909586.213   -18763838.19043 -14581272.18242  21909587.803    21909583.602
  24441475.404    -4334619.16543  -3331482.67942  24441477.415    24441474.900
  20556343.925   -27745931.91644 -21441087.81942  20556344.022    20556340.061
  22398051.410   -15938154.75143 -12381992.51142  22398052.635    22398047.729
 04  7 20  2 23  0.0000000  0  8G13G10G31G27G28G29G 8G19
  22061791.027   -14889509.34743 -11141696.80342  22061793.032    22061788.709
  23232562.768    -8985525.73043  -6971698.90142  23232563.481    23232561.322
  23533546.059   -11885092.82343  -9252616.28442  23533547.664    23533547.023
  20693055.051   -26587501.34443 -20673841.98042  20693056.269    20693052.369
  21896617.117   -18831990.83043 -14634378.07342  21896618.687    21896614.379
  24422517.436    -4434243.43343  -3409111.90642  24422519.578    24422516.954
  20549959.490   -27779482.27244 -21467230.94242  20549959.577    20549955.635
  22399656.674   -15929719.59943 -12375419.65942  22399657.820    22399652.840
 04  7 20  2 23 30.0000000  0  8G13G10G31G27G28G29G 8G19
  22079028.233   -14798927.11843 -11071113.28642  22079030.240    22079026.090
  23236939.227    -8962526.56343  -6953777.47742  23236939.954    23236938.039
  23511768.921   -11999532.04543  -9341789.58442  23511770.502    23511769.685
  20693987.268   -26582602.34543 -20670024.57742  20693988.487    20693984.579
  21883708.419   -18899826.07743 -14687236.65242  21883710.001    21883705.507
  24403581.889    -4533749.63043  -3486649.11942  24403584.111    24403581.515
  20543624.916   -27812770.67644 -21493169.94442  20543625.012    20543621.043
  22401371.244   -15920709.74543 -12368398.96942  22401372.359    22401367.183
 04  7 20  2 24  0.0000000  0  8G13G10G31G27G28G29G 8G19
  22096329.086   -14708010.64343 -11000269.32842  22096331.110    22096326.958
  23241417.617    -8938992.92743  -6935439.58442  23241418.459    23241416.408
  23490008.441   -12113884.59443  -9430895.36142  23490009.905    23490009.032
  20694964.950   -26577464.74243 -20666021.25242  20694966.153    20694962.272
  21870860.063   -18967345.01643 -14739848.76542  21870861.660    21870857.101
  24384668.983    -4633136.82643  -3564093.60042  24384671.107    24384668.707
  20537340.096   -27845797.68944 -21518905.27642  20537340.204    20537336.152
  22403194.702   -15911126.89043 -12360931.79242  22403195.842    22403190.656
 04  7 20  2 24 30.0000000  0  8G13G10G31G27G28G29G 8G19
  22113694.068   -14616757.76843 -10929163.25142  22113696.042    22113691.630
  23245998.163    -8914922.79443  -6916683.64342  23245999.063    23245996.748
  23468265.456   -12228143.79943  -9519928.37942  23468266.876    23468266.340
  20695988.765   -26572084.41743 -20661828.78642  20695989.974    20695986.135
  21858072.660   -19034543.14343 -14792210.89542  21858074.245    21858069.851
  24365779.740    -4732399.29043  -3641440.89742  24365781.705    24365779.614
  20531105.963   -27878558.63244 -21544433.26842  20531106.035    20531101.973
  22405127.889   -15900967.37543 -12353015.29142  22405129.108    22405123.930
 04  7 20  2 25  0.0000000  0  8G13G10G31G27G28G29G 8G19
  22131120.617   -14525180.33743 -10857804.25842  22131122.661    22131118.006
  23250678.442    -8890327.43543  -6897518.45442  23250679.434    23250676.938
  23446539.009   -12342316.66443  -9608894.12742  23446540.320    23446540.080
  20697057.156   -26566470.40744 -20657454.23942  20697058.320    20697054.439
  21845344.426   -19101429.80243 -14844330.32942  21845346.060    21845341.706
  24346912.902    -4831544.75543  -3718697.04142  24346914.797    24346912.773
  20524920.643   -27911062.78644 -21569761.16042  20524920.725    20524916.648
  22407169.183   -15890241.17543 -12344657.21742  22407170.248    22407165.165
 04  7 20  2 25 30.0000000  0  8G13G10G31G27G28G29G 8G19
  22148611.189   -14433266.35443 -10786183.03042  22148613.223    22148608.676
  23255461.047    -8865194.71443  -6877934.53942  23255461.965    23255459.476
  23424832.467   -12456386.23343  -9697779.40042  23424833.646    23424833.241
  20698172.651   -26560608.32144 -20652886.38042  20698173.853    20698170.035
  21832678.347   -19167990.62643 -14896195.86042  21832679.929    21832675.521
  24328071.403    -4930557.34643  -3795849.62942  24328073.136    24328071.078
  20518786.984   -27943295.52044 -21594877.56942  20518787.079    20518782.922
  22409320.659   -15878934.82943 -12335847.05642  22409321.779    22409316.760
 04  7 20  2 26  0.0000000  0  8G13G10G31G27G28G29G 8G19
  22166163.542   -14341028.21643 -10714309.20442  22166165.580    22166161.184
  23260343.801    -8839536.16943  -6857940.88542  23260344.573    23260342.240
  23403144.067   -12570359.74543  -9786589.82142  23403145.352    23403144.487
  20699333.561   -26554507.68744 -20648132.64142  20699334.759    20699330.974
  21820072.352   -19234235.07443 -14947814.86342  21820073.962    21820069.583
  24309253.666    -5029444.54143  -3872904.51642  24309255.614    24309253.262
  20512703.058   -27975266.29044 -21619789.85942  20512703.166    20512699.114
  22411580.655   -15867058.58743 -12326592.82642  22411581.804    22411576.778
 04  7 20  2 26 30.0000000  0  8G13G10G31G27G28G29G 8G19
  22183778.517   -14248461.44643 -10642179.29942  22183780.575    22183776.249
  23265327.259    -8813347.71143  -6837534.28842  23265328.028    23265325.765
  23381475.597   -12684228.28343  -9875318.43742  23381476.917    23381475.809
  20700541.177   -26548161.80244 -20643187.79942  20700542.376    20700538.534
  21807527.819   -19300156.83143 -14999182.42042  21807529.437    21807525.145
  24290461.416    -5128198.24543  -3949855.37942  24290463.417    24290460.915
  20506670.329   -28006968.36344 -21644492.77142  20506670.444    20506666.395
  22413950.176   -15854606.66343 -12316890.01542  22413951.385    22413946.254
 04  7 20  2 27  0.0000000  0  8G13G10G31G27G28G29G 8G19
  22201454.790   -14155572.16343 -10569798.08242  22201456.857    22201452.519
  23270410.436    -8786634.68843  -6816718.91042  23270411.245    23270409.072
  23359826.972   -12797992.67643  -9963965.89742  23359828.339    23359827.008
  20701794.784   -26541573.93044 -20638054.39542  20701796.004    20701792.156
  21795044.232   -19365758.83143 -15050300.81042  21795045.811    21795041.447
  24271694.169    -5226820.22943  -4026703.60942  24271696.332    24271693.640
  20500688.044   -28038405.23944 -21668989.01842  20500688.177    20500684.086
  22416428.513   -15841583.09543 -12306741.78442  22416429.665    22416424.445
 04  7 20  2 27 30.0000000  0  8G13G10G31G27G28G29G 8G19
  22219192.481   -14062359.98443 -10497165.28342  22219194.530    22219190.236
  23275593.708    -8759396.26243  -6795494.18442  23275594.584    23275592.270
  23338199.062   -12911647.72043 -10052528.13142  23338200.510    23338199.049
  20703094.996   -26534741.16043 -20632730.16042  20703096.232    20703092.402
  21782622.011   -19431038.27543 -15101167.86742  21782623.633    21782618.997
  24252953.045    -5325305.75043  -4103445.50742  24252955.174    24252952.302
  20494756.961   -28069573.50744 -21693275.97242  20494757.058    20494752.883
  22419015.892   -15827985.78943 -12296146.47742  22419017.088    22419011.782
 04  7 20  2 28  0.0000000  0  8G13G10G31G27G28G29G 8G19
  22236991.039   -13968828.36243 -10424283.55742  22236993.023    22236988.667
  23280876.533    -8731635.62543  -6773862.54742  23280877.476    23280874.871
  23316592.380   -13025191.68743 -10141003.81242  23316593.857    23316592.298
  20704441.722   -26527664.10344 -20627215.57542  20704442.940    20704439.139
  21770260.816   -19495996.10143 -15151784.30642  21770262.485    21770257.903
  24234238.109    -5423653.95343  -4180080.39242  24234240.101    24234237.057
  20488876.845   -28100473.70444 -21717354.04442  20488876.920    20488872.740
  22421712.028   -15813816.76843 -12285105.66742  22421713.288    22421708.006
 04  7 20  2 28 30.0000000  0  8G13G10G31G27G28G29G 8G19
  22254850.634   -13874976.07343 -10351151.95442  22254852.642    22254848.347
  23286258.890    -8703351.24543  -6751822.82542  23286259.958    23286257.105
  23295007.732   -13138618.39543 -10229388.11642  23295009.303    23295007.871
  20705835.620   -26520339.05544 -20621507.74942  20705836.857    20705833.047
  21757961.563   -19560628.46643 -15202147.15942  21757963.229    21757958.826
  24215550.236    -5521859.41343  -4256604.06142  24215552.261    24215548.997
  20483048.407   -28131102.08544 -21741220.30842  20483048.524    20483044.337
  22424517.812   -15799072.77243 -12273616.83942  22424519.103    22424513.757
 04  7 20  2 29  0.0000000  0  8G13G10G31G27G28G29G 8G19
  22272769.877   -13780810.12143 -10277775.93142  22272771.949    22272767.785
  23291739.505    -8674549.69543  -6729380.06642  23291740.573    23291737.765
  23273444.770   -13251930.29843 -10317682.94942  23273446.382    23273445.383
  20707275.938   -26512770.48743 -20615610.16842  20707277.136    20707273.336
  21745723.452   -19624940.29543 -15252260.23742  21745725.043    21745720.652
  24196888.915    -5619924.98043  -4333018.72042  24196890.914    24196887.769
  20477271.048   -28161462.57244 -21764877.83342  20477271.099    20477266.956
  22427431.915   -15783759.35943 -12261684.29342  22427433.222    22427427.934
 04  7 20  2 29 30.0000000  0  8G13G10G31G27G28G29G 8G19
  22290749.429   -13686327.19843 -10204152.91142  22290751.526    22290747.517
  23297319.395    -8645227.44443  -6706531.58342  23297320.246    23297317.565
  23251905.637   -13365118.23143 -10405881.20742  23251907.207    23251906.355
  20708763.624   -26504952.16644 -20609517.96242  20708764.858    20708761.062
  21733547.503   -19688925.31443 -15302118.64842  21733549.079    21733544.579
  24178255.679    -5717842.85843  -4409318.28942  24178257.650    24178254.596
  20471545.590   -28191549.62944 -21788322.29642  20471545.658    20471541.594
  22430455.236   -15767871.48943 -12249304.12142  22430456.556    22430451.356
 04  7 20  2 30  0.0000000  0  8G13G10G31G27G28G29G 8G19
  22308787.170   -13591537.80843 -10130291.10842  22308789.295    22308785.331
  23302996.492    -8615394.84343  -6683285.41742  23302997.280    23302994.531
  23230389.017   -13478188.08843 -10493987.48342  23230390.628    23230389.568
  20710297.437   -26496892.05544 -20603237.35142  20710298.639    20710294.795
  21721432.207   -19752591.55943 -15351728.67842  21721433.753    21721429.313
  24159649.482    -5815619.05843  -4485507.47942  24159651.420    24159648.308
  20465870.902   -28221370.45244 -21811559.30342  20465870.955    20465866.890
  22433586.158   -15751418.13643 -12236483.32342  22433587.411    22433582.309
 04  7 20  2 30 30.0000000  0  8G13G10G31G27G28G29G 8G19
  22326885.049   -13496432.57743 -10056183.18942  22326887.232    22326883.092
  23308772.416    -8585042.11443  -6659633.98142  23308773.232    23308770.626
  23208897.437   -13591125.82543 -10581990.77842  23208899.051    23208897.964
  20711879.532   -26488577.97944 -20596758.84942  20711880.736    20711876.837
  21709379.886   -19815927.16043 -15401081.06642  21709381.419    21709377.084
  24141072.755    -5913240.08643  -4561575.77942  24141074.649    24141071.625
  20460249.099   -28250912.93844 -21834579.42742  20460249.175    20460245.119
  22436826.651   -15734388.26443 -12223213.29342  22436827.933    22436822.910
 04  7 20  2 31  0.0000000  0  8G13G10G31G27G28G29G 8G19
  22345041.373   -13401021.02543  -9981836.58642  22345043.499    22345039.264
  23314645.496    -8554178.44943  -6635584.39642  23314646.367    23314644.056
  23187430.602   -13703935.14743 -10669894.02842  23187432.077    23187430.729
  20713508.641   -26480016.95943 -20590087.91942  20713509.852    20713505.975
  21697389.162   -19878939.12043 -15450181.25042  21697390.692    21697386.327
  24122524.549    -6010711.31143  -4637527.33842  24122526.439    24122523.479
  20454679.075   -28280183.74744 -21857387.84642  20454679.130    20454675.004
  22440175.554   -15716789.81343 -12209500.21142  22440176.813    22440171.756
 04  7 20  2 31 30.0000000  0  8G13G10G31G27G28G29G 8G19
  22363256.206   -13305302.38843  -9907250.69742  22363258.320    22363254.050
  23320615.956    -8522803.37143  -6611136.27542  23320616.784    23320614.756
  23165989.111   -13816611.09243 -10757693.33942  23165990.603    23165989.051
  20715185.406   -26471205.67444 -20583221.98442  20715186.600    20715182.659
  21685460.483   -19941624.27143 -15499026.78242  21685462.039    21685457.587
  24104005.797    -6108027.64243  -4713358.19342  24104007.503    24104004.790
  20449161.327   -28309179.65844 -21879982.05942  20449161.395    20449157.237
  22443633.157   -15698620.48343 -12195342.27342  22443634.357    22443629.243
 04  7 20  2 32  0.0000000  0  8G13G10G31G27G28G29G 8G19
  22381528.382   -13209280.95743  -9832428.85242  22381530.529    22381526.475
  23326682.988    -8490920.54043  -6586292.54242  23326683.804    23326681.996
  23144572.922   -13929152.20843 -10845387.57642  23144574.543    23144573.264
  20716909.559   -26462145.39344 -20576162.02842  20716910.740    20716906.751
  21673593.758   -20003984.12843 -15547618.84142  21673595.295    21673590.772
  24085516.651    -6205188.54843  -4789067.95842  24085518.346    24085515.720
  20443695.681   -28337901.69344 -21902362.86042  20443695.743    20443691.607
  22447198.872   -15679882.50943 -12180741.23442  22447200.183    22447195.050
 04  7 20  2 32 30.0000000  0  8G13G10G31G27G28G29G 8G19
  22399857.940   -13112958.81743  -9757372.69042  22399860.068    22399855.995
  23332846.495    -8458531.87043  -6561054.65642  23332847.268    23332845.398
  23123182.807   -14041555.87343 -10932974.71142  23123184.504    23123183.502
  20718681.089   -26452835.61743 -20568907.64942  20718682.295    20718678.335
  21661788.957   -20066018.56243 -15595957.33242  21661790.519    21661786.005
  24067057.505    -6302192.15043  -4864655.13742  24067059.169    24067056.543
  20438282.290   -28366349.27444 -21924529.80742  20438282.329    20438278.228
  22450872.867   -15660576.95243 -12165697.92842  22450874.045    22450868.822
 04  7 20  2 33  0.0000000  0  8G13G10G31G27G28G29G 8G19
  22418245.275   -13016333.65943  -9682080.43342  22418247.413    22418243.147
  23339106.738    -8425634.64443  -6535420.49642  23339107.519    23339105.506
  23101820.780   -14153814.27343 -11020448.65742  23101822.351    23101821.320
  20720501.207   -26443270.93944 -20561454.65642  20720502.400    20720498.428
  21650046.938   -20127722.36543 -15644038.20542  21650048.519    21650044.128
  24048629.591    -6399031.22843  -4940114.12642  24048631.385    24048628.717
  20432922.174   -28394516.92544 -21946478.62242  20432922.200    20432918.185
  22454655.436   -15640699.51843 -12150209.02142  22454656.630    22454651.449
 04  7 20  2 33 30.0000000  0  8G13G10G31G27G28G29G 8G19
  22436689.132   -12919411.07743  -9606556.39742  22436691.366    22436687.013
  23345462.523    -8392234.77743  -6509394.66542  23345463.349    23345461.281
  23080486.457   -14265928.30143 -11107810.10342  23080487.972    23080486.663
  20722369.158   -26433454.74443 -20553805.67942  20722370.355    20722366.389
  21638367.394   -20189098.70743 -15691863.89842  21638368.891    21638364.397
  24030232.668    -6495707.43643  -5015446.19642  24030234.609    24030231.803
  20427614.693   -28422407.81544 -21968211.77442  20427614.741    20427610.699
  22458545.789   -15620254.82843 -12134278.10442  22458547.050    22458541.946
 04  7 20  2 34  0.0000000  0  8G13G10G31G27G28G29G 8G19
  22455189.074   -12822193.46943  -9530802.47942  22455191.277    22455187.115
  23351913.750    -8358334.08443  -6482978.57542  23351914.541    23351912.393
  23059179.881   -14377895.17243 -11195056.88342  23059181.481    23059180.014
  20724285.077   -26423386.45543 -20545960.25542  20724286.248    20724282.301
  21626750.250   -20250147.56243 -15739434.39942  21626751.772    21626747.085
  24011867.177    -6592218.67743  -5090649.69042  24011869.180    24011866.263
  20422360.106   -28450021.23944 -21989728.72342  20422360.144    20422355.948
  22462543.858   -15599243.48943 -12117905.64842  22462545.138    22462540.167
 04  7 20  2 34 30.0000000  0  8G13G10G31G27G28G29G 8G19
  22473745.136   -12724680.91743  -9454818.71642  22473747.307    22473743.313
  23358460.302    -8323932.56543  -6456172.23042  23358461.159    23358458.897
  23037902.160   -14489709.65843 -11282184.95342  23037903.791    23037902.425
  20726249.483   -26413063.45143 -20537916.36142  20726250.651    20726246.777
  21615195.814   -20310866.50343 -15786747.83642  21615197.293    21615192.801
  23993533.800    -6688560.47443  -5165721.17342  23993535.815    23993532.877
  20417158.594   -28477354.80644 -22011027.60042  20417158.692    20417154.553
  22466650.316   -15577664.00043 -12101090.48042  22466651.462    22466646.644
 04  7 20  2 35  0.0000000  0  8G13G10G31G27G28G29G 8G19
  22492356.681   -12626876.33943  -9378607.40942  22492358.878    22492355.015
  23365101.273    -8289033.26443  -6428977.98842  23365102.165    23365100.085
  23016653.582   -14601369.82943 -11369192.77142  23016655.303    23016654.089
  20728262.280   -26402486.05044 -20529674.22742  20728263.456    20728259.595
  21603703.947   -20371256.12843 -15833804.67842  21603705.441    21603701.188
  23975232.818    -6784731.46343  -5240659.55842  23975234.972    23975232.164
  20412010.569   -28504408.08444 -22032108.06542  20412010.648    20412006.489
  22470864.647   -15555517.93743 -12083833.81042  22470865.753    22470860.908
 04  7 20  2 35 30.0000000  0  8G13G10G31G27G28G29G 8G19
  22511023.652   -12528780.65043  -9302169.26542  22511025.846    22511021.917
  23371836.902    -8253636.53443  -6401396.15342  23371837.688    23371835.839
  22995435.401   -14712871.30243 -11456076.93542  22995437.009    22995435.836
  20730323.789   -26391652.32244 -20521232.36942  20730325.002    20730321.192
  21592275.215   -20431314.85043 -15880603.64542  21592276.658    21592272.313
  23956965.088    -6880728.11843  -5315462.11542  23956967.152    23956964.557
  20406916.137   -28531179.13644 -22052968.62542  20406916.257    20406912.148
  22475186.816   -15532804.96343 -12066135.39542  22475187.871    22475182.977
 04  7 20  2 36  0.0000000  0  8G13G10G31G27G28G29G 8G19
  22529744.766   -12430400.36343  -9225509.35542  22529746.885    22529742.945
  23378666.073    -8217748.90143  -6373431.79942  23378666.839    23378664.830
  22974247.306   -14824215.24943 -11542838.34242  22974248.871    22974247.482
  20732433.541   -26380565.78244 -20512593.51142  20732434.743    20732430.886
  21580908.749   -20491046.20843 -15927147.50442  21580910.257    21580905.637
  23938730.545    -6976552.17343  -5390130.16742  23938732.302    23938729.792
  20401874.766   -28557671.74544 -22073612.20642  20401874.865    20401870.793
  22479616.068   -15509529.54943 -12047998.71542  22479617.195    22479612.186
 04  7 20  2 36 30.0000000  0  8G13G10G31G27G28G29G 8G19
  22548520.845   -12331732.04643  -9148625.01742  22548522.922    22548518.831
  23385589.425    -8181366.66843  -6345082.04142  23385590.235    23385587.974
  22953090.965   -14935393.06043 -11629470.29442  22953092.454    22953090.986
  20734592.511   -26369220.25944 -20503752.85442  20734593.734    20734589.829
  21569605.624   -20550444.37343 -15973431.76642  21569607.124    21569602.541
  23920530.222    -7072195.71443  -5464657.55842  23920531.947    23920529.425
  20396887.631   -28583879.19744 -22094033.58942  20396887.742    20396883.649
  22484153.104   -15485687.05643 -12029420.15042  22484154.283    22484149.288
 04  7 20  2 37  0.0000000  0  8G13G10G31G27G28G29G 8G19
  22567350.411   -12232783.04043  -9071521.95142  22567352.472    22567348.275
  23392605.380    -8144497.55043  -6316352.87942  23392606.217    23392603.928
  22931965.805   -15046407.30343 -11715974.78342  22931967.261    22931965.662
  20736799.932   -26357620.31144 -20494713.94342  20736801.148    20736797.215
  21558364.872   -20609514.35943 -16019460.30942  21558366.400    21558361.991
  23902363.569    -7167661.93143  -5539046.78342  23902365.338    23902362.884
  20391953.941   -28609806.01144 -22114236.28842  20391954.004    20391949.966
  22488796.892   -15461283.67043 -12010404.53342  22488798.112    22488793.001
 04  7 20  2 37 30.0000000  0  8G13G10G31G27G28G29G 8G19
  22586233.993   -12133549.21443  -8994196.97542  22586236.068    22586232.016
  23399714.976    -8107136.97743  -6287240.80242  23399715.681    23399713.303
  22910873.381   -15157248.32543 -11802344.29442  22910874.921    22910873.250
  20739057.011   -26345759.29644 -20485471.60142  20739058.216    20739054.317
  21547187.906   -20668249.62043 -16065228.00042  21547189.430    21547184.984
  23884232.297    -7262942.04943  -5613290.97842  23884234.032    23884231.751
  20387074.987   -28635445.12744 -22134214.81242  20387075.070    20387071.008
  22493548.416   -15436313.79243 -11990947.48442  22493549.660    22493544.476
 04  7 20  2 38  0.0000000  0  8G13G10G31G27G28G29G 8G19
  22605170.089   -12034039.90943  -8916657.30942  22605172.108    22605168.102
  23406916.278    -8069294.40443  -6257753.09842  23406916.978    23406914.502
  22889813.181   -15267920.30143 -11888582.08542  22889814.766    22889813.050
  20741362.576   -26333643.32644 -20476030.59842  20741363.790    20741359.901
  21536073.318   -20726656.64243 -16110739.91542  21536074.843    21536070.227
  23866135.806    -7358040.56443  -5687393.68542  23866137.484    23866134.997
  20382249.506   -28660803.34344 -22153974.45242  20382249.572    20382245.504
  22498406.291   -15410785.28143 -11971055.14342  22498407.519    22498402.347
 04  7 20  2 38 30.0000000  0  8G13G10G31G27G28G29G 8G19
  22624159.075   -11934251.39043  -8838900.08842  22624161.107    22624157.318
  23414209.951    -8030965.62643  -6227886.53142  23414210.680    23414208.259
  22868786.834   -15378414.17043 -11974681.07342  22868788.443    22868786.591
  20743717.901   -26321266.00144 -20466385.93042  20743719.105    20743715.213
  21525022.354   -20784729.25043 -16155991.26042  21525023.930    21525019.308
  23848075.226    -7452949.49943  -5761348.66942  23848077.010    23848074.286
  20377478.789   -28685873.56044 -22173509.67342  20377478.858    20377474.819
  22503371.577   -15384693.01843 -11950723.50442  22503372.786    22503367.580
 04  7 20  2 39  0.0000000  0  8G13G10G31G27G28G29G 8G19
  22643200.510   -11834186.89843  -8760927.80542  22643202.586    22643198.976
  23421595.504    -7992154.07843  -6197643.79542  23421596.224    23421593.874
  22847794.740   -15488728.18443 -12060639.92642  22847796.380    22847794.331
  20746122.877   -26308627.82843 -20456538.00842  20746124.073    20746120.214
  21514035.056   -20842468.40643 -16200982.78442  21514036.616    21514031.982
  23830050.900    -7547667.65943  -5835154.98842  23830052.743    23830050.041
  20372762.835   -28710655.86344 -22192820.55242  20372762.911    20372758.850
  22508443.755   -15358038.76943 -11929953.97442  22508444.951    22508439.689
 04  7 20  2 39 30.0000000  0  8G13G10G31G27G28G29G 8G19
  22662294.189   -11733849.02143  -8682742.52542  22662296.214    22662292.810
  23429072.375    -7952862.59443  -6167027.09542  23429073.132    23429070.807
  22826837.089   -15598859.84443 -12146456.70342  22826838.870    22826836.836
  20748577.531   -26295728.75544 -20446486.78242  20748578.717    20748574.848
  21503110.970   -20899874.33443 -16245714.64042  21503112.537    21503107.999
  23812063.423    -7642192.93343  -5908811.01342  23812065.201    23812062.466
  20368101.687   -28735150.30644 -22211907.11742  20368101.762    20368097.685
  22513622.506   -15330824.17243 -11908747.79942  22513623.645    22513618.448
 04  7 20  2 40  0.0000000  0  8G13G10G31G27G28G29G 8G19
  22681439.273   -11633241.92543  -8604347.45142  22681441.236    22681437.856
  23436639.907    -7913095.11043  -6136039.48542  23436640.645    23436638.433
  22805914.408   -15708808.11343 -12232130.57842  22805916.167    22805914.232
  20751081.549   -26282570.15444 -20436233.33242  20751082.739    20751078.843
  21492249.904   -20956948.72943 -16290188.15742  21492251.443    21492246.936
  23794112.541    -7736525.38043  -5982316.75442  23794114.260    23794111.654
  20363494.936   -28759358.51744 -22230770.64542  20363495.039    20363491.006
  22518907.317   -15303052.09843 -11887107.22642  22518908.465    22518903.296
 04  7 20  2 40 30.0000000  0  8G13G10G31G27G28G29G 8G19
  22700635.688   -11532364.79943  -8525741.97742  22700637.672    22700634.248
  23444298.218    -7872850.47343  -6104680.05042  23444299.038    23444296.748
  22785027.991   -15818566.38343 -12317656.41042  22785029.760    22785027.858
  20753635.750   -26269147.83044 -20425774.38742  20753636.950    20753633.024
  21481452.931   -21013687.80243 -16334400.37442  21481454.430    21481449.809
  23776199.422    -7830658.77243  -6055667.39342  23776201.125    23776198.613
  20358943.753   -28783275.37944 -22249407.15442  20358943.829    20358939.686
  22524298.740   -15274719.85743 -11865030.16142  22524299.830    22524294.796
 04  7 20  2 41  0.0000000  0  8G13G10G31G27G28G29G 8G19
  22719882.444   -11431222.50043  -8446929.86342  22719884.390    22719880.985
  23452046.388    -7832134.07943  -6072953.00542  23452047.080    23452044.696
  22764177.734   -15928134.88543 -12403034.36942  22764179.501    22764177.531
  20756239.622   -26255464.32844 -20415111.91842  20756240.820    20756236.929
  21470719.248   -21070094.40543 -16378353.54042  21470720.781    21470716.151
  23758324.068    -7924593.98743  -6128863.59142  23758325.704    23758323.271
  20354447.418   -28806903.63144 -22267818.77442  20354447.499    20354443.391
  22529796.014   -15245831.50043 -11842519.75442  22529797.112    22529792.061
 04  7 20  2 41 30.0000000  0  8G13G10G31G27G28G29G 8G19
  22739180.318   -11329811.86043  -8367908.65542  22739182.205    22739178.726
  23459884.686    -7790942.45943  -6040855.65042  23459885.413    23459883.202
  22743365.255   -16037504.76943 -12488257.54242  22743366.973    22743364.902
  20758894.439   -26241513.54744 -20404241.18442  20758895.636    20758891.717
  21460049.705   -21126162.57743 -16422042.99742  21460051.276    21460046.838
  23740487.937    -8018322.97843  -6201899.11842  23740489.620    23740487.056
  20350007.255   -28830236.74444 -22286000.41742  20350007.324    20350003.304
  22535400.022   -15216382.34143 -11819572.36142  22535401.152    22535396.060
 04  7 20  2 42  0.0000000  0  8G13G10G31G27G28G29G 8G19
  22758527.008   -11228144.77043  -8288687.60942  22758528.923    22758525.334
  23467811.578    -7749287.30343  -6008397.10942  23467812.236    23467809.898
  22722589.288   -16146682.81643 -12573331.22842  22722590.871    22722588.858
  20761598.383   -26227304.05144 -20393168.85042  20761599.601    20761595.708
  21449442.779   -21181901.66043 -16465476.02342  21449444.312    21449439.927
  23722689.648    -8111853.11643  -6274779.68442  23722691.427    23722688.746
  20345621.608   -28853283.57644 -22303958.98742  20345621.672    20345617.628
  22541108.756   -15186382.95843 -11796196.21442  22541109.884    22541104.699
 04  7 20  2 42 30.0000000  0  8G13G10G31G27G28G29G 8G19
  22777923.631   -11126214.74143  -8209261.66342  22777925.612    22777922.007
  23475827.885    -7707162.27943  -5975572.44042  23475828.652    23475826.218
  22701851.991   -16255657.25243 -12658246.27842  22701853.499    22701851.660
  20764353.332   -26212826.86744 -20381887.92842  20764354.546    20764350.596
  21438900.342   -21237302.82943 -16508645.71942  21438901.870    21438897.287
  23704931.348    -8205173.16043  -6347496.54242  23704933.131    23704930.412
  20341292.199   -28876034.75444 -22321687.17442  20341292.286    20341288.230
  22546923.528   -15155825.81143 -11772385.44442  22546924.704    22546919.495
 04  7 20  2 43  0.0000000  0  9G13G10G31G27G28G29G 8G19G26
  22797368.369   -11024031.58243  -8129638.47442  22797370.411    22797367.004
  23483931.646    -7664577.32743  -5942389.40142  23483932.558    23483930.038
  22681152.377   -16364432.75743 -12743006.32642  22681153.924    22681152.418
  20767157.802   -26198089.18444 -20370404.01842  20767159.031    20767155.061
  21428420.722   -21292373.66243 -16551558.02642  21428422.247    21428417.693
  23687211.844    -8298288.80543  -6420054.12342  23687213.805    23687210.967
  20337017.724   -28898497.13844 -22339190.32742  20337017.809    20337013.741
  22552842.886   -15124719.58743 -11748146.81742  22552843.995    22552838.845
  24312776.507    -1670986.94453  -1073459.24252  24312779.189    24312775.452
 04  7 20  2 43 30.0000000  0  9G13G10G31G27G28G29G 8G19G26
  22816862.150   -10921591.16543  -8049814.83442  22816864.135    22816860.922
  23492123.592    -7621528.32843  -5908844.74042  23492124.594    23492122.051
  22660492.852   -16472999.90043 -12827604.01142  22660494.246    22660492.801
  20770013.244   -26183083.73244 -20358711.46342  20770014.456    20770010.514
  21418005.041   -21347107.59943 -16594207.83242  21418006.568    21418002.219
  23669533.281    -8391190.72943  -6492445.18542  23669535.163    23669532.272
  20332799.537   -28920663.80844 -22356463.05542  20332799.605    20332795.532
  22558867.691   -15093058.85343 -11723476.11042  22558868.830    22558863.756
  24293099.389    -1774388.89943  -1154032.11442  24293102.045    24293098.778
 04  7 20  2 44  0.0000000  0  9G13G10G31G27G28G29G 8G19G26
  22836404.407   -10818895.71443  -7969792.46342  22836406.425    22836403.200
  23500403.318    -7578017.71143  -5874940.41342  23500404.338    23500401.856
  22639873.741   -16581355.40843 -12912036.76942  22639875.054    22639873.526
  20772919.741   -26167809.93844 -20346809.80542  20772920.939    20772917.014
  21407653.761   -21401504.02743 -16636594.64442  21407655.247    21407650.835
  23651895.868    -8483876.77943  -6564668.01142  23651897.595    23651894.701
  20328637.841   -28942533.58344 -22373504.43642  20328637.916    20328633.864
  22564997.916   -15060844.57343 -11698374.07542  22564998.992    22564993.986
  24273456.753    -1877609.73943  -1234463.85842  24273459.260    24273456.464
 04  7 20  2 44 30.0000000  0  9G13G10G31G27G28G29G 8G19G26
  22855994.844   -10715948.29743  -7889573.76542  22855996.733    22855993.355
  23508770.401    -7534048.63843  -5840678.84342  23508771.357    23508769.028
  22619294.948   -16689497.29343 -12996303.06642  22619296.388    22619294.729
  20775877.207   -26152267.98644 -20334699.19542  20775878.433    20775874.514
  21397366.571   -21455563.82343 -16678719.11742  21397368.075    21397363.403
  23634299.616    -8576345.66843  -6636721.61842  23634301.282    23634298.482
  20324532.750   -28964106.00744 -22390314.11342  20324532.808    20324528.716
  22571233.078   -15028078.91543 -11672842.39642  22571234.143    22571229.117
  24253848.982    -1980647.94643  -1314753.29742  24253851.388    24253848.749
 04  7 20  2 45  0.0000000  0  9G13G10G31G27G28G29G 8G19G26
  22875632.667   -10612751.04643  -7809160.40142  22875634.606    22875631.043
  23517224.174    -7489623.20143  -5806061.62142  23517225.107    23517223.087
  22598757.464   -16797422.17643 -13080400.28642  22598758.931    22598757.127
  20778885.942   -26136457.02344 -20322378.96542  20778887.129    20778883.267
  21387143.436   -21509286.50043 -16720580.90142  21387144.942    21387140.287
  23616745.118    -8668594.31743  -6708603.63242  23616746.824    23616744.061
  20320484.314   -28985380.85644 -22406891.92142  20320484.382    20320480.229
  22577572.983   -14994762.20643 -11646881.33242  22577574.078    22577569.108
  24234276.647    -2083500.66143  -1394898.18842  24234278.875    24234276.403
 04  7 20  2 45 30.0000000  0  9G13G10G31G27G28G29G 8G19G26
  22895317.205   -10509308.14543  -7728555.59942  22895319.183    22895315.501
  23525764.098    -7444745.80043  -5771092.22642  23525764.924    23525763.066
  22578261.537   -16905129.00043 -13164327.58942  22578262.975    22578260.954
  20781945.672   -26120378.22544 -20309850.02642  20781946.848    20781943.009
  21376984.197   -21562673.66043 -16762181.26342  21376985.675    21376981.161
  23599232.594    -8760622.40443  -6780313.77442  23599234.280    23599231.643
  20316492.325   -29006359.08944 -22423238.59042  20316492.336    20316488.259
  22584017.176   -14960897.94243 -11620493.59642  22584018.239    22584013.327
  24214739.876    -2186167.34243  -1474898.13242  24214742.057    24214739.500
 04  7 20  2 46  0.0000000  0  9G13G10G31G27G28G29G 8G19G26
  22915049.015   -10405617.38843  -7647757.68142  22915050.950    22915047.285
  23534390.640    -7399413.96243  -5735768.72742  23534391.424    23534389.306
  22557808.374   -17012610.20243 -13248079.06842  22557809.864    22557807.794
  20785057.281   -26104026.66744 -20297108.55142  20785058.480    20785054.611
  21366889.700   -21615720.73643 -16803516.61542  21366891.142    21366886.709
  23581763.402    -8852423.06243  -6851846.70642  23581765.128    23581762.406
  20312557.858   -29027034.95244 -22439349.65442  20312557.881    20312553.751
  22590566.170   -14926482.73643 -11593676.55142  22590567.295    22590562.356
  24195239.832    -2288640.87543  -1554747.56042  24195241.821    24195239.319
 04  7 20  2 46 30.0000000  0  9G13G10G31G27G28G29G 8G19G26
  22934826.105   -10301688.97043  -7566774.56042  22934827.912    22934824.312
  23543101.420    -7353638.31643  -5700099.41242  23543102.346    23543100.126
  22537397.192   -17119870.88043 -13331658.74842  22537398.730    22537396.702
  20788219.355   -26087409.80644 -20284160.35142  20788220.573    20788216.678
  21356858.254   -21668435.94043 -16844593.35142  21356859.722    21356855.255
  23564336.537    -8944001.94543  -6923206.84642  23564338.312    23564335.362
  20308679.394   -29047416.35644 -22455231.26842  20308679.419    20308675.255
  22597218.304   -14891525.90243 -11566437.45342  22597219.388    22597214.354
  24175775.591    -2390926.92043  -1634450.89242  24175777.417    24175774.774
 04  7 20  2 47  0.0000000  0  9G13G10G31G27G28G29G 8G19G26
  22954649.114   -10197518.47243  -7485602.78142  22954650.883    22954647.547
  23551897.511    -7307414.27743  -5664080.72742  23551898.335    23551896.403
  22517029.784   -17226901.10143 -13415058.82942  22517031.325    22517029.504
  20791433.388   -26070520.13844 -20270999.57142  20791434.599    20791430.721
  21346891.380   -21720811.85443 -16885405.69942  21346892.838    21346888.294
  23546953.789    -9035349.71143  -6994386.89442  23546955.477    23546952.370
  20304858.543   -29067495.25344 -22470877.15342  20304858.542    20304854.386
  22603974.575   -14856021.64043 -11538771.78742  22603975.683    22603970.549
  24156348.776    -2493015.98543  -1714000.75042  24156350.498    24156347.614
 04  7 20  2 47 30.0000000  0  9G13G10G31G27G28G29G 8G19G26
  22974517.387   -10093108.73743  -7404244.60242  22974519.177    22974516.262
  23560778.324    -7260745.04243  -5627715.10742  23560779.049    23560777.430
  22496706.652   -17333698.45243 -13498277.44042  22496708.096    22496706.548
  20794699.297   -26053357.60844 -20257626.17542  20794700.522    20794696.598
  21336989.031   -21772848.92143 -16925954.03442  21336990.517    21336985.895
  23529615.182    -9126464.71943  -7065385.56342  23529616.881    23529613.683
  20301095.220   -29087271.51644 -22486287.22642  20301095.211    20301091.058
  22610834.535   -14819971.72543 -11510680.93742  22610835.720    22610830.673
  24136959.578    -2594906.18743  -1793395.66742  24136961.447    24136958.496
 04  7 20  2 48  0.0000000  0  9G13G10G31G27G28G29G 8G19G26
  22994430.986    -9988461.96543  -7322701.72042  22994432.796    22994429.968
  23569743.256    -7213632.79343  -5591004.28342  23569743.991    23569742.596
  22476428.549   -17440259.67443 -13581312.05342  22476429.949    22476428.505
  20798017.313   -26035921.40444 -20244039.51842  20798018.529    20798014.587
  21327151.188   -21824547.04943 -16966238.26042  21327152.666    21327148.031
  23512321.317    -9217344.20443  -7136200.72142  23512322.992    23512319.813
  20297389.629   -29106744.33244 -22501460.84742  20297389.641    20297385.534
  22617798.293   -14783377.10143 -11482165.64442  22617799.425    22617794.435
  24117608.713    -2696594.70443  -1872633.44442  24117610.713    24117607.833
 04  7 20  2 48 30.0000000  0  9G13G10G31G27G28G29G 8G19G26
  23014388.578    -9883585.17743  -7240979.61842  23014390.304    23014387.277
  23578791.445    -7166084.96143  -5553954.06642  23578792.053    23578790.473
  22456195.211   -17546586.70043 -13664164.18942  22456196.434    22456194.835
  20801386.475   -26018216.01543 -20230243.11542  20801387.695    20801383.814
  21317376.828   -21875911.05743 -17006262.13442  21317378.344    21317373.667
  23495071.748    -9307990.81143  -7206834.39842  23495073.514    23495070.250
  20293741.063   -29125917.62244 -22516401.06342  20293741.065    20293736.995
  22624864.385   -14746244.07543 -11453230.81242  22624865.522    22624860.585
  24098295.748    -2798083.89543  -1951715.87842  24098297.929    24098295.219
 04  7 20  2 49  0.0000000  0  9G13G10G31G27G28G29G 8G19G26
  23034389.950    -9778477.56943  -7159077.64742  23034391.732    23034388.579
  23587922.739    -7118100.67243  -5516563.76942  23587923.412    23587921.405
  22436007.543   -17652673.14443 -13746828.86442  22436008.770    22436007.184
  20804807.780   -26000237.16143 -20216233.61842  20804808.956    20804805.089
  21307666.747   -21926937.28743 -17046022.79142  21307668.277    21307663.556
  23477867.696    -9398398.77243  -7277282.11442  23477869.511    23477866.172
  20290150.332   -29144787.32744 -22531104.72942  20290150.324    20290146.208
  22632033.344   -14708570.67243 -11423874.91142  22632034.476    22632029.627
  24079021.978    -2899368.02643  -2030638.56742  24079024.202    24079021.591
 04  7 20  2 49 30.0000000  0  9G13G10G31G27G28G29G 8G19G26
  23054435.497    -9673137.85443  -7076994.82342  23054437.301    23054434.073
  23597137.317    -7069678.84543  -5478832.52242  23597137.975    23597135.699
  22415866.919   -17758512.37243 -13829300.90342  22415868.223    22415866.724
  20808281.781   -25981980.92543 -20202007.97642  20808282.986    20808279.058
  21298021.796   -21977622.24343 -17085517.51142  21298023.269    21298018.524
  23460710.393    -9488562.04843  -7347539.18642  23460712.089    23460708.496
  20286618.141   -29163348.93444 -22545568.31042  20286618.134    20286614.093
  22639305.659   -14670354.53143 -11394096.11042  22639306.752    22639301.959
  24059788.308    -3000440.91843  -2109396.61942  24059790.567    24059788.206
 04  7 20  2 50  0.0000000  0  9G13G10G31G27G28G29G 8G19G26
  23074523.727    -9567573.93143  -6994737.28842  23074525.548    23074522.085
  23606433.226    -7020827.91743  -5440766.88442  23606434.062    23606431.772
  22395772.954   -17864107.36543 -13911582.61542  22395774.208    22395772.627
  20811807.644   -25963452.57743 -20187570.31242  20811808.814    20811804.931
  21288440.605   -22027971.71443 -17124750.84942  21288442.074    21288437.364
  23443598.803    -9578484.17943  -7417608.34842  23443600.478    23443596.792
  20283143.569   -29181607.62244 -22559795.85942  20283143.608    20283139.566
  22646679.905   -14631602.92443 -11363900.05142  22646680.962    22646676.141
  24040594.210    -3101305.76643  -2187992.54242  24040596.460    24040594.486
 04  7 20  2 50 30.0000000  0  9G13G10G31G27G28G29G 8G19G26
  23094654.978    -9461783.07043  -6912302.88642  23094656.770    23094653.502
  23615811.488    -6971544.93943  -5402364.64842  23615812.327    23615810.054
  22375727.150   -17969449.52343 -13993667.33042  22375728.407    22375726.510
  20815386.334   -25944646.12443 -20172915.93642  20815387.502    20815383.684
  21278924.389   -22077979.80143 -17163718.16942  21278925.832    21278921.141
  23426534.685    -9668157.19943  -7487483.42642  23426536.263    23426532.481
  20279727.979   -29199557.09344 -22573782.45742  20279727.961    20279723.916
  22654156.722   -14592311.76943 -11333283.57342  22654157.798    22654153.004
  24021441.441    -3201954.60543  -2266420.16142  24021443.557    24021441.582
 04  7 20  2 51  0.0000000  0  9G13G10G31G27G28G29G 8G19G26
  23114827.969    -9355772.55443  -6829697.37242  23114829.809    23114826.712
  23625270.688    -6921837.42643  -5363631.58942  23625271.369    23625268.954
  22355728.850   -18074541.00943 -14075556.69642  22355730.235    22355728.049
  20819017.161   -25925565.91443 -20158048.24542  20819018.288    20819014.500
  21269472.147   -22127651.79043 -17202423.58142  21269473.601    21269468.875
  23409517.279    -9757583.84043  -7557166.49842  23409518.911    23409515.244
  20276370.283   -29217201.63644 -22587531.43942  20276370.320    20276366.236
  22661734.987   -14552487.63043 -11302251.77342  22661736.093    22661731.261
  24002329.037    -3302390.00543  -2344681.44642  24002331.138    24002329.235
 04  7 20  2 51 30.0000000  0  9G13G10G31G27G28G29G 8G19G26
  23135043.341    -9249541.13443  -6746919.69442  23135045.031    23135041.870
  23634810.556    -6871704.45443  -5324566.97342  23634811.326    23634808.834
  22335779.490   -18179375.27943 -14157245.65142  22335780.973    22335778.537
  20822700.903   -25906207.91943 -20142964.09742  20822702.027    20822698.201
  21260084.434   -22176984.40843 -17240864.55242  21260085.900    21260081.234
  23392547.897    -9846758.16743  -7626652.95442  23392549.598    23392546.075
  20273071.479   -29234537.11144 -22601039.59942  20273071.506    20273067.403
  22669415.292   -14512128.10143 -11270802.79142  22669416.347    22669411.359
  23983258.624    -3402605.85843  -2422771.67442  23983260.631    23983258.709
 04  7 20  2 52  0.0000000  0  9G13G10G31G27G28G29G 8G19G26
  23155300.347    -9143089.90343  -6663970.75242  23155302.169    23155299.015
  23644431.283    -6821147.12243  -5285171.71042  23644432.000    23644429.679
  22315880.008   -18283947.80443 -14238730.65342  22315881.484    22315878.871
  20826437.770   -25886570.19743 -20127661.98342  20826438.923    20826435.109
  21250761.560   -22225975.79743 -17279039.63342  21250763.036    21250758.560
  23375627.084    -9935676.41443  -7695939.88242  23375628.974    23375625.557
  20269831.897   -29251561.01344 -22614304.96742  20269831.928    20269827.862
  22677197.411   -14471232.97843 -11238936.45842  22677198.483    22677193.393
  23964230.919    -3502598.08543  -2500687.64842  23964232.751    23964230.754
 04  7 20  2 52 30.0000000  0  9G13G10G31G27G28G29G 8G19G26
  23175598.129    -9036425.66443  -6580855.80542  23175599.952    23175596.626
  23654131.358    -6770172.90543  -5245451.57942  23654132.115    23654129.917
  22296029.870   -18388260.35743 -14320013.07142  22296031.361    22296028.717
  20830227.209   -25866656.82243 -20112145.07742  20830228.329    20830224.528
  21241502.783   -22274630.76443 -17316952.57842  21241504.240    21241499.822
  23358754.762   -10024340.75643  -7765028.93342  23358756.743    23358753.326
  20266650.899   -29268277.30544 -22627330.64742  20266650.940    20266646.864
  22685080.079   -14429808.73843 -11206657.81542  22685081.208    22685076.159
  23945245.278    -3602368.91043  -2578431.09542  23945246.927    23945244.927
 04  7 20  2 53  0.0000000  0  9G13G10G31G27G28G29G 8G19G26
  23195936.178    -8929549.00143  -6497575.37342  23195938.020    23195934.614
  23663910.759    -6718782.60843  -5205407.25442  23663911.503    23663909.279
  22276230.312   -18492308.01343 -14401089.08342  22276231.826    22276229.097
  20834069.500   -25846465.43443 -20096411.53742  20834070.621    20834066.851
  21232308.531   -22322947.38044 -17354601.84742  21232309.966    21232305.345
  23341931.663   -10112747.12443  -7833916.96042  23341933.590    23341930.058
  20263528.868   -29284683.75844 -22640114.88842  20263528.881    20263524.783
  22693063.527   -14387855.04043 -11173966.62042  22693064.677    22693059.630
  23926302.487    -3701913.94843  -2655998.58642  23926304.240    23926302.079
 04  7 20  2 53 30.0000000  0  9G13G10G31G27G28G29G 8G19G26
  23216314.953    -8822457.74043  -6414127.70242  23216316.864    23216313.407
  23673769.822    -6666973.97143  -5165036.92142  23673770.661    23673768.285
  22256482.331   -18596083.26943 -14481952.82842  22256483.903    22256481.257
  20837965.709   -25825990.68843 -20080457.19742  20837966.830    20837963.049
  21223179.430   -22370920.88943 -17391983.75542  21223180.941    21223176.123
  23325158.964   -10200888.31243  -7902598.36942  23325160.890    23325157.238
  20260466.901   -29300774.65044 -22652653.24442  20260466.927    20260462.755
  22701148.393   -14345368.50543 -11140860.23242  22701149.595    22701144.435
  23907404.002    -3801225.92343  -2733384.48242  23907405.764    23907403.468
 04  7 20  2 54  0.0000000  0  9G13G10G31G27G28G29G 8G19G26
  23236733.092    -8715159.50143  -6330518.74042  23236735.091    23236731.652
  23683706.675    -6614754.92943  -5124346.79642  23683707.578    23683705.399
  22236785.689   -18699588.09943 -14562605.86342  22236787.316    22236784.858
  20841915.030   -25805237.13343 -20064285.60542  20841916.145    20841912.265
  21214114.572   -22418556.52543 -17429102.40742  21214116.086    21214111.276
  23308436.145   -10288766.96243  -7971075.19942  23308438.032    23308434.551
  20257464.086   -29316554.15044 -22664948.95442  20257464.140    20257460.056
  22709333.496   -14302355.83243 -11107343.86342  22709334.652    22709329.318
  23888549.501    -3900307.28343  -2810590.67242  23888551.314    23888548.749
 04  7 20  2 54 30.0000000  0  9G13G10G31G27G28G29G 8G19G26
  23257190.735    -8607654.79643  -6246748.91742  23257192.600    23257189.211
  23693721.372    -6562126.29143  -5083337.49742  23693722.212    23693720.386
  22217141.486   -18802817.95543 -14643044.63442  22217143.077    22217140.691
  20845917.660   -25784202.61343 -20047895.08442  20845918.849    20845915.040
  21205114.316   -22465852.69443 -17465956.53642  21205115.837    21205111.062
  23291764.057   -10376379.18243  -8039344.42242  23291765.848    23291762.557
  20254520.990   -29332020.13044 -22677000.36242  20254521.026    20254516.972
  22717618.584   -14258816.95143 -11073417.45242  22717619.798    22717614.560
  23869739.580    -3999153.81443  -2887613.89242  23869741.461    23869738.789
 04  7 20  2 55  0.0000000  0  9G13G10G31G27G28G29G 8G19G26
  23277686.720    -8499947.96743  -6162821.60542  23277688.517    23277685.188
  23703813.610    -6509092.61143  -5042012.61142  23703814.295    23703812.428
  22197550.098   -18905771.56443 -14723268.14742  22197551.556    22197548.976
  20849973.625   -25762888.34443 -20031286.56742  20849974.813    20849971.054
  21196178.447   -22512811.23544 -17502547.57942  21196179.915    21196175.140
  23275142.733   -10463724.26943  -8107405.48342  23275144.577    23275141.370
  20251637.418   -29347173.37344 -22688808.08042  20251637.446    20251633.380
  22726003.174   -14214755.28143 -11039083.67842  22726004.379    22725999.362
  23850974.483    -4097764.81843  -2964453.57842  23850976.369    23850973.612
 04  7 20  2 55 30.0000000  0  9G13G10G31G27G28G29G 8G19G26
  23298221.470    -8392037.18243  -6078735.31942  23298223.306    23298219.964
  23713983.094    -6455652.56243  -5000371.07042  23713983.792    23713981.812
  22178012.634   -19008442.11243 -14803271.07642  22178014.111    22178011.339
  20854083.702   -25741289.84843 -20014456.58442  20854084.872    20854081.127
  21187307.559   -22559428.02443 -17538872.33242  21187308.999    21187304.271
  23258573.596   -10550795.87643  -8175253.45242  23258575.414    23258572.189
  20248814.166   -29362009.55444 -22700368.73442  20248814.191    20248810.154
  22734487.953   -14170168.11443 -11004340.43242  22734489.069    22734483.955
  23832255.388    -4196133.76043  -3041104.63642  23832257.232    23832254.647
 04  7 20  2 56  0.0000000  0 10G13G10G 7G31G27G28G29G 8G19G26
  23318791.587    -8283940.20643  -5994503.97142  23318793.569    23318790.201
  23724226.266    -6401824.19543  -4958426.93542  23724227.027    23724225.116
  24453633.669    -4948656.82553  -3814719.44352  24453635.222    24453636.576
  22158526.745   -19110841.52243 -14883062.72942  22158528.228    22158525.340
  20858245.005   -25719421.64343 -19997416.43142  20858246.238    20858242.519
  21178498.889   -22605718.19244 -17574942.57142  21178500.324    21178495.565
  23242054.075   -10637606.75643  -8242898.24242  23242055.866    23242052.653
  20246048.635   -29376542.21244 -22711692.87942  20246048.664    20246044.645
  22743069.517   -14125072.34943 -10969200.88442  22743070.585    22743065.399
  23813579.895    -4294272.98043  -3117576.70942  23813581.793    23813579.431
 04  7 20  2 56 30.0000000  0 10G13G10G 7G31G27G28G29G 8G19G26
  23339402.130    -8175631.93843  -5910107.96042  23339404.139    23339400.705
  23734548.004    -6347582.68243  -4916160.88642  23734548.714    23734547.078
  24433472.235    -5054604.96543  -3897276.23442  24433473.726    24433474.896
  22139098.017   -19212939.62743 -14962619.59942  22139099.578    22139096.657
  20862463.104   -25697255.84843 -19980144.38542  20862464.294    20862460.549
  21169757.498   -22651654.69944 -17610737.22642  21169758.979    21169754.120
  23225589.704   -10724127.07843  -8310316.60642  23225591.570    23225588.307
  20243346.205   -29390743.64144 -22722758.92242  20243346.224    20243342.147
  22751752.558   -14079442.13543 -10933644.87942  22751753.714    22751748.675
  23794953.955    -4392152.88043  -3193846.70142  23794955.828    23794953.508
 04  7 20  2 57  0.0000000  0 10G13G10G 7G31G27G28G29G 8G19G26
  23360049.440    -8067131.33243  -5825562.08742  23360051.509    23360047.755
  23744944.904    -6292947.16543  -4873587.80142  23744945.472    23744943.940
  24413314.056    -5160534.05943  -3979818.20342  24413315.590    24413316.927
  22119723.984   -19314749.89443 -15041952.19242  22119725.568    22119722.774
  20866734.652   -25674808.34543 -19962652.82042  20866735.908    20866732.187
  21161080.209   -22697253.85744 -17646269.01042  21161081.716    21161076.883
  23209177.871   -10810370.99943  -8377519.59642  23209179.710    23209176.576
  20240703.745   -29404629.92344 -22733579.39342  20240703.767    20240699.720
  22760534.106   -14033295.60043 -10897686.54742  22760535.177    22760530.132
  23776374.715    -4489787.07743  -3269925.23142  23776376.626    23776374.303
 04  7 20  2 57 30.0000000  0 10G13G10G 7G31G27G28G29G 8G19G26
  23380734.044    -7958433.50443  -5740862.52142  23380736.278    23380732.339
  23755417.571    -6237913.02343  -4830704.09042  23755418.256    23755416.528
  24393161.378    -5266434.73843  -4062338.03642  24393162.942    24393164.312
  22100406.753   -19416262.04743 -15121052.49842  22100408.272    22100405.671
  20871061.424   -25652071.41443 -19944935.73542  20871062.630    20871058.876
  21152468.541   -22742508.35744 -17681532.24242  21152470.018    21152465.186
  23192820.693   -10896328.70343  -8444499.56442  23192822.486    23192819.342
  20238123.003   -29418192.09644 -22744147.31942  20238123.022    20238118.893
  22769414.813   -13986626.96243 -10861321.39842  22769415.866    22769410.733
  23757844.119    -4587165.82043  -3345804.71742  23757846.072    23757843.609
 04  7 20  2 58  0.0000000  0 10G13G10G 7G31G27G28G29G 8G19G26
  23401453.556    -7849550.70943  -5656018.83442  23401455.876    23401452.186
  23765963.726    -6182493.18543  -4787519.86142  23765964.391    23765962.553
  24373013.361    -5372314.53643  -4144841.57342  24373014.604    24373015.898
  22081145.097   -19517483.09243 -15199925.96042  22081146.592    22081143.990
  20875441.353   -25629054.45843 -19927000.44642  20875442.602    20875438.887
  21143920.571   -22787428.43944 -17716534.87942  21143922.041    21143917.148
  23176516.406   -10982007.76243  -8511262.41242  23176518.177    23176515.215
  20235602.052   -29431439.96044 -22754470.32342  20235602.060    20235597.942
  22778392.619   -13939447.96543 -10824558.57142  22778393.687    22778388.596
  23739360.672    -4684296.42043  -3421490.83042  23739362.578    23739360.118
 04  7 20  2 58 30.0000000  0 10G13G10G 7G31G27G28G29G 8G19G26
  23422208.744    -7740481.25043  -5571029.69742  23422210.917    23422207.635
  23776583.423    -6126685.82343  -4744033.64442  23776584.079    23776582.523
  24352870.483    -5478167.04943  -4227323.81642  24352871.506    24352872.591
  22061940.151   -19618405.65743 -15278566.84142  22061941.630    22061938.970
  20879875.619   -25605752.49943 -19908843.07842  20879876.835    20879873.072
  21135436.933   -22832009.67643 -17751273.47142  21135438.477    21135433.569
  23160266.618   -11067401.39443  -8577802.85742  23160268.342    23160265.355
  20233141.833   -29444368.43544 -22764544.45642  20233141.868    20233137.728
  22787468.065   -13891756.06443 -10787396.07942  22787469.187    22787464.152
  23720925.789    -4781172.00643  -3496978.23342  23720927.651    23720925.241
 04  7 20  2 59  0.0000000  0 10G13G10G 7G31G27G28G29G 8G19G26
  23442999.972    -7631221.98043  -5485892.66542  23443002.048    23442999.111
  23787277.217    -6070488.95543  -4700243.91342  23787278.000    23787276.577
  24332733.803    -5583984.55743  -4309778.81042  24332735.054    24332735.890
  22042793.317   -19719021.75043 -15356968.90742  22042794.843    22042792.222
  20884365.202   -25582159.84244 -19890459.18942  20884366.418    20884362.567
  21127018.799   -22876247.20843 -17785744.25942  21127020.295    21127015.444
  23144072.477   -11152502.23143  -8644115.14942  23144074.297    23144071.119
  20230743.494   -29456971.72144 -22774365.19742  20230743.523    20230739.414
  22796641.823   -13843547.42443 -10749830.92242  22796642.986    22796637.900
  23702540.998    -4877784.72043  -3572260.81042  23702542.838    23702540.425
 04  7 20  2 59 30.0000000  0 10G13G10G 7G31G27G28G29G 8G19G26
  23463825.605    -7521781.39343  -5400614.35242  23463827.681    23463824.895
  23798043.901    -6013910.59143  -4656156.94342  23798044.628    23798043.088
  24312602.847    -5689770.61943  -4392209.28542  24312604.287    24312605.213
  22023704.344   -19819333.99643 -15435134.22642  22023705.869    22023703.235
  20888909.049   -25558281.70444 -19871852.85042  20888910.301    20888906.443
  21118664.947   -22920146.72644 -17819951.66342  21118666.432    21118661.645
  23127933.600   -11237313.36143  -8710201.71142  23127935.429    23127931.980
  20228406.178   -29469254.02244 -22783935.81342  20228406.218    20228402.172
  22805912.625   -13794829.66543 -10711869.05442  22805913.719    22805908.494
  23684205.674    -4974137.68743  -3647340.97742  23684207.498    23684205.051
 04  7 20  3  0  0.0000000  0 10G13G10G 7G31G27G28G29G 8G19G26
  23484685.678    -7412161.40243  -5315196.23242  23484687.538    23484684.869
  23808882.762    -5956953.29143  -4611774.68542  23808883.608    23808881.595
  24292478.874    -5795522.61743  -4474613.21542  24292480.063    24292480.968
  22004674.055   -19919339.06143 -15513060.18942  22004675.496    22004672.795
  20893507.461   -25534117.26644 -19853023.41742  20893508.682    20893504.747
  21110375.538   -22963707.89144 -17853895.41442  21110377.046    21110372.197
  23111850.221   -11321832.11443  -8776060.44042  23111852.060    23111848.456
  20226130.261   -29481214.42944 -22793255.60442  20226130.251    20226126.166
  22815279.989   -13745604.19943 -10673511.56842  22815281.085    22815275.776
  23665920.436    -5070227.90943  -3722216.42042  23665922.202    23665919.748
 04  7 20  3  0 30.0000000  0 10G13G10G 7G31G27G28G29G 8G19G26
  23505580.227    -7302361.50143  -5229637.92942  23505581.976    23505578.902
  23819793.484    -5899616.71543  -4567096.86842  23819794.436    23819792.117
  24272362.649    -5901235.22343  -4556986.43542  24272363.450    24272364.211
  21985703.387   -20019030.98643 -15590742.14442  21985704.837    21985702.027
  20898161.014   -25509662.78143 -19833967.97642  20898162.213    20898158.258
  21102151.099   -23006927.91944 -17887573.33142  21102152.562    21102147.655
  23095823.589   -11406052.95943  -8841687.03542  23095825.398    23095821.652
  20223916.122   -29492849.42644 -22802321.82742  20223916.116    20223912.156
  22824744.135   -13695869.78143 -10634757.48742  22824745.234    22824739.861
  23647686.133    -5166049.85543  -3796882.82942  23647687.935    23647685.492
 04  7 20  3  1  0.0000000  0 10G13G10G 7G31G27G28G29G 8G19G26
  23526507.660    -7192388.47743  -5143944.71142  23526509.464    23526505.991
  23830775.041    -5841908.46043  -4522129.45342  23830775.950    23830773.530
  24252253.249    -6006910.79943  -4639330.80042  24252253.994    24252254.706
  21966792.087   -20118411.33943 -15668181.29842  21966793.538    21966790.518
  20902868.874   -25484922.50043 -19814689.83642  20902870.103    20902866.236
  21093990.583   -23049811.43143 -17920989.03642  21093992.075    21093987.135
  23079853.160   -11489978.32843  -8907083.39142  23079854.909    23079851.120
  20221763.290   -29504162.80144 -22811137.44642  20221763.252    20221759.237
  22834304.033   -13645632.51443 -10595611.57242  22834305.108    22834299.625
  23629502.555    -5261605.44343  -3871341.68342  23629504.369    23629501.874
 04  7 20  3  1 30.0000000  0 10G13G10G 7G31G27G28G29G 8G19G26
  23547468.663    -7082237.83943  -5058113.12142  23547470.543    23547466.921
  23841828.024    -5783824.39543  -4476869.18042  23841828.958    23841826.657
  24232152.350    -6112539.98443  -4721639.02642  24232153.263    24232154.122
  21947941.693   -20217470.52043 -15745370.19642  21947943.224    21947939.911
  20907632.627   -25459888.88443 -19795183.11742  20907633.816    20907629.975
  21085895.420   -23092351.50743 -17954137.12642  21085896.931    21085891.933
  23063940.683   -11573598.62843  -8972242.04142  23063942.424    23063938.680
  20219673.056   -29515146.78344 -22819696.38242  20219673.045    20219669.056
  22843960.429   -13594887.42643 -10556069.95542  22843961.595    22843956.148
  23611371.385    -5356885.13043  -3945585.57142  23611373.323    23611370.674
 04  7 20  3  2  0.0000000  0 10G13G10G 7G31G27G28G29G 8G19G26
  23568462.392    -6971915.12443  -4972147.41242  23568464.243    23568460.562
  23852951.618    -5725370.15543  -4431320.46042  23852952.432    23852950.309
  24212060.141    -6218123.51843  -4803911.70042  24212061.239    24212061.944
  21929152.353   -20316208.25143 -15822308.60742  21929153.953    21929150.502
  20912451.686   -25434564.38344 -19775449.74442  20912452.887    20912449.073
  21077865.068   -23134551.45344 -17987020.17342  21077866.549    21077861.550
  23048086.102   -11656914.59143  -9037163.53542  23048087.843    23048084.142
  20217645.118   -29525803.61644 -22828000.40142  20217645.091    20217641.102
  22853712.601   -13543639.13343 -10516136.23942  22853713.794    22853708.356
  23593292.687    -5451889.27843  -4019614.74642  23593294.674    23593291.849
 04  7 20  3  2 30.0000000  0 10G13G10G 7G31G27G28G29G 8G19G26
  23589488.162    -6861423.39843  -4886050.00742  23589490.019    23589486.416
  23864144.802    -5666549.22943  -4385486.02342  23864145.471    23864143.736
  24191976.821    -6323659.88143  -4886147.61642  24191978.082    24191978.776
  21910424.821   -20414622.36943 -15898994.86742  21910426.323    21910422.808
  20917326.134   -25408949.14644 -19755489.82142  20917327.334    20917323.467
  21069899.237   -23176412.08044 -18019638.83242  21069900.699    21069895.766
  23032289.750   -11739924.20843  -9101846.31942  23032291.474    23032287.906
  20215679.495   -29536133.08844 -22836049.33942  20215679.472    20215675.399
  22863560.163   -13491890.12843 -10475812.34942  22863561.279    22863555.862
  23575266.751    -5546615.97143  -4093427.72242  23575268.762    23575265.881
 04  7 20  3  3  0.0000000  0 10G13G10G 7G31G27G28G29G 8G19G26
  23610545.588    -6750765.77943  -4799823.36642  23610547.506    23610543.962
  23875406.969    -5607365.38843  -4339368.78042  23875407.607    23875405.956
  24171903.192    -6429147.37043  -4968345.46642  24171904.219    24171904.892
  21891759.128   -20512710.67343 -15975427.24642  21891760.656    21891757.231
  20922255.872   -25383043.47044 -19735303.58342  20922257.065    20922253.164
  21061997.890   -23217934.00943 -18051993.56742  21061999.338    21061994.399
  23016552.046   -11822626.02543  -9166289.28742  23016553.733    23016550.194
  20213776.161   -29546134.85444 -22843842.91742  20213776.164    20213772.141
  22873502.417   -13439642.88943 -10435100.23642  22873503.574    22873498.181
  23557293.917    -5641063.26443  -4167022.98742  23557295.938    23557293.102
 04  7 20  3  3 30.0000000  0 10G13G10G 7G31G27G28G29G 8G19G26
  23631634.563    -6639942.90443  -4713467.92642  23631636.582    23631632.957
  23886738.355    -5547819.27643  -4292969.28142  23886738.952    23886737.080
  24151839.721    -6534581.65843  -5050501.85642  24151840.706    24151841.488
  21873156.495   -20610468.11543 -16051601.81642  21873157.991    21873154.577
  20927241.307   -25356844.63843 -19714888.91342  20927242.519    20927238.624
  21054161.302   -23259115.41744 -18084082.95642  21054162.768    21054157.787
  23000873.769   -11905015.49643  -9230488.84242  23000875.392    23000871.946
  20211935.781   -29555806.14744 -22851378.99042  20211935.801    20211931.762
  22883539.517   -13386897.27443 -10393999.77142  22883540.659    22883535.376
  23539375.219    -5735226.49443  -4240396.87542  23539377.220    23539374.429
 04  7 20  3  4  0.0000000  0 10G13G10G 7G31G27G28G29G 8G19G26
  23652754.453    -6528957.82443  -4626986.12342  23652756.554    23652752.868
  23898137.774    -5487914.80443  -4246290.50542  23898138.431    23898136.658
  24131786.549    -6639961.52743  -5132615.86342  24131787.637    24131788.218
  21854617.012   -20707892.82743 -16127517.10442  21854618.527    21854615.215
  20932282.427   -25330353.20443 -19694246.23942  20932283.640    20932279.735
  21046389.289   -23299957.48444 -18115907.92042  21046390.748    21046385.746
  22985255.097   -11987091.28243  -9294443.96742  22985256.740    22985253.462
  20210158.131   -29565147.58244 -22858658.02942  20210158.143    20210154.106
  22893670.994   -13333656.14043 -10352513.19442  22893672.077    22893666.859
  23521510.683    -5829104.05743  -4313548.19342  23521512.678    23521510.199
 04  7 20  3  4 30.0000000  0 10G13G10G 7G31G27G28G29G 8G19G26
  23673904.539    -6417814.56443  -4540381.04742  23673906.621    23673902.956
  23909604.504    -5427656.18843  -4199335.75942  23909605.087    23909603.642
  24111743.882    -6745285.87143  -5214686.60842  24111745.115    24111745.768
  21836141.279   -20804983.08243 -16203171.79042  21836142.792    21836139.540
  20937379.145   -25303569.87743 -19673376.11542  20937380.316    20937376.477
  21038681.519   -23340461.71843 -18147469.63842  21038682.986    21038678.030
  22969696.476   -12068852.25343  -9358153.79342  22969698.037    22969694.793
  20208443.311   -29574159.35344 -22865680.18742  20208443.315    20208439.191
  22903896.145   -13279922.53343 -10310642.86942  22903897.242    22903892.094
  23503700.827    -5922694.54943  -4386475.78142  23503702.920    23503700.570
 04  7 20  3  5  0.0000000  0 10G13G10G 7G31G27G28G29G 8G19G26
  23695084.573    -6306512.36743  -4453652.11442  23695086.749    23695083.059
  23921138.489    -5367043.22043  -4152104.90742  23921139.105    23921137.921
  24091712.607    -6850549.37643  -5296709.98742  24091713.951    24091714.618
  21817730.339   -20901733.01843 -16278561.28542  21817731.853    21817728.658
  20942532.035   -25276491.18643 -19652275.84342  20942533.209    20942529.382
  21031038.699   -23380625.27044 -18178765.88842  21031040.111    21031035.129
  22954198.902   -12150292.84143  -9421613.95542  22954200.433    22954197.043
  20206791.876   -29582837.73244 -22872442.55642  20206791.891    20206787.748
  22914215.226   -13225695.46443 -10268388.04242  22914216.312    22914211.185
  23485946.816    -6015992.26943  -4459175.24842  23485948.920    23485946.471
 04  7 20  3  5 30.0000000  0 10G13G10G 7G31G27G28G29G 8G19G26
  23716294.188    -6195054.82043  -4366802.12442  23716296.253    23716292.660
  23932739.614    -5306079.90043  -4104601.05942  23932740.249    23932738.756
  24071693.213    -6955750.79943  -5378684.98242  24071694.636    24071695.463
  21799384.720   -20998140.76743 -16353684.14242  21799386.236    21799382.954
  20947741.069   -25249117.79043 -19630945.91642  20947742.249    20947738.380
  21023460.418   -23420449.46044 -18209797.70542  21023461.858    21023456.787
  22938762.337   -12231411.93243  -9484823.60742  22938763.927    22938760.460
  20205203.681   -29591183.32044 -22878945.60942  20205203.730    20205199.676
  22924627.717   -13170977.75443 -10225750.88942  22924628.758    22924623.698
  23468248.742    -6108995.99943  -4531645.66242  23468250.919    23468248.298
 04  7 20  3  6  0.0000000  0 10G13G10G 7G31G27G28G29G 8G19G26
  23737532.404    -6083447.34643  -4279835.29342  23737534.462    23737530.829
  23944406.238    -5244772.19343  -4056828.89142  23944407.065    23944405.324
  24051685.520    -7060890.89443  -5460612.19442  24051686.879    24051687.979
  21781103.915   -21094206.51543 -16428540.48942  21781105.506    21781102.235
  20953005.616   -25221452.15844 -19609388.28242  20953006.819    20953003.012
  21015946.081   -23459937.42044 -18240567.53242  21015947.528    21015942.481
  22923386.970   -12312210.09943  -9547783.18542  22923388.531    22923384.994
  20203678.505   -29599198.05944 -22885190.86642  20203678.539    20203674.532
  22935132.646   -13115774.49243 -10182735.38142  22935133.650    22935128.612
  23450606.634    -6201705.84943  -4603887.04142  23450608.789    23450606.004
 04  7 20  3  6 30.0000000  0 10G13G10G 7G31G27G28G29G 8G19G26
  23758800.054    -5971685.33143  -4192748.07842  23758802.211    23758798.427
  23956139.155    -5183116.04243  -4008785.23142  23956140.208    23956138.302
  24031691.475    -7165960.53043  -5542484.48842  24031692.565    24031693.943
  21762889.878   -21189920.51243 -16503122.76942  21762891.452    21762888.393
  20958327.293   -25193486.92943 -19587597.19742  20958328.485    20958324.677
  21008496.867   -23499082.58443 -18271070.24642  21008498.333    21008493.438
  22908074.346   -12392678.08643  -9610485.49042  22908075.984    22908072.391
  20202217.753   -29606874.14244 -22891172.23042  20202217.771    20202213.818
  22945730.879   -13060080.69443 -10139337.64042  22945731.893    22945726.841
  23433022.298    -6294112.56643  -4675892.21442  23433024.364    23433021.392
 04  7 20  3  7  0.0000000  0 10G13G10G 7G31G27G28G29G 8G19G26
  23780094.945    -5859780.48943  -4105549.54642  23780097.050    23780093.358
  23967936.212    -5121123.29343  -3960479.26042  23967937.428    23967935.295
  24011709.689    -7270966.13743  -5624306.89942  24011710.604    24011712.020
  21744741.971   -21285288.67743 -16577435.55042  21744743.419    21744740.329
  20963704.255   -25165230.67443 -19565579.33342  20963705.501    20963701.677
  21001111.205   -23537894.04943 -18301312.94242  21001112.631    21001107.835
  22892823.421   -12472822.31243  -9672935.52042  22892825.033    22892821.409
  20200819.795   -29614220.32344 -22896896.52742  20200819.817    20200815.846
  22956420.321   -13003907.23343 -10095566.13542  22956421.374    22956416.336
  23415494.406    -6386222.15843  -4747665.86642  23415496.434    23415493.357
 04  7 20  3  7 30.0000000  0 10G13G10G 7G31G27G28G29G 8G19G26
  23801418.268    -5747725.57443  -4018234.08242  23801420.375    23801416.858
  23979798.598    -5058787.58943  -3911906.04242  23979799.961    23979797.458
  23991742.107    -7375896.05143  -5706070.30642  23991743.165    23991744.232
  21726662.193   -21380298.73943 -16651469.31342  21726663.628    21726660.411
  20969138.541   -25136673.28143 -19543326.82542  20969139.785    20969135.963
  20993790.987   -23576362.53844 -18331288.37542  20993792.389    20993787.480
  22877636.316   -12552630.87543  -9735124.00342  22877637.987    22877634.329
  20199486.734   -29621225.80444 -22902355.34542  20199486.734    20199482.697
  22967202.498   -12947246.51743 -10051414.95442  22967203.547    22967198.487
  23398025.323    -6478022.80443  -4819198.76142  23398027.255    23398023.935
 04  7 20  3  8  0.0000000  0 10G13G10G 7G31G27G28G29G 8G19G26
  23822768.501    -5635528.36843  -3930807.74242  23822770.544    23822767.416
  23991724.406    -4996117.04743  -3863071.92342  23991725.844    23991723.398
  23971788.259    -7480753.19643  -5787776.99942  23971789.480    23971790.062
  21708649.789   -21474953.16443 -16725225.95242  21708651.303    21708648.241
  20974629.224   -25107819.46143 -19520843.33642  20974630.431    20974626.547
  20986535.032   -23614493.39644 -18361000.71742  20986536.416    20986531.371
  22862512.612   -12632106.65843  -9797053.17442  22862514.322    22862510.558
  20198217.634   -29627895.14644 -22907552.23442  20198217.622    20198213.588
  22978076.103   -12890105.60943 -10006889.59342  22978077.102    22978072.075
  23380614.643    -6569517.08743  -4890492.96342  23380616.502    23380613.022
 04  7 20  3  8 30.0000000  0 10G13G10G 7G31G27G28G29G 8G19G26
  23844145.478    -5523191.04643  -3843272.23142  23844147.411    23844144.550
  24003713.275    -4933114.42843  -3813979.02942  24003714.325    24003712.500
  23951848.554    -7585535.10143  -5869425.05842  23951849.982    23951850.206
  21690706.089   -21569248.33243 -16798702.65042  21690707.470    21690704.468
  20980176.382   -25078668.70143 -19498128.46442  20980177.607    20980173.717
  20979343.108   -23652286.74943 -18390450.07542  20979344.548    20979339.571
  22847452.689   -12711247.27043  -9858721.16842  22847454.398    22847450.608
  20197012.707   -29634227.24144 -22912486.33642  20197012.693    20197008.651
  22989040.575   -12832486.51543  -9961991.61442  22989041.625    22989036.663
  23363262.738    -6660702.05543  -4961546.12742  23363264.535    23363260.888
 04  7 20  3  9  0.0000000  0 10G13G10G 7G31G27G28G29G 8G19G26
  23865549.243    -5410713.98643  -3755627.83642  23865551.066    23865548.424
  24015765.008    -4869780.79343  -3764628.18142  24015766.010    24015764.424
  23931924.256    -7690237.51743  -5951011.18342  23931925.448    23931925.528
  21672831.468   -21663180.07643 -16871896.15242  21672832.850    21672829.719
  20985780.545   -25049218.47143 -19475180.24242  20985781.762    20985777.884
  20972215.769   -23689741.01344 -18419635.21242  20972217.215    20972212.296
  22832457.355   -12790048.29443  -9920124.52042  22832459.082    22832455.262
  20195872.459   -29640219.56344 -22917155.67642  20195872.449    20195868.334
  23000096.114   -12774389.46243  -9916721.21242  23000097.143    23000092.149
  23345970.485    -6751573.23143  -5032354.75542  23345972.328    23345968.594
 04  7 20  3  9 30.0000000  0 10G13G10G 7G31G27G28G29G 8G19G26
  23886978.627    -5298103.33243  -3667879.33142  23886980.424    23886977.421
  24027878.846    -4806122.55143  -3715024.42242  24027879.696    24027878.120
  23912014.823    -7794861.67743  -6032536.35342  23912015.995    23912015.999
  21655025.733   -21756748.79643 -16944806.77842  21655027.137    21655024.018
  20991441.117   -25019471.93843 -19452001.12842  20991442.293    20991438.427
  20965152.316   -23726860.02144 -18448559.11142  20965153.722    20965148.784
  22817526.410   -12868510.83243  -9981264.12642  22817528.200    22817524.322
  20194796.270   -29645875.07344 -22921562.56042  20194796.252    20194792.119
  23011241.501   -12715819.68043  -9871082.43742  23011242.606    23011237.577
  23328737.771    -6842131.48143  -5102919.58742  23328739.599    23328735.846
 04  7 20  3 10  0.0000000  0 10G13G10G 7G31G27G28G29G 8G19G26
  23908433.810    -5185356.80843  -3580024.96842  23908435.676    23908432.355
  24040054.708    -4742137.81843  -3665166.23142  24040055.270    24040053.955
  23892121.766    -7899400.39843  -6113994.93842  23892122.918    23892122.898
  21637290.720   -21849946.82943 -17017428.55442  21637292.094    21637288.921
  20997159.015   -24989423.74743 -19428586.96342  20997160.213    20997156.424
  20958153.542   -23763638.90144 -18477217.96342  20958154.966    20958149.908
  22802661.171   -12946627.74443 -10042134.41442  22802663.064    22802659.160
  20193785.226   -29651187.86444 -22925702.40042  20193785.250    20193781.170
  23022477.459   -12656774.38243  -9825073.12742  23022478.508    23022473.508
  23311566.032    -6932369.42343  -5173234.79442  23311567.860    23311564.257
 04  7 20  3 10 30.0000000  0 10G13G10G 7G31G27G28G29G 8G19G26
  23929913.884    -5072478.43443  -3492067.84342  23929915.797    23929912.345
  24052292.023    -4677830.95543  -3615057.06342  24052292.720    24052291.349
  23872245.291    -8003852.86743  -6195386.32442  23872246.293    23872246.081
  21619626.500   -21942772.90243 -17089760.49242  21619627.909    21619624.637
  21002934.157   -24959074.99543 -19404938.58842  21002935.344    21002931.556
  20951219.109   -23800079.47644 -18505613.20942  20951220.517    20951215.396
  22787861.897   -13024398.11543 -10102734.69742  22787863.863    22787859.871
  20192839.280   -29656158.87544 -22929575.91542  20192839.293    20192835.206
  23033803.066   -12597257.12943  -9778696.04242  23033804.159    23033799.332
  23294455.387    -7022285.88643  -5243299.50442  23294457.212    23294453.813
 04  7 20  3 11  0.0000000  0 10G13G10G 7G31G27G28G29G 8G19G26
  23951418.492    -4959471.86543  -3404010.81942  23951420.317    23951416.886
  24064589.670    -4613206.09643  -3564700.05842  24064590.542    24064589.294
  23852385.033    -8108218.03443  -6276709.66642  23852386.139    23852385.789
  21602033.277   -22035225.55343 -17161801.46242  21602034.693    21602031.472
  21008766.368   -24928426.42743 -19381056.60242  21008767.539    21008763.810
  20944348.743   -23836183.34843 -18533746.09442  20944350.173    20944345.054
  22773128.833   -13101820.76943 -10163064.01142  22773130.794    22773126.876
  20191958.227   -29660788.82544 -22933183.67042  20191958.245    20191954.114
  23045218.086   -12537271.30743  -9731953.85042  23045219.122    23045214.315
  23277406.124    -7111879.65543  -5313112.77242  23277407.989    23277404.735
 04  7 20  3 11 30.0000000  0 10G13G10G 7G31G27G28G29G 8G19G26
  23972947.156    -4846338.35643  -3315854.88142  23972948.970    23972945.838
  24076947.609    -4548265.52043  -3514097.06342  24076948.372    24076947.306
  23832541.960    -8212492.69343  -6357962.46742  23832543.094    23832542.939
  21584511.840   -22127300.32843 -17233547.98142  21584513.294    21584510.093
  21014655.895   -24897476.61443 -19356939.87042  21014657.108    21014653.377
  20937542.525   -23871949.89544 -18561616.12342  20937543.975    20937538.954
  22758462.508   -13178892.43543 -10223119.82542  22758464.442    22758460.727
  20191142.481   -29665075.48944 -22936523.92342  20191142.488    20191138.403
  23056721.916   -12476817.87143  -9684847.28742  23056723.044    23056718.246
  23260419.028    -7201147.01543  -5382671.68042  23260420.941    23260417.689
 04  7 20  3 12  0.0000000  0 10G13G10G 7G31G27G28G29G 8G19G26
  23994499.296    -4733081.79243  -3227603.06742  23994501.086    23994498.130
  24089365.158    -4483013.65443  -3463251.53142  24089365.680    24089364.306
  23812716.388    -8316675.77243  -6439143.89642  23812717.487    23812717.414
  21567062.751   -22218996.36543 -17304999.35742  21567064.204    21567060.731
  21020602.678   -24866226.37443 -19332589.04342  21020603.885    21020600.120
  20930800.288   -23907380.62743 -18589224.48442  20930801.713    20930796.728
  22743863.172   -13255612.04043 -10282901.30242  22743865.075    22743861.560
  20190391.955   -29669019.56044 -22939597.21942  20190391.937    20190387.898
  23068314.098   -12415900.43843  -9637379.16242  23068315.276    23068310.481
  23243494.220    -7290086.57943  -5451975.17342  23243496.246    23243492.961
 04  7 20  3 12 30.0000000  0 10G13G10G 7G31G27G28G29G 8G19G26
  24016076.143    -4619695.55043  -3139250.21942  24016078.052    24016074.963
  24101838.212      308815.51953    270641.24952  24101839.626    24101847.158
  23792910.480    -8420756.07743  -6520245.26742  23792911.562    23792911.421
  21549687.858   -22310301.69743 -17376146.30542  21549689.325    21549685.777
  21026608.395   -24834666.47343 -19307996.92042  21026609.600    21026605.768
  20924123.551   -23942466.98343 -18616564.50142  20924124.976    20924120.044
  22729333.024   -13331968.28043 -10342399.65542  22729334.878    22729331.502
  20189708.466   -29672611.28744 -22942395.96042  20189708.445    20189704.400
  23079996.051   -12354512.20343  -9589544.17242  23079997.211    23079992.276
  23226633.930    -7378687.03943  -5521014.43242  23226636.086    23226632.743
 04  7 20  3 13  0.0000000  0 10G13G10G 7G31G27G28G29G 8G19G26
  24037674.147    -4506197.12143  -3050809.94742  24037676.210    24037673.115
  24114375.275      374684.39953    321967.60452  24114377.514    24114378.633
  23773121.799    -8524745.90643  -6601276.15342  23773122.930    23773122.558
  21532385.032   -22401228.18243 -17446998.05842  21532386.510    21532383.112
  21032670.313   -24802811.14843 -19283174.58942  21032671.496    21032667.662
  20917509.601   -23977223.74144 -18643647.67642  20917511.008    20917506.046
  22714869.678   -13407973.55643 -10401624.51342  22714871.491    22714868.142
  20189089.342   -29675864.97544 -22944931.29542  20189089.320    20189085.231
  23091764.337   -12292669.66543  -9541355.19942  23091765.480    23091760.521
  23209836.010    -7466960.26743  -5589798.71642  23209838.231    23209834.812
 04  7 20  3 13 30.0000000  0 10G13G10G 7G31G27G28G29G 8G19G26
  24059294.112    -4392584.31543  -2962280.54042  24059296.140    24059293.010
  24126968.681                      373528.64842                  24126970.401
  23753351.514    -8628638.62343  -6682231.38342  23753352.678    23753351.963
  21515155.907   -22491768.62243 -17517548.99042  21515157.370    21515153.927
  21038789.317   -24770655.56943 -19258118.30042  21038790.511    21038786.701
  20910959.059   -24011646.98544 -18670470.97442  20910960.467    20910955.518
  22700474.478   -13483620.98543 -10460570.53642  22700476.240    22700472.869
  20188535.565   -29678774.98844 -22947198.82942  20188535.564    20188531.489
  23103619.477   -12230370.68043  -9492810.55742  23103620.578    23103615.691
  23193101.741    -7554899.33743  -5658322.61042  23193103.861    23193100.548
 04  7 20  3 14  0.0000000  0 10G13G10G 7G31G27G28G29G 8G19G26
  24080937.322    -4278849.08143  -2873655.73742  24080939.242    24080936.303
  24139617.440
  23733602.162    -8732421.44943  -6763101.00442  23733603.269    23733602.347
  21498002.552   -22581909.84243 -17587788.83842  21498004.106    21498000.648
  21044967.547   -24738188.70343 -19232819.44142  21044968.764    21044964.936
  20904473.919   -24045726.47843 -18697026.41942  20904475.317    20904470.439
  22686149.816   -13558897.80543 -10519227.76942  22686151.515    22686148.158
  20188049.217   -29681330.82044 -22949190.38142  20188049.206    20188045.095
  23115563.096   -12167606.98243  -9443903.80142  23115564.235    23115559.405
  23176433.524    -7642491.09643  -5726575.87742  23176435.649    23176432.419
 04  7 20  3 14 30.0000000  0 10G13G10G 7G31G27G28G29G 8G19G26
  24102600.624    -4165007.19643  -2784947.78442  24102602.479    24102599.929
  24152328.080
  23713871.445    -8836104.88243  -6843893.19042  23713872.645    23713871.745
  21480923.203   -22671661.89543 -17657725.45042  21480924.715    21480921.380
  21051202.621   -24705423.15943 -19207287.85342  21051203.820    21051200.025
  20898051.688   -24079475.45843 -18723324.32042  20898053.056    20898048.243
  22671893.511   -13633814.76843 -10577604.59542  22671895.241    22671891.899
  20187628.081   -29683543.94844 -22950914.89742  20187628.092    20187623.949
  23127592.340   -12104393.51743  -9394646.58542  23127593.441    23127588.559
  23159829.445    -7729746.03343  -5794566.70442  23159831.609    23159828.432
 04  7 20  3 15  0.0000000  0 10G13G10G 7G31G27G28G29G 8G19G26
  24124284.890    -4051053.95343  -2696153.03942  24124286.784    24124284.866
  24165088.469
  23694161.354    -8939679.80443  -6924600.80242  23694162.638    23694162.096
  21463919.886   -22761015.09643 -17727351.26342  21463921.354    21463918.004
  21057495.993   -24672351.61743 -19181517.82442  21057497.172    21057493.342
  20891693.602   -24112887.58744 -18749359.73842  20891694.980    20891690.085
  22657707.465   -13708362.42743 -10635693.64842  22657709.144    22657705.958
  20187273.617   -29685406.81744 -22952366.47842  20187273.630    20187269.524
  23139707.821   -12040725.67243  -9345035.29842  23139708.924    23139704.106
  23143291.296    -7816654.56243  -5862287.60542  23143293.473    23143290.296
 04  7 20  3 15 30.0000000  0  9G13G 7G31G27G28G29G 8G19G26
  24145990.748    -3936989.05243  -2607271.32942  24145992.374    24145990.928
  23674473.491    -9043141.00443  -7005219.78142  23674474.415    23674474.167
  21446993.423   -22849963.91843 -17796661.97142  21446994.968    21446991.469
  21063848.119   -24638970.85243 -19155506.83942  21063849.292    21063845.500
  20885400.129   -24145959.89943 -18775130.34642  20885401.529    20885396.595
  22643592.555   -13782535.63643 -10693490.91642  22643594.281    22643591.280
  20186986.397   -29686916.31344 -22953542.70442  20186986.415    20186982.247
  23151909.996   -11976602.48143  -9295069.20842  23151911.045    23151906.310
  23126820.105    -7903211.29343  -5929734.36442  23126822.351    23126819.096
 04  7 20  3 16  0.0000000  0  9G13G 7G31G27G28G29G 8G19G26
  24167715.838    -3822822.63943  -2518310.53842  24167717.545    24167715.929
  23654806.216    -9146494.31443  -7085754.69542  23654806.896    23654806.823
  21430142.853   -22938513.58243 -17865661.65442  21430144.398    21430140.817
  21070257.641   -24605288.48843 -19129260.83742  21070258.813    21070255.068
  20879169.609   -24178701.09543 -18800642.94942  20879170.987    20879166.122
  22629547.923   -13856340.29443 -10751001.00642  22629549.634    22629546.727
  20186765.096   -29688079.35544 -22954448.96742  20186765.106    20186760.942
  23164196.967   -11912034.36143  -9244756.41842  23164197.947    23164193.220
  23110414.940    -7989421.68043  -5996911.24142  23110417.079    23110413.814
 04  7 20  3 16 30.0000000  0  9G13G 7G31G27G28G29G 8G19G26
  24189460.656    -3708552.52543  -2429268.95542  24189462.525    24189460.640
  23635160.561    -9249732.60043  -7166199.98342  23635161.416    23635161.201
  21413369.727   -23026656.51243 -17934344.40742  21413371.318    21413367.650
  21076725.545   -24571299.29543 -19102775.75642  21076726.694    21076722.972
  20873003.040   -24211106.56743 -18825893.95742  20873004.373    20872999.550
  22615575.021   -13929769.00543 -10808218.16942  22615576.714    22615573.696
  20186610.716   -29688890.50244 -22955081.03342  20186610.715    20186606.603
  23176569.133   -11847018.58543  -9194094.83442  23176570.047    23176565.389
  23094076.988    -8075278.16743  -6063812.35442  23094079.126    23094075.911
 04  7 20  3 17  0.0000000  0  9G13G 7G31G27G28G29G 8G19G26
  24211224.298    -3594183.23243  -2340150.08742  24211226.241    24211224.158
  23615536.840    -9352855.28343  -7246555.20442  23615538.021    23615537.600
  21396674.272   -23114391.93543 -18002709.62442  21396675.800    21396672.138
  21083251.546   -24537004.69643 -19076052.68942  21083252.738    21083249.025
  20866900.001   -24243178.73644 -18850885.23742  20866901.320    20866896.357
  22601673.746   -14002821.45543 -10865142.13542  22601675.339    22601672.216
  20186523.074   -29689350.98344 -22955439.84242  20186523.072    20186518.986
  23189025.518   -11781559.57243  -9143087.85742  23189026.556    23189021.846
  23077806.562    -8160780.10143  -6130437.20442  23077808.600    23077805.440
 04  7 20  3 17 30.0000000  0  9G13G 7G31G27G28G29G 8G19G26
  24233007.032    -3479713.62543  -2250953.03342  24233008.964    24233006.956
  23595935.975    -9455856.54543  -7326815.80342  23595937.374    23595937.105
  21380057.597   -23201713.22143 -18070752.13542  21380059.084    21380055.381
  21089836.514   -24502400.62943 -19049088.48442  21089837.677    21089833.918
  20860861.016   -24274914.10344 -18875614.07542  20860862.359    20860857.300
  22587845.057   -14075491.47943 -10921768.11142  22587846.706    22587843.475
  20186503.143   -29689455.80944 -22955521.52142  20186503.139    20186499.045
  23201566.798   -11715655.56743  -9091734.12842  23201567.740    23201562.965
  23061604.792    -8245921.26043  -6196780.94542  23061606.790    23061603.588
 04  7 20  3 18  0.0000000  0  9G13G 7G31G27G28G29G 8G19G26
  24254807.726    -3365149.74843  -2161682.50342  24254809.490    24254807.739
  23576358.134    -9558737.79343  -7406982.89242  23576359.443    23576359.627
  21363519.422   -23288621.64143 -18138472.93142  21363520.971    21363517.136
  21096479.638   -24467490.63943 -19021885.89042  21096480.795    21096477.041
  20854885.213   -24306316.73543 -18900083.63042  20854886.622    20854881.530
  22574088.716   -14147780.86543 -10978097.48642  22574090.421    22574087.235
  20186550.114   -29689208.65344 -22955328.92242  20186550.127    20186546.070
  23214191.446   -11649312.61543  -9040038.36142  23214192.427    23214187.576
  23045471.392    -8330702.84243  -6262844.47642  23045473.396    23045470.208
 04  7 20  3 18 30.0000000  0  9G13G 7G31G27G28G29G 8G19G26
  24276626.245    -3250492.53943  -2072339.25242  24276627.923    24276626.441
  23556804.126    -9661495.63043  -7487053.82842  23556805.249    23556805.363
  21347060.651   -23375113.29243 -18205868.95842  21347062.238    21347058.191
  21103181.318   -24432273.07743 -18994443.63942  21103182.510    21103178.714
  20848972.935   -24337386.10644 -18924293.51242  20848974.315    20848969.206
  22560405.685   -14219685.90443 -11034127.36242  22560407.357    22560404.146
  20186664.370   -29688607.97044 -22954860.85642  20186664.371    20186660.345
  23226899.348   -11582531.93243  -8988001.50242  23226900.404    23226895.401
  23029407.005    -8415121.18143  -6328624.97542  23029409.079    23029405.901
 04  7 20  3 19  0.0000000  0  9G13G 7G31G27G28G29G 8G19G26
  24298462.106    -3135744.20643  -1982924.94942  24298463.983    24298462.632
  23537274.144    -9764126.84543  -7567026.08442  23537275.265    23537275.035
  21330681.742   -23461184.52643 -18272937.39942  21330683.364    21330679.365
  21109941.784   -24396746.65743 -18966760.71342  21109942.994    21109939.161
  20843124.140   -24368121.68444 -18948243.30942  20843125.555    20843120.454
  22546796.309   -14291203.64043 -11089855.44142  22546797.940    22546794.677
  20186846.330   -29687651.62144 -22954115.64642  20186846.304    20186842.353
  23239690.227   -11515314.80943  -8935624.54942  23239691.468    23239686.406
  23013412.307    -8499172.77343  -6394119.70742  23013414.409    23013411.382
 04  7 20  3 19 30.0000000  0 10G13G 7G31G27G28G29G 8G19G26G11
  24320314.758    -3020909.87143  -1893443.67242  24320316.549    24320314.934
  23517768.282    -9866631.92543  -7646900.04842  23517769.381    23517768.645
  21314382.741   -23546835.47843 -18339678.36142  21314384.368    21314380.562
  21116760.533   -24360913.93943 -18938839.11842  21116761.710    21116757.953
  20837338.197   -24398526.60443 -18971935.42842  20837339.658    20837334.593
  22533260.664   -14362334.37843 -11145281.97442  22533262.226    22533258.891
  20187095.608   -29686341.55444 -22953094.81042  20187095.593    20187091.637
  23252563.464   -11447666.32643  -8882911.50542  23252564.565    23252559.500
  22997487.426    -8582857.82743  -6459328.81542  22997489.511    22997486.692
  24580366.428    -1613422.55553  -1229407.71852  24580368.733    24580364.819
 04  7 20  3 20  0.0000000  0 10G13G 7G31G27G28G29G 8G19G26G11
  24342184.126    -2905987.14643  -1803893.53442  24342186.151    24342184.111
  23498287.443    -9969003.70643  -7726670.15642  23498288.691    23498287.699
  21298165.271   -23632058.78843 -18406086.08742  21298166.838    21298163.128
  21123638.576   -24324769.76643 -18910674.82942  21123639.789    21123635.984
  20831616.069   -24428596.41343 -18995366.43642  20831617.533    20831612.414
  22519799.813   -14433071.21643 -11200401.56642  22519801.440    22519798.097
  20187413.215   -29684672.58144 -22951794.31042  20187413.189    20187409.230
  23265519.158   -11379583.88943  -8829860.28942  23265520.247    23265515.361
  22981633.632    -8666169.03543  -6524246.63042  22981635.830    22981633.161
  24568703.472    -1674712.81243  -1277166.28642  24568705.364    24568701.498
 04  7 20  3 20 30.0000000  0 10G13G 7G31G27G28G29G 8G19G26G11
  24364069.424    -2790980.28043  -1714277.87042  24364071.634    24364068.964
  23478831.875   -10071241.81043  -7806336.08642  23478833.293    23478832.285
  21282029.355   -23716853.43843 -18472159.79442  21282030.845    21282027.256
  21130575.590   -24288315.50743 -18882268.91242  21130576.843    21130573.019
  20825957.335   -24458333.29443 -19018538.02142  20825958.782    20825953.627
  22506414.127   -14503413.54743 -11255213.74642  22506415.711    22506412.298
  20187798.970   -29682645.38344 -22950214.67042  20187798.948    20187794.940
  23278556.566   -11311071.64743  -8776474.14142  23278557.604    23278552.837
  22965851.339    -8749105.62643  -6588872.51542  22965853.507    22965850.873
  24557081.646    -1735785.31943  -1324755.18642  24557083.382    24557079.826
 04  7 20  3 21  0.0000000  0 11G13G10G 7G31G27G28G29G 8G19G26G11
  24385970.555    -2675889.03143  -1624596.44042  24385972.808    24385970.027
  24322415.828
  23459402.641   -10173341.16943  -7885893.91342  23459404.126    23459403.394
  21265975.961   -23801214.02243 -18537895.27242  21265977.465    21265973.996
  21137572.180   -24251548.14043 -18853619.01842  21137573.424    21137569.617
  20820362.306   -24487735.21443 -19041448.58842  20820363.739    20820358.679
  22493104.273   -14573356.45543 -11309714.70842  22493105.925    22493102.501
  20188253.423   -29680257.16644 -22948353.71742  20188253.394    20188249.368
  23291675.503   -11242129.43743  -8722752.95842  23291676.702    23291672.085
  22950141.394    -8831662.29743  -6653202.36842  22950143.451    22950140.737
  24545502.247    -1796634.64643  -1372170.20842  24545504.029    24545500.585
 04  7 20  3 21 30.0000000  0 10G13G 7G31G27G28G29G 8G19G26G11
  24407885.522    -2560724.91043  -1534858.24242  24407887.677    24407885.004
  23439998.715   -10275308.32443  -7965348.72942  23440000.067    23439999.476
  21250004.077   -23885146.92043 -18603297.48642  21250005.560    21250002.093
  21144626.783   -24214476.13343 -18824731.74742  21144627.972    21144624.127
  20814829.293   -24516811.19743 -19064105.18742  20814830.732    20814825.712
  22479869.283   -14642906.65143 -11363909.64142  22479870.969    22479867.515
  20188775.134   -29677515.65344 -22946217.47242  20188775.099    20188771.003
  23304874.598   -11172767.98843  -8668705.09442  23304875.702    23304871.235
  22934502.605    -8913845.29643  -6717241.01842  22934504.527    22934501.676
  24533964.344    -1857266.65243  -1419415.85142  24533966.092    24533962.889
 04  7 20  3 22  0.0000000  0 10G13G 7G31G27G28G29G 8G19G26G11
  24429816.297    -2445478.32243  -1445055.71742  24429818.470    24429815.748
  23420622.839   -10377129.47743  -8044689.76842  23420623.830    23420623.232
  21234116.224   -23968637.83643 -18668355.29842  21234117.691    21234114.256
  21151741.583   -24177087.69743 -18795597.90542  21151742.781    21151738.866
  20809360.430   -24545550.15343 -19086499.18442  20809361.855    20809356.805
  22466711.793   -14712050.06143 -11417787.60042  22466713.390    22466710.025
  20189366.370   -29674408.90644 -22943796.62442  20189366.341    20189362.169
  23318155.508   -11102978.22843  -8614323.47042  23318156.467    23318151.795
  22918937.446    -8995640.70343  -6780977.66942  22918939.343    22918936.483
  24522470.612    -1917667.11043  -1466481.08642  24522472.232    24522468.993
 04  7 20  3 22 30.0000000  0 10G13G 7G31G27G28G29G 8G19G26G11
  24451760.545    -2330161.82043  -1355198.72642  24451762.867    24451759.867
  23401273.346   -10478811.87743  -8123922.70942  23401274.229    23401273.327
  21218311.132   -24051693.71843 -18733074.11542  21218312.580    21218309.178
  21158914.836   -24139392.01143 -18766224.65442  21158915.999    21158912.111
  20803953.822   -24573961.98443 -19108638.26342  20803955.253    20803950.138
  22453630.150   -14780794.37943 -11471354.58642  22453631.740    22453628.507
  20190025.321   -29670945.70244 -22941098.01942  20190025.331    20190021.215
  23331515.334   -11032772.03743  -8559617.35742  23331516.415    23331511.519
  22903444.618    -9077055.55043  -6844417.76242  22903446.466    22903443.720
  24511019.368    -1977842.99943  -1513371.31742  24511021.172    24511017.952
 04  7 20  3 23  0.0000000  0 10G13G 7G31G27G28G29G 8G19G26G11
  24473718.723    -2214771.93243  -1265284.56142  24473720.985    24473718.050
  23381951.889   -10580347.58543  -8203041.33942  23381952.776    23381951.368
  21202590.488   -24134306.33343 -18797447.53342  21202591.915    21202588.440
  21166147.712   -24101383.03743 -18736607.27142  21166148.887    21166144.949
  20798610.529   -24602041.52043 -19130518.40942  20798611.931    20798606.779
  22440626.158   -14849131.38943 -11524604.17942  22440627.713    22440624.488
  20190753.541   -29667119.22844 -22938116.35142  20190753.530    20190749.341
  23344954.840   -10962145.80043  -8504583.94942  23344955.914    23344951.327
  22888025.916    -9158081.44243  -6907554.78742  22888027.739    22888024.978
  24499612.530    -2037786.28443  -1560080.30842  24499614.244    24499611.083
 04  7 20  3 23 30.0000000  0 10G13G 7G31G27G28G29G 8G19G26G11
  24495689.824    -2099312.82243  -1175316.43742  24495692.136    24495689.278
  23362658.300   -10681736.01643  -8282045.21242  23362659.301    23362657.547
  21186954.308   -24216474.78543 -18861474.84242  21186955.737    21186952.137
  21173439.886   -24063062.32443 -18706746.97442  21173441.062    21173437.090
  20793330.003   -24629790.65443 -19152141.10342  20793331.452    20793326.307
  22427699.660   -14917060.65843 -11577536.05242  22427701.323    22427698.056
  20191550.462   -29662931.02244 -22934852.80342  20191550.483    20191546.328
  23358473.557   -10891104.03243  -8449226.71942  23358474.736    23358470.200
  22872681.378    -9238717.72443  -6970388.21142  22872683.236    22872680.295
  24488250.228    -2097495.66043  -1606607.04842  24488251.784    24488248.500
 04  7 20  3 24  0.0000000  0 10G13G 7G31G27G28G29G 8G19G26G11
  24517674.432    -1983783.41643  -1085293.57042  24517676.744    24517673.903
  23343393.805   -10782971.33643  -8360929.80942  23343394.896    23343392.834
  21171403.759   -24298192.90143 -18925151.24542  21171405.191    21171401.492
  21180792.128   -24024425.74743 -18676640.55142  21180793.304    21180789.367
  20788112.942   -24657206.29943 -19173503.94442  20788114.356    20788109.308
  22414851.817   -14984576.39443 -11630145.68942  22414853.561    22414850.279
  20192417.090   -29658376.78144 -22931304.04342  20192417.115    20192412.988
  23372072.053   -10819644.90443  -8393544.29642  23372073.007    23372068.507
  22857412.018    -9318958.08043  -7032913.11042  22857413.995    22857410.959
  24476933.533    -2156964.58943  -1652946.40542  24476935.246    24476931.779
 04  7 20  3 24 30.0000000  0 11G13G10G 7G31G27G28G29G 8G19G26G11
  24539670.576    -1868193.57843   -995223.56542  24539672.873    24539669.560
  24417489.446
  23324157.363   -10884058.65043  -8439699.06842  23324158.359    23324156.352
  21155938.024   -24379465.62043 -18988480.59042  21155939.429    21155935.711
  21188203.097   -23985480.66543 -18646293.74342  21188204.298    21188200.345
  20782957.860   -24684296.44043 -19194613.14442  20782959.249    20782954.193
  22402081.653   -15051683.84543 -11682437.18442  22402083.458    22402080.164
  20193352.191   -29653462.97344 -22927475.10242  20193352.181    20193348.057
  23385748.251   -10747778.59943  -8337544.59442  23385749.178    23385744.037
  22842217.044    -9398807.66043  -7095133.50542  22842219.005    22842215.965
  24465661.582    -2216197.94343  -1699102.20542  24465663.581    24465660.209
 04  7 20  3 25  0.0000000  0 11G13G10G 7G31G27G28G29G 8G19G26G11
  24561676.909    -1752547.92643   -905110.08142  24561679.224    24561675.949
  24431254.922     -397124.13353   -345825.99652  24431256.689    24431251.809
  23304949.113   -10984997.75343  -8518352.79842  23304950.141    23304948.246
  21140557.177   -24460292.12143 -19051462.23142  21140558.579    21140554.976
  21195672.590   -23946228.74043 -18615707.84642  21195673.766    21195669.725
  20777864.307   -24711063.72144 -19215470.76242  20777865.698    20777860.560
  22389389.201   -15118382.77243 -11734410.33642  22389391.022    22389387.784
  20194355.386   -29648190.88744 -22923366.97842  20194355.408    20194351.314
  23399498.779    -5949249.66053  -4598431.08552  23399501.879    23399495.663
  22827096.555    -9478265.84843  -7157048.94142  22827098.439    22827095.535
  24454435.011    -2275195.48943  -1745074.27642  24454436.695    24454433.229
 04  7 20  3 25 30.0000000  0 11G13G10G 7G31G27G28G29G 8G19G26G11
  24583696.380    -1636833.62643   -814943.11942  24583698.496    24583695.706
  24445064.134     -324553.32543   -289277.41942  24445065.095    24445062.186
  23285772.327   -11085771.01143  -8596877.32442  23285773.288    23285771.870
  21125264.638   -24540654.85443 -19114082.49842  21125266.020    21125262.513
  21203203.414   -23906654.36943 -18584870.68342  21203204.623    21203200.532
  20772834.895   -24737493.39143 -19236065.30442  20772836.305    20772831.160
  22376777.903   -15184655.73643 -11786051.58942  22376779.656    22376776.390
  20195429.694   -29642545.37044 -22918967.87942  20195429.708    20195425.650
  23413331.035    -5876565.09553  -4541793.75852  23413332.881    23413327.860
  22812053.863    -9557314.90043  -7218645.55542  22812055.795    22812053.141
  24443256.254    -2333939.01043  -1790848.40442  24443257.919    24443254.804
